GFSNW_2pvu_pres_000.txt.gz
Presure
205 239 274 339 338 275 238 261 246 237 196 254 157 247 250 216 241 124 133 224 215 197 193 180 183 176 173 184 81 96 154 173 151 166 152 155 123 87 111 145 147 157 145 165
202 213 251 426 328 227 280 272 187 199 230 228 227 176 232 256 256 190 237 209 172 130 190 191 188 182 179 166 158 156 152 167 162 145 146 155 152 151 164 157 146 156 158 84
207 209 232 262 392 344 306 197 208 241 263 159 164 207 159 164 187 187 207 183 181 203 194 190 163 101 165 70 147 123 114 166 119 84 83 152 119 157 153 165 158 156 157 164
192 203 217 241 272 230 195 305 150 160 254 151 158 172 258 222 208 197 216 223 203 218 200 189 188 181 153 164 160 165 142 152 164 173 132 148 158 161 151 152 169 155 166 165
172 193 202 207 241 272 357 339 177 162 156 185 162 200 201 129 167 243 205 217 211 198 225 205 193 184 182 188 165 167 162 162 163 179 172 167 162 154 176 175 166 134 179 176
204 172 192 205 209 235 263 287 214 233 173 223 179 168 167 187 199 148 218 201 195 212 208 214 201 192 185 166 174 185 169 180 184 148 166 110 169 184 175 170 180 180 101 143
176 205 170 186 205 205 226 251 170 190 166 270 215 212 198 178 187 212 144 232 202 243 222 221 213 208 186 189 189 203 156 190 197 200 168 186 139 166 182 117 172 188 173 172
223 222 205 177 173 197 205 215 228 250 241 265 127 273 162 281 189 204 201 192 164 166 230 244 216 207 164 211 206 120 158 184 192 168 182 172 169 136 163 171 186 192 189 180
174 201 218 220 192 162 169 198 206 216 230 238 245 248 164 264 199 184 173 173 184 189 163 173 181 182 186 208 185 188 185 156 179 191 191 175 173 181 194 152 176 178 172 196
192 165 170 201 210 192 144 182 174 187 215 211 212 227 235 246 252 262 194 255 187 181 163 177 175 165 204 192 174 193 198 182 196 195 193 171 204 190 171 175 173 195 198 193
136 161 147 154 160 175 154 214 217 186 170 168 190 205 199 200 203 217 246 204 205 270 202 173 171 197 190 210 176 181 201 191 201 191 182 162 155 200 223 196 155 114 152 156
162 122 129 135 147 147 164 164 196 196 205 200 201 192 169 177 191 189 189 198 127 132 132 220 241 246 244 241 117 108 227 151 255 248 240 178 127 145 171 151 203 197 195 190
176 121 118 121 119 122 128 133 144 149 132 145 145 148 136 140 165 195 197 158 129 158 161 161 156 155 157 134 156 150 132 144 166 118 133 191 194 197 187 178 170 156 160 161
183 176 177 114 114 133 129 119 127 131 150 135 137 131 130 150 126 124 159 147 138 167 152 125 143 108 133 157 169 142 174 191 150 154 184 157 166 144 140 106 209 193 208 214
183 166 170 126 199 199 192 189 134 135 118 147 133 145 143 126 162 198 130 194 146 136 190 141 142 112 170 131 170 163 160 170 193 145 154 163 159 166 165 95 187 208 223 183
181 180 182 162 177 179 167 178 200 188 141 135 135 137 106 150 128 199 138 146 150 221 142 144 142 144 140 170 142 207 147 158 148 215 161 147 221 119 202 165 289 290 301 248
209 188 177 184 189 181 179 176 176 158 191 180 183 177 168 138 140 203 153 150 195 198 160 139 145 148 165 115 128 150 118 149 211 150 168 264 104 165 203 223 239 309 263 186
170 198 185 196 185 183 188 191 183 199 189 163 190 203 196 197 149 174 111 118 133 140 179 127 142 106 135 173 156 185 117 183 118 203 149 255 254 158 252 181 223 349 413 186
195 198 180 181 196 138 198 182 187 172 207 154 180 142 185 146 144 129 177 128 204 132 195 184 94 160 161 207 202 231 91 151 158 256 152 204 240 270 254 385 435 427 379 345
183 155 171 187 213 162 162 165 162 159 143 157 190 140 131 129 139 139 129 134 200 206 116 93 158 195 187 140 96 231 154 204 261 259 181 220 248 340 315 304 294 290 212 131
136 145 144 147 147 148 144 157 140 126 131 150 128 196 213 135 174 209 196 235 237 215 210 174 143 170 137 191 220 225 191 217 137 262 280 331 249 319 294 270 311 313 320 316
179 179 137 167 174 176 198 139 140 188 193 156 161 192 208 205 208 211 222 150 180 211 228 201 195 146 134 215 253 253 256 247 258 287 295 327 197 298 283 271 341 339 326 305
186 162 207 188 192 186 201 191 196 209 200 203 214 207 202 199 209 221 205 213 243 222 223 226 192 236 236 261 268 165 227 250 295 339 327 124 294 287 275 341 341 313 298 298
220 196 217 209 202 213 205 194 210 221 199 204 214 217 211 192 219 227 218 235 244 228 237 237 266 239 271 264 252 118 282 331 364 301 295 305 305 127 350 359 359 298 298 291
227 224 217 189 212 212 220 206 197 200 214 212 194 220 218 218 237 216 226 228 249 231 209 229 244 291 271 277 306 283 285 342 371 240 360 347 229 351 351 352 302 300 295 296
207 182 177 197 211 179 199 224 216 223 227 222 222 230 215 239 232 264 210 225 230 259 224 261 291 275 245 278 327 310 285 292 122 364 356 344 345 345 343 303 307 305 303 312
214 205 219 213 204 205 210 232 227 236 223 207 243 248 230 244 220 224 249 247 256 264 279 290 282 270 284 327 311 286 283 371 362 347 344 347 341 350 335 311 352 334 328 324

GFSNW_2pvu_pres_003.txt.gz
Presure
218 326 358 291 269 241 247 235 230 243 241 241 216 228 84 216 230 227 217 216 195 226 216 201 165 199 186 168 163 171 160 161 158 163 166 149 164 160 157 139 166 137 82 139
206 259 394 340 286 273 245 249 219 243 225 226 104 157 240 138 196 191 219 99 197 194 197 201 198 128 187 187 179 135 125 160 156 163 163 141 147 161 162 158 131 157 97 160
206 218 332 340 275 217 262 167 183 168 256 232 236 239 219 176 254 258 214 136 165 84 200 168 130 193 189 148 156 168 144 180 161 146 171 149 172 120 170 124 164 141 165 127
198 210 228 228 215 138 164 261 186 166 167 262 193 244 243 240 257 257 192 214 176 124 205 205 196 194 181 190 166 105 102 178 180 168 113 166 144 148 167 167 156 163 153 149
185 204 212 228 168 181 152 293 215 139 171 172 232 163 249 249 209 252 258 190 164 198 120 141 133 193 176 157 110 179 175 184 170 177 140 155 155 161 154 157 164 167 166 151
194 189 207 212 232 288 213 321 280 233 160 171 158 218 259 242 200 190 219 202 201 193 198 208 198 193 152 157 179 180 162 180 166 167 181 148 160 167 167 166 159 151 156 131
218 189 179 204 207 228 260 160 185 236 181 175 167 187 189 248 201 180 135 242 216 185 219 157 195 145 183 146 182 148 169 178 151 147 166 165 173 174 164 180 181 175 109 169
195 210 173 171 191 204 215 220 158 275 163 195 269 187 183 180 207 167 147 189 204 209 151 205 154 203 198 164 130 179 142 160 170 181 124 144 136 144 173 172 182 178 158 167
191 192 196 206 170 172 195 207 213 226 169 220 278 284 283 216 246 158 163 179 181 136 182 139 200 201 226 189 169 190 168 182 142 174 172 125 171 175 184 150 148 186 173 164
190 193 190 192 197 163 165 169 197 211 207 208 221 173 251 226 208 202 198 219 158 169 175 183 196 156 210 197 199 204 201 188 174 157 181 166 184 199 203 190 171 200 201 168
152 185 147 191 191 179 182 176 158 167 196 203 203 211 194 216 163 233 207 212 249 275 231 250 167 171 203 156 187 164 213 178 199 208 210 177 202 201 187 189 198 176 180 180
155 123 132 141 171 186 157 193 153 152 196 160 177 209 203 203 212 170 201 207 201 174 181 228 187 203 235 164 201 185 183 211 175 187 167 120 257 193 173 190 202 219 175 185
120 124 113 115 149 126 129 186 169 135 193 199 190 199 184 185 192 199 189 198 199 202 137 206 209 203 179 180 213 182 132 141 167 100 132 171 145 170 189 186 126 214 122 191
182 145 186 181 119 124 120 112 124 151 166 173 174 126 130 129 123 159 166 134 176 167 138 143 175 151 151 119 157 187 153 117 127 137 159 122 190 144 183 174 177 143 202 194
184 190 190 183 178 163 120 115 137 135 133 126 127 139 146 133 144 143 141 141 129 137 193 170 158 143 149 157 140 131 116 138 137 122 180 177 159 152 213 137 133 132 122 141
183 192 179 190 185 184 192 184 182 179 171 146 151 160 111 134 138 143 139 129 174 124 148 208 200 207 198 134 153 212 169 153 142 138 150 185 150 214 142 151 147 235 92 156
171 183 185 184 194 183 192 202 174 174 184 159 180 193 169 142 144 144 140 156 215 204 207 209 148 186 179 141 122 192 194 132 135 142 151 150 146 147 188 153 167 149 159 89
184 185 185 185 185 193 183 196 196 196 195 193 181 190 186 209 180 166 152 201 170 177 195 184 165 209 95 209 121 171 184 124 110 151 107 120 90 195 238 156 159 207 172 203
160 193 166 166 177 183 186 183 189 206 191 204 197 193 191 131 187 115 127 177 136 137 125 215 146 128 152 139 164 225 190 147 135 161 146 223 135 157 232 243 286 276 254 213
202 168 179 186 200 184 181 182 184 188 194 138 188 157 133 198 185 126 109 132 108 135 132 146 205 104 104 149 203 115 227 141 104 224 223 244 254 177 224 269 273 282 323 300
201 163 176 183 184 182 194 207 195 198 165 160 189 207 163 140 124 146 151 163 192 200 197 204 208 163 211 192 204 203 143 110 108 207 237 231 251 281 291 287 314 335 305 296
198 202 201 192 200 163 175 192 199 149 130 140 142 147 181 152 185 209 176 192 201 207 215 206 199 211 175 228 209 80 223 243 256 221 232 267 268 280 349 346 377 303 283 290
184 202 194 192 181 171 140 139 146 187 154 114 215 193 203 199 201 191 196 203 210 225 223 214 206 209 221 210 225 232 255 256 218 233 244 262 270 350 341 340 303 288 278 355
203 201 195 202 132 173 192 197 131 135 141 197 198 215 209 192 201 221 217 220 214 217 225 225 217 231 224 211 216 104 214 265 257 269 262 289 285 329 332 392 372 275 279 350
172 191 164 190 150 183 202 202 204 197 202 202 205 201 212 206 218 209 208 226 230 230 217 178 234 233 226 238 219 266 276 262 265 270 271 309 288 363 383 376 369 351 354 343
228 206 207 210 203 205 198 211 209 211 223 208 216 225 218 208 210 220 211 204 231 207 193 230 235 245 247 231 245 257 264 269 275 285 330 354 360 390 370 366 357 348 344 337
215 82 199 213 210 233 203 205 209 212 210 215 220 210 224 208 208 210 222 218 224 235 236 224 232 240 252 275 272 265 270 281 290 320 342 404 380 364 365 354 347 351 310 297

GFSNW_2pvu_pres_009.txt.gz
Presure
218 224 246 336 244 171 218 225 225 213 222 228 218 208 206 218 209 202 221 207 219 217 216 228 223 226 231 240 241 247 204 199 233 239 226 195 174 181 160 174 162 143 143 156
215 226 247 369 246 205 217 231 219 232 222 238 218 180 208 217 190 207 210 204 220 212 212 221 215 215 222 199 204 225 231 232 224 221 206 204 177 202 187 181 156 156 173 153
156 224 240 171 240 210 225 168 234 198 239 219 212 221 144 169 186 205 208 217 223 209 217 218 213 219 150 214 183 187 177 196 210 187 156 173 194 202 189 168 143 170 173 157
207 215 231 171 156 216 241 238 182 205 218 235 218 234 217 206 114 209 218 217 216 212 222 154 187 218 211 207 212 213 192 201 197 203 205 198 198 187 179 166 138 171 159 130
201 215 226 156 157 184 224 158 244 191 224 226 229 218 223 228 90 207 210 215 217 210 229 202 208 214 144 206 208 196 145 209 149 148 183 79 134 101 176 167 192 161 116 175
197 203 215 232 268 180 174 152 235 232 231 229 228 219 228 225 185 209 216 220 222 189 228 215 214 228 82 199 208 206 141 187 123 165 203 183 81 94 183 153 185 160 157 170
189 202 206 216 268 379 193 169 177 230 248 241 226 220 223 203 239 122 219 221 226 219 188 205 234 167 216 173 184 208 202 140 109 171 199 189 163 173 165 176 159 167 185 184
201 202 212 205 219 303 342 192 176 194 143 207 224 216 228 212 210 241 216 175 147 228 236 205 215 231 202 212 217 209 214 211 201 204 193 192 194 188 172 179 188 187 182 142
196 187 205 211 207 212 232 368 302 171 177 246 150 185 160 259 235 188 164 216 212 203 224 231 204 214 133 210 214 199 147 202 206 193 196 145 187 186 181 144 127 128 152 183
185 203 196 180 211 199 205 218 192 221 187 182 172 185 204 199 259 254 245 189 268 215 224 240 242 214 195 182 138 193 204 167 134 203 189 157 168 186 187 180 157 181 187 186
184 178 189 199 199 177 201 195 207 212 186 265 263 251 211 208 142 264 164 237 266 138 152 197 173 163 163 181 135 188 191 183 195 196 191 193 176 193 178 180 173 167 178 194
133 169 186 182 191 200 196 191 189 202 201 205 224 228 244 272 282 207 166 250 180 160 153 237 228 246 207 179 168 209 169 161 198 204 202 196 198 205 159 200 201 203 135 139
123 123 132 144 142 185 191 193 168 198 186 198 202 200 218 223 227 232 234 169 315 271 254 172 165 196 184 210 175 169 162 162 218 230 195 196 236 168 166 183 180 150 122 99
131 123 123 143 137 156 146 178 199 164 153 159 161 184 202 200 203 213 218 206 214 206 174 193 205 224 231 219 235 226 236 232 227 217 214 209 215 214 170 128 189 136 179 186
142 168 177 137 140 120 124 140 132 145 134 136 204 176 157 199 195 195 201 200 193 158 138 134 196 139 143 142 145 162 148 173 170 170 173 186 184 184 208 198 148 159 201 147
169 129 126 124 124 126 133 133 125 121 122 119 127 128 133 135 136 137 132 134 133 141 144 139 138 140 187 134 143 138 140 154 158 199 206 170 205 195 167 208 140 210 207 200
171 171 117 136 154 187 182 199 178 142 203 143 129 126 140 123 126 136 155 144 133 191 143 168 142 148 124 138 162 147 166 163 171 217 214 196 189 138 144 115 215 123 231 209
178 185 163 141 183 179 181 185 193 183 187 198 202 189 110 115 186 193 200 206 205 187 206 187 174 192 177 177 204 203 171 190 173 123 128 178 198 231 188 155 158 163 206 233
179 179 166 169 179 171 193 179 183 190 193 192 197 193 213 203 192 195 192 194 195 198 201 192 201 212 199 192 146 209 143 121 134 174 200 212 152 167 212 156 152 220 204 217
195 201 201 176 199 180 189 172 168 168 196 179 161 162 170 188 192 194 196 193 192 190 188 189 188 117 105 154 123 111 104 212 167 201 208 206 218 144 151 209 228 206 210 233
186 191 199 202 201 200 191 180 180 163 185 188 181 185 189 189 185 187 184 198 198 186 192 190 197 113 140 155 208 101 203 150 105 146 168 218 176 209 220 224 224 234 209 126
186 202 193 188 202 200 200 170 197 192 188 182 171 175 180 174 183 179 181 186 205 209 196 184 184 192 201 179 143 205 163 149 178 212 215 210 221 215 218 213 221 220 229 234
209 191 178 195 201 186 197 192 191 197 193 196 194 189 152 161 188 198 197 187 191 210 200 204 168 205 113 118 142 147 200 212 209 215 215 216 216 228 223 223 221 227 226 232
223 208 203 199 204 142 143 185 147 144 190 198 188 177 197 199 197 143 207 207 206 198 185 198 204 138 142 209 208 211 211 213 209 209 219 228 225 225 223 222 221 231 238 249
209 172 217 188 188 171 161 200 182 186 190 185 195 196 199 195 189 198 200 198 200 195 130 140 158 210 206 200 208 205 211 207 207 219 219 217 224 223 218 225 232 243 248 254
216 211 210 145 170 203 202 209 201 203 154 181 201 197 201 209 197 200 201 188 194 186 214 214 213 206 208 209 200 206 209 210 214 220 219 227 223 222 231 238 247 252 256 282
226 227 223 218 211 216 219 209 157 211 207 182 192 189 189 211 182 190 193 209 192 211 192 205 189 205 210 214 214 215 211 220 209 227 231 219 232 235 240 250 257 259 293 299

GFSNW_2pvu_pres_012.txt.gz
Presure
210 215 231 239 162 229 194 220 224 221 209 203 213 220 221 222 224 234 230 233 200 202 198 189 194 191 187 185 185 184 199 177 203 146 168 193 186 189 167 170 174 182 180 191
205 217 142 238 283 228 225 232 219 217 215 213 222 205 224 220 222 232 229 238 235 206 197 199 196 189 194 191 164 186 182 182 186 183 184 185 184 177 155 173 181 192 161 176
180 200 227 157 286 249 211 228 225 227 224 210 215 217 205 204 220 217 232 239 233 240 245 239 222 197 203 208 213 205 205 203 216 205 204 194 189 185 186 173 138 191 202 174
201 208 222 250 173 263 189 238 204 223 224 212 204 185 216 219 205 223 226 217 225 219 230 229 227 232 237 234 240 240 231 193 180 196 195 195 203 195 190 176 177 191 156 152
199 216 214 241 164 168 236 193 236 202 246 219 214 217 199 180 235 210 209 218 226 215 220 225 213 232 219 225 231 221 227 234 140 228 177 178 141 141 224 221 199 187 176 196
194 205 224 231 182 156 165 178 220 216 222 224 195 221 215 212 213 220 210 219 211 226 230 218 222 228 219 142 218 220 218 197 231 223 225 220 215 217 89 153 177 156 155 152
190 201 216 230 261 237 180 147 214 216 230 207 189 214 229 214 182 151 214 220 222 210 221 223 212 142 219 212 220 134 185 163 220 138 220 188 187 182 166 189 177 150 175 203
203 194 208 222 256 342 171 179 181 243 228 204 221 177 228 228 216 210 209 211 222 222 135 219 205 219 216 141 150 145 219 224 186 204 199 164 151 160 189 195 196 152 142 158
195 197 205 197 224 270 192 192 184 192 173 255 223 227 220 202 235 225 229 155 211 221 215 228 222 218 134 138 149 162 215 212 219 187 181 201 208 202 142 203 204 203 202 189
186 192 193 207 201 222 314 251 199 203 177 227 195 247 230 221 202 233 234 159 208 193 233 193 182 236 211 174 202 211 145 207 150 198 198 189 206 204 165 191 199 205 197 193
147 202 196 190 192 206 211 286 337 161 176 234 201 177 241 244 237 197 222 137 233 158 252 198 204 220 241 207 145 158 186 174 213 202 215 211 205 187 191 195 201 203 201 199
144 175 187 199 198 184 200 202 217 247 314 282 180 185 208 204 257 153 250 243 241 171 252 146 156 236 228 235 176 179 203 194 185 133 194 200 200 198 204 207 205 202 203 166
141 138 185 183 190 194 200 188 186 202 205 243 331 317 293 227 204 243 172 260 258 245 258 218 147 224 217 220 231 127 142 213 189 167 171 186 155 167 201 202 179 216 250 246
135 139 135 169 190 165 188 192 197 199 168 204 205 217 231 235 284 316 205 245 180 251 212 228 219 156 175 228 223 199 217 210 186 171 192 202 199 222 203 196 225 230 227 212
186 143 129 128 137 146 194 157 191 197 196 199 160 167 166 217 226 232 231 214 218 229 266 245 244 227 223 203 238 205 219 177 156 164 150 167 153 149 151 216 161 166 206 188
130 123 125 122 121 163 128 199 150 138 202 195 192 155 196 156 182 200 205 217 214 215 214 225 144 142 139 187 135 138 144 142 139 143 139 141 147 160 161 161 169 186 214 210
184 188 173 131 136 167 156 133 131 135 176 126 125 127 125 132 133 139 138 137 126 139 139 138 135 146 144 143 143 146 141 137 138 143 157 187 209 178 214 189 199 190 127 186
204 169 129 121 129 126 125 119 126 159 133 135 133 128 126 129 124 127 165 165 175 138 144 155 138 140 142 171 153 173 201 199 167 182 175 170 184 198 184 144 170 187 177 151
188 201 179 173 184 177 143 112 167 179 188 176 169 165 156 189 130 166 117 119 161 184 177 201 194 186 211 188 187 168 206 193 202 172 119 151 124 141 212 198 203 152 204 162
190 169 178 186 183 172 179 167 164 173 185 178 179 187 189 188 185 195 192 205 198 196 194 196 193 189 197 207 209 209 201 193 115 206 194 191 207 191 217 144 144 150 161 158
206 165 169 154 187 193 169 187 178 166 168 178 178 172 167 185 188 191 186 191 174 182 192 193 190 198 99 198 190 167 211 196 128 197 202 207 200 200 143 163 213 211 209 207
197 201 176 198 172 182 194 170 190 188 179 184 179 197 198 184 178 179 194 183 178 181 186 180 180 140 182 123 194 191 181 187 195 157 171 183 144 144 214 218 209 215 212 214
208 202 184 149 150 151 198 166 191 157 156 184 179 198 185 181 183 185 180 174 190 186 178 181 185 185 190 196 201 200 200 154 206 194 151 177 215 206 204 199 212 216 210 205
228 214 205 208 191 179 192 155 200 198 197 200 203 202 206 169 197 196 193 192 193 150 162 193 194 197 194 196 200 198 193 132 132 148 167 203 217 207 210 218 212 213 219 211
219 225 207 212 211 198 201 214 205 201 201 208 194 190 197 196 197 201 205 197 196 191 167 192 185 192 188 200 199 198 210 207 201 211 206 205 210 215 223 213 212 218 222 232
261 223 215 213 213 219 205 199 195 208 201 167 183 194 203 210 150 160 147 195 196 201 196 206 206 201 191 193 202 205 197 193 215 212 210 213 217 219 202 219 215 223 226 232
291 285 240 221 219 223 210 203 203 209 205 217 208 199 208 175 203 165 193 200 213 203 195 191 191 184 203 204 200 209 189 216 207 216 222 218 220 224 219 216 221 234 239 178

GFSNW_2pvu_pres_015.txt.gz
Presure
193 203 208 209 226 263 251 219 200 223 220 113 217 212 219 225 244 261 219 208 199 194 190 190 192 219 229 249 176 181 203 197 201 193 151 194 168 177 175 181 185 176 185 169
194 196 144 171 194 273 234 218 221 202 213 218 211 206 230 228 229 227 213 204 201 199 191 196 184 195 224 237 238 185 181 173 184 197 200 174 175 156 175 178 185 182 187 173
198 197 211 216 182 238 252 241 228 208 212 215 224 229 221 234 219 240 200 210 204 203 198 191 185 180 198 220 218 182 188 184 192 183 196 178 192 174 186 172 188 187 162 180
199 183 209 217 165 237 267 229 230 215 211 211 223 220 227 214 230 240 235 199 203 198 197 204 203 197 187 199 199 186 189 179 183 186 174 179 189 178 185 189 188 166 178 163
200 196 205 221 182 168 161 242 230 214 226 217 201 227 216 198 230 234 218 247 199 200 199 196 196 200 198 200 186 187 189 185 184 187 179 193 194 155 182 182 169 177 186 189
202 193 200 217 212 185 208 248 230 225 236 210 216 204 168 222 212 224 230 222 216 212 204 212 241 201 204 204 199 195 188 190 187 190 190 186 183 185 189 168 186 185 189 179
203 192 203 209 228 229 158 177 199 236 236 223 215 214 221 215 182 219 217 226 230 225 233 231 209 220 222 222 197 196 195 195 197 205 205 197 203 205 191 166 201 143 141 134
216 196 193 206 225 245 178 270 189 202 223 242 228 209 210 212 218 210 214 214 221 229 220 226 222 230 226 226 232 239 234 244 239 239 227 235 234 195 194 185 182 183 187 186
208 210 205 206 214 236 261 277 263 170 242 230 241 223 206 211 200 213 212 221 213 214 225 219 191 224 223 219 216 219 224 185 231 227 197 227 216 228 141 225 217 133 145 156
152 190 206 206 210 231 262 320 215 179 168 240 235 232 209 218 212 200 224 215 218 216 216 208 219 225 213 222 214 193 201 163 223 225 226 158 221 197 223 195 177 133 139 166
147 162 175 207 207 213 233 199 194 198 217 199 243 243 235 229 226 224 221 220 219 233 211 213 214 211 225 229 140 219 212 134 129 143 182 150 136 171 142 135 195 196 190 204
147 154 153 182 206 211 213 238 326 197 201 174 193 240 148 228 234 225 219 185 233 228 235 221 134 218 174 205 226 181 212 202 220 214 186 208 172 175 160 213 214 217 216 210
184 148 151 203 188 196 206 215 220 347 319 203 197 182 186 179 248 245 207 224 171 164 139 142 210 231 215 210 185 231 230 215 116 187 187 224 212 199 224 197 200 151 167 196
197 153 145 155 204 204 201 195 186 219 224 326 284 263 240 236 221 260 252 181 166 236 238 185 231 162 155 176 205 194 187 214 181 126 182 189 205 211 205 168 193 205 206 214
194 201 177 145 157 193 198 200 201 199 202 170 258 322 297 282 278 260 205 263 260 244 161 255 256 245 177 199 162 247 233 228 229 173 196 223 208 204 205 167 165 146 148 153
182 198 138 139 142 150 191 159 191 187 197 201 201 203 172 212 176 300 311 316 215 211 279 233 182 254 261 261 263 225 211 212 219 263 263 146 142 142 141 145 150 190 145 177
193 178 193 136 139 140 176 183 192 189 182 179 197 195 193 204 207 206 177 231 245 258 279 293 251 246 255 250 227 225 201 143 140 143 144 146 142 144 137 141 194 119 171 119
179 198 173 191 194 125 123 126 151 163 197 182 163 175 159 152 168 184 177 170 152 177 179 201 205 148 141 137 144 148 147 148 137 142 151 167 165 153 142 175 180 144 168 211
195 200 197 162 129 133 135 185 183 181 139 136 197 189 135 135 133 132 131 133 131 135 135 125 127 142 125 134 139 141 137 183 182 182 191 178 133 98 197 155 174 194 194 182
206 212 195 178 196 161 185 118 126 182 176 129 119 131 198 139 133 139 140 136 134 133 132 125 125 121 137 188 192 181 138 138 120 124 200 139 195 190 186 196 196 209 203 135
202 193 196 212 190 158 193 145 138 148 171 175 137 115 183 182 163 191 153 154 153 192 193 183 189 194 199 195 200 197 126 189 190 200 195 199 180 186 199 190 207 128 131 137
201 200 206 204 191 203 165 158 173 185 188 159 138 165 166 188 181 180 178 169 171 176 188 191 177 198 184 195 199 196 126 192 170 182 181 175 192 196 182 191 159 134 211 204
213 195 200 199 209 163 197 210 173 188 175 170 180 187 193 181 189 180 185 189 185 185 183 176 184 187 196 193 189 88 83 185 184 191 195 197 195 199 134 201 193 212 198 200
209 209 199 200 194 202 204 153 199 158 190 185 160 170 192 190 186 182 191 186 172 193 186 202 197 190 187 193 190 186 186 177 197 195 190 190 192 136 204 191 202 204 203 219
231 222 207 213 210 197 190 203 176 196 188 186 194 199 196 189 182 153 190 187 187 196 199 174 182 169 197 196 169 197 195 148 192 196 190 200 176 199 187 201 204 212 224 201
263 251 228 219 211 201 201 212 201 201 181 151 153 168 177 193 179 201 201 203 200 200 199 195 193 191 186 186 188 189 192 199 185 194 203 203 203 193 213 218 217 215 212 220
266 274 267 243 228 219 218 204 199 200 202 209 210 204 198 170 186 190 194 193 192 196 197 198 170 200 200 201 204 201 200 199 199 202 201 213 213 218 221 222 225 219 224 228

GFSNW_2pvu_pres_018.txt.gz
Presure
193 203 210 194 152 175 217 271 224 232 227 217 220 226 230 241 280 326 372 220 232 214 179 218 154 246 259 251 231 198 230 219 202 193 187 188 191 170 177 167 174 164 187 179
192 204 203 200 196 205 215 268 234 227 217 221 210 232 223 230 272 316 226 224 216 194 203 224 231 245 255 279 179 275 265 221 217 199 198 193 186 185 194 154 190 185 188 167
194 205 202 195 200 204 215 275 228 192 225 221 218 235 225 231 248 225 208 207 203 193 194 214 226 232 243 253 256 295 278 263 254 216 195 167 200 200 198 175 190 191 177 163
194 207 210 195 198 197 214 242 242 229 216 195 224 214 223 226 255 202 199 202 203 200 193 188 216 224 232 241 246 252 182 293 285 230 208 199 200 198 195 189 178 181 183 173
161 209 211 221 203 170 169 186 259 231 219 220 217 220 233 226 236 210 204 196 203 199 186 202 188 195 214 224 227 236 246 181 183 191 249 232 207 200 193 189 169 178 174 177
144 213 214 200 199 206 176 212 264 243 220 219 224 224 212 230 226 233 200 208 198 197 197 193 190 192 192 190 211 222 229 198 186 183 183 176 232 215 186 188 152 185 177 176
157 214 214 196 203 207 223 201 198 253 229 221 217 215 210 207 223 233 239 233 201 208 196 196 201 193 196 190 188 187 210 214 213 183 186 180 181 178 179 182 179 185 173 185
146 215 215 195 203 209 224 205 162 258 242 230 220 221 217 203 221 221 233 227 229 192 200 198 205 198 195 198 199 196 196 194 187 184 192 188 143 185 185 185 159 185 173 187
198 214 214 202 197 208 222 232 286 179 244 231 232 219 217 218 211 197 216 225 231 214 234 228 193 194 229 214 211 203 201 201 205 201 198 194 192 190 170 196 193 193 130 195
212 216 216 203 197 207 220 228 294 241 176 243 238 228 222 208 211 216 210 217 214 223 219 223 230 228 229 219 212 231 238 233 253 257 260 232 216 180 174 190 174 202 202 142
216 218 174 221 206 191 217 223 239 244 183 248 237 237 237 225 212 212 216 210 213 210 218 218 216 219 220 223 225 224 223 224 227 199 192 160 123 196 128 167 201 132 235 225
216 219 167 212 212 206 215 219 239 194 205 168 235 240 234 237 224 216 221 225 236 217 213 212 103 218 219 224 221 218 156 226 147 145 218 220 146 137 178 150 130 165 225 227
219 200 156 151 204 214 205 220 222 199 200 199 183 180 246 236 235 239 230 222 228 215 221 219 209 211 198 214 210 212 216 227 217 215 219 215 204 185 184 210 210 210 185 209
196 210 194 144 152 203 210 215 208 229 327 235 177 192 199 164 170 248 236 227 235 230 236 233 224 189 151 211 209 216 208 183 207 224 205 215 168 170 209 207 224 207 157 207
206 193 190 195 144 153 197 210 213 213 224 327 310 252 204 176 202 243 246 249 245 231 233 226 153 160 200 221 195 216 214 211 180 218 220 180 233 149 132 160 178 213 217 216
205 207 198 188 197 143 155 201 205 198 211 181 226 326 273 259 251 215 233 251 255 250 147 257 239 222 220 166 188 161 156 161 193 204 179 209 222 223 174 239 234 212 146 140
205 208 198 198 190 200 145 197 209 204 203 202 199 175 311 284 278 269 265 262 261 211 263 265 260 257 190 249 250 259 259 255 251 259 234 237 232 221 194 149 144 147 145 148
197 204 205 199 155 177 191 186 186 197 201 200 203 206 202 205 209 188 172 259 277 285 281 271 223 317 293 317 263 269 262 254 256 204 207 145 144 142 137 146 139 168 171 192
200 209 202 200 198 148 151 157 168 162 200 196 191 195 179 187 198 200 201 205 204 204 218 231 256 257 263 250 253 166 138 139 140 143 144 145 149 145 162 200 191 192 106 185
206 193 210 200 204 196 140 139 138 128 125 134 197 198 201 200 200 191 133 133 134 133 131 132 131 129 126 119 147 150 151 148 139 135 130 172 181 198 204 206 100 193 195 189
218 202 207 201 208 199 192 159 180 132 131 122 149 190 131 112 157 175 142 125 131 134 134 134 137 138 157 159 153 199 183 196 196 181 181 200 199 186 192 192 192 199 180 171
213 218 214 194 199 209 199 199 194 140 155 182 140 134 188 129 121 122 118 126 199 139 137 133 138 171 171 172 186 182 179 177 193 198 195 191 189 190 165 168 183 167 184 194
206 209 202 216 201 180 202 200 177 188 180 156 155 128 134 141 156 180 137 202 166 187 173 174 179 168 197 189 187 188 189 190 191 184 125 192 194 169 159 185 191 194 199 200
230 209 207 206 216 207 204 203 202 200 160 166 186 197 198 139 188 185 187 189 189 186 192 191 185 190 176 196 191 196 196 197 197 200 196 201 201 194 199 199 193 192 189 199
229 234 222 208 214 207 198 189 206 205 201 202 188 184 189 173 195 193 188 177 183 183 184 192 186 190 188 184 185 187 190 191 194 200 200 201 196 191 187 190 199 201 204 200
241 240 229 227 212 197 214 200 202 209 206 195 195 198 207 205 190 195 201 192 173 191 187 189 191 189 189 194 186 191 198 196 187 138 191 173 195 196 194 197 201 204 212 213
272 278 232 236 225 217 207 198 199 199 195 212 196 200 198 193 180 181 169 210 199 201 199 193 191 191 187 190 191 189 184 184 179 187 195 208 209 209 207 203 203 214 227 232

GFSNW_2pvu_pres_024.txt.gz
Presure
246 244 223 202 210 217 201 197 206 210 207 224 236 227 235 235 254 270 331 371 358 404 383 348 257 214 202 268 236 217 200 191 193 182 197 188 180 184 179 166 185 184 129 182
228 230 216 225 206 201 202 197 200 207 212 246 235 230 236 241 258 280 351 381 387 227 230 254 265 211 254 262 239 208 201 194 193 191 184 187 186 184 174 174 176 182 188 188
244 238 234 214 209 196 204 204 207 202 212 243 236 230 231 256 265 293 383 333 238 223 243 267 269 206 230 257 267 216 209 199 194 187 188 183 167 188 184 179 173 182 179 189
265 240 229 213 183 200 208 203 208 206 216 241 229 227 205 238 242 275 387 218 195 232 220 174 261 212 217 301 283 228 214 202 200 191 188 194 190 188 184 180 151 169 187 184
247 248 229 237 196 206 209 201 207 204 214 242 179 232 237 224 229 220 207 209 198 214 230 254 255 199 208 235 297 307 217 206 198 197 195 193 196 193 181 180 182 182 158 160
261 238 229 209 200 212 204 188 193 212 213 242 233 234 232 221 217 212 209 209 197 189 210 231 242 251 207 203 230 306 312 219 208 206 199 197 192 189 193 189 189 178 176 179
244 267 221 210 196 191 208 180 208 201 216 241 239 238 240 222 210 209 205 206 196 197 199 209 217 227 239 217 201 211 255 304 236 216 209 203 200 202 198 194 193 190 189 192
268 241 235 227 155 211 213 195 169 214 209 241 239 236 243 238 208 207 207 206 202 197 191 194 187 220 229 248 258 282 208 205 257 282 271 215 207 207 207 205 206 202 198 197
192 244 214 214 194 213 210 186 192 187 216 228 241 234 233 233 224 216 211 209 205 201 201 195 191 207 218 224 234 243 251 272 290 206 228 261 272 270 267 266 261 208 214 219
248 238 238 216 210 214 215 213 175 208 200 221 243 234 225 236 228 214 200 206 202 202 201 195 188 195 203 209 210 213 222 229 235 243 248 254 196 253 250 271 270 274 268 264
210 240 220 224 195 189 218 213 196 218 216 227 257 243 232 218 185 205 230 214 198 207 220 197 193 192 191 185 187 201 205 209 209 207 209 216 220 229 224 226 223 151 133 158
199 249 209 223 213 154 222 212 201 207 183 200 260 250 227 223 215 233 232 225 148 103 92 243 221 208 205 191 188 190 139 184 191 188 193 166 193 204 178 200 194 181 208 205
170 247 207 219 212 215 221 213 208 207 218 193 218 305 245 227 218 226 228 234 225 230 223 226 159 198 225 230 227 219 217 197 194 188 199 132 138 197 182 139 173 148 141 136
203 245 220 221 215 216 199 207 212 210 217 204 209 307 257 241 237 221 221 221 221 224 225 228 223 220 183 222 221 222 234 233 241 194 235 204 221 169 134 134 176 202 237 236
250 242 210 225 214 212 207 217 209 213 219 209 195 220 264 246 242 225 222 218 215 216 215 220 224 225 224 221 222 198 139 226 200 224 222 225 226 226 198 229 224 223 221 223
221 248 222 218 217 209 225 165 196 205 217 218 196 197 198 256 245 249 223 213 212 218 223 223 217 213 217 217 219 223 225 222 221 223 225 228 231 233 230 229 226 227 225 227
253 243 178 203 216 211 225 216 208 202 218 220 202 196 184 191 191 238 239 244 230 217 209 212 210 214 219 226 232 221 222 224 224 224 224 224 220 211 215 225 202 219 181 219
276 207 220 198 218 211 224 221 149 153 197 223 219 218 201 192 178 197 183 175 197 241 240 243 198 233 228 220 222 225 235 210 237 241 241 233 228 232 201 198 197 236 246 245
267 247 221 164 173 207 224 226 184 145 207 210 218 225 226 305 294 259 245 200 204 248 247 243 243 238 229 237 245 246 233 177 249 256 259 245 197 227 236 258 272 270 219 134
249 240 223 216 221 215 219 226 219 218 148 151 180 216 221 222 222 302 281 270 268 256 253 250 244 238 232 229 233 242 210 243 285 295 305 135 302 300 129 170 129 140 137 151
273 255 241 207 218 213 181 233 208 216 207 172 148 203 214 212 213 219 208 277 285 281 245 270 251 240 254 258 247 248 264 161 197 127 128 130 127 141 147 147 166 204 201 195
264 261 242 220 213 215 211 230 208 195 191 207 195 155 211 203 204 206 204 203 206 205 191 202 204 181 145 143 142 141 139 140 143 142 142 145 150 184 206 207 193 183 197 206
264 264 247 224 220 195 178 185 206 200 202 181 200 205 206 177 208 205 203 202 205 206 202 198 204 144 120 130 133 138 136 139 141 199 150 206 204 196 194 201 185 182 178 176
279 273 252 240 233 225 218 217 216 188 204 207 207 204 206 207 178 152 201 195 196 154 127 142 146 115 132 127 141 128 158 203 205 203 192 187 191 174 187 171 194 188 165 173
273 276 277 244 229 211 219 210 210 204 207 196 211 209 190 203 202 143 135 132 138 171 151 113 141 137 122 121 129 167 194 192 182 184 190 187 182 182 163 176 197 197 196 192
273 268 273 253 222 218 209 213 214 212 197 207 210 197 204 190 203 177 133 140 191 178 177 160 128 171 183 186 186 186 192 196 194 196 193 180 162 165 196 189 181 194 199 195
277 271 266 261 246 220 214 215 216 215 209 205 205 213 202 190 201 167 161 202 200 149 200 203 193 194 196 199 192 192 197 197 199 193 200 201 202 155 193 170 203 156 192 202

GFSNW_2pvu_pres_027.txt.gz
Presure
304 298 286 262 244 230 216 217 231 201 164 204 204 218 244 233 236 243 255 281 347 417 400 408 379 325 292 248 234 280 249 213 213 188 206 195 182 177 181 192 187 190 186 185
304 289 278 264 235 214 216 223 205 201 201 206 206 237 240 233 241 251 272 323 349 390 376 341 305 295 272 234 218 253 241 221 219 205 195 195 185 184 159 169 177 109 176 182
291 280 273 245 235 235 236 215 204 203 207 202 213 246 230 237 242 268 300 375 380 370 309 308 310 259 234 221 237 253 241 213 205 198 192 185 180 140 171 186 124 182 181 167
292 276 271 239 246 227 225 201 204 175 209 204 223 236 236 242 248 276 350 229 232 290 316 314 263 236 221 206 253 245 225 201 196 198 181 191 185 185 184 178 181 173 189 175
288 273 267 242 241 218 223 201 208 191 205 210 235 237 232 242 250 227 222 212 235 242 247 243 230 198 204 243 241 237 218 199 195 197 194 189 185 188 183 165 174 175 177 165
292 269 266 241 230 216 210 208 209 206 185 214 242 233 236 228 225 215 216 221 217 246 257 142 238 212 215 256 265 249 229 206 195 197 193 196 191 182 179 186 176 182 183 180
183 265 263 230 220 229 214 212 208 199 213 218 243 231 226 219 209 208 200 206 211 218 237 253 265 207 200 240 264 274 219 210 204 200 195 190 181 176 184 187 187 180 180 189
285 269 268 240 229 219 172 215 215 201 216 219 245 232 247 216 211 209 204 202 198 213 233 244 250 211 205 209 283 292 267 214 209 194 191 191 194 192 187 182 184 188 186 190
282 276 235 263 228 225 206 169 201 207 170 219 245 231 243 216 212 208 205 201 196 207 216 218 230 234 235 200 195 201 313 321 239 208 205 195 195 191 191 191 188 187 184 186
281 281 163 239 237 218 208 215 193 178 213 219 241 233 236 223 212 210 207 204 163 201 204 205 219 222 225 231 222 201 203 236 286 304 252 216 206 201 200 198 199 196 194 194
279 271 255 233 241 207 213 213 211 191 174 217 229 241 234 232 211 211 209 206 198 196 194 196 192 203 198 225 234 241 245 268 263 199 258 275 283 171 218 205 199 199 199 198
267 264 162 230 234 209 207 219 206 194 183 199 222 241 235 233 236 234 202 208 206 116 180 196 192 191 189 211 219 223 229 234 238 235 242 244 201 210 264 263 263 259 250 247
266 269 162 243 237 212 216 219 209 205 187 185 226 255 238 228 231 232 225 171 160 206 201 115 94 194 192 188 194 204 208 208 217 133 128 180 233 232 232 234 236 142 136 208
269 255 252 247 239 212 217 222 213 206 214 214 204 223 252 235 231 231 235 234 216 200 211 200 202 198 191 171 189 190 190 177 162 194 194 198 201 205 205 204 200 205 204 196
276 256 172 247 233 212 215 221 215 209 217 208 212 215 231 251 235 225 218 228 233 225 224 211 203 201 199 216 200 113 203 200 189 187 188 190 180 140 182 160 125 176 190 186
273 255 153 237 247 214 216 220 205 209 206 208 221 181 224 201 254 232 224 219 233 232 230 227 225 225 224 223 221 225 216 220 225 226 231 232 236 235 234 236 235 234 232 233
277 254 248 166 246 214 211 218 215 164 213 209 217 196 190 232 297 250 227 225 221 228 220 223 224 228 228 227 225 226 223 224 224 228 225 224 227 227 227 226 230 228 227 231
283 253 251 150 246 217 210 217 222 161 206 212 216 209 204 194 277 271 248 231 231 222 215 220 217 219 217 216 219 219 222 220 223 222 223 223 223 224 228 231 231 229 227 221
268 252 254 169 243 220 212 216 224 183 160 207 216 216 221 198 194 183 256 252 238 231 220 227 220 219 208 210 216 220 216 221 226 230 231 229 227 237 242 243 247 249 226 170
268 252 250 250 249 231 211 214 215 222 208 154 177 220 217 201 196 198 181 183 214 176 169 227 223 223 214 220 229 232 238 238 230 232 162 170 236 253 254 297 310 321 132 149
282 270 253 241 169 234 215 210 214 220 209 175 147 188 221 222 240 286 228 206 187 194 203 186 239 229 233 236 239 240 245 246 197 248 244 254 270 275 197 167 241 236 150 169
278 277 258 244 249 168 201 207 210 215 217 213 177 152 149 219 222 233 290 300 281 259 236 245 237 233 238 242 243 248 253 243 245 259 171 134 134 215 142 147 148 168 155 187
265 269 266 253 247 243 217 169 209 201 217 212 218 215 163 150 156 214 224 246 309 309 289 268 247 247 238 246 251 253 257 152 135 139 138 139 140 147 155 162 204 207 204 194
261 272 270 269 267 244 234 170 188 206 208 221 220 220 216 214 186 158 212 204 214 213 212 184 183 181 172 171 199 134 134 131 141 141 133 149 152 158 208 207 204 193 191 182
274 264 267 274 268 260 239 220 216 219 202 218 221 219 204 212 213 211 178 177 187 200 204 205 206 206 204 202 177 117 155 130 117 131 145 195 203 201 201 196 189 189 182 187
270 273 272 273 274 264 244 231 212 202 218 212 230 213 208 204 190 200 199 204 205 192 162 168 162 145 145 152 152 134 136 130 127 126 166 189 191 187 185 192 195 198 193 195
270 271 265 265 275 264 245 239 228 219 210 208 169 175 211 206 201 201 201 202 203 207 192 123 135 138 136 129 125 133 128 126 137 189 176 174 198 197 192 195 196 191 199 200

GFSNW_2pvu_pres_030.txt.gz
Presure
317 321 311 313 336 297 287 283 260 221 237 237 208 202 205 206 214 247 234 245 255 282 304 361 390 394 316 341 277 272 265 264 252 245 231 202 272 222 199 199 190 186 189 175
310 329 322 323 304 298 181 264 250 246 232 184 205 198 205 211 237 237 244 254 282 302 371 404 397 372 340 116 265 264 261 265 262 232 218 257 235 216 187 179 178 187 185 201
329 306 221 299 292 280 256 255 241 221 213 211 205 206 207 226 239 242 251 281 299 370 375 405 381 324 293 265 263 266 262 255 219 199 239 227 208 200 182 182 186 175 198 201
308 173 317 302 306 278 263 246 195 218 219 199 198 207 214 242 237 248 273 230 365 383 310 366 317 311 288 287 284 258 238 187 192 181 212 211 204 192 185 181 176 184 184 195
312 317 293 297 300 268 253 219 209 217 215 208 203 207 229 241 241 259 217 226 300 311 298 322 299 284 276 250 229 229 215 219 221 222 199 216 203 178 188 193 167 172 163 176
323 300 299 298 285 262 224 223 234 218 207 200 207 217 244 231 241 264 211 222 231 285 315 298 268 288 130 217 198 193 274 244 248 222 204 188 203 181 183 168 184 167 184 185
315 147 210 283 241 237 230 232 190 190 209 205 207 227 243 233 242 215 208 224 236 236 245 224 249 237 205 209 212 244 281 252 215 209 202 187 179 181 187 181 184 184 173 178
298 148 153 272 261 229 239 226 205 209 213 202 214 239 238 224 187 209 212 210 230 241 245 232 193 200 195 216 231 244 254 246 204 199 202 193 192 189 188 186 182 183 192 168
281 282 184 267 253 241 227 211 218 210 207 210 219 240 237 220 209 215 210 212 203 235 243 250 234 202 197 237 236 241 246 243 217 193 188 190 189 183 185 187 190 186 191 192
284 237 276 270 252 249 227 225 202 213 213 214 220 240 222 220 210 210 205 205 217 202 230 236 247 259 199 234 276 246 255 250 233 206 194 193 192 190 190 191 189 188 185 185
290 283 273 265 245 230 222 224 191 213 198 216 194 240 230 232 212 207 210 200 189 211 196 223 230 235 206 202 204 215 273 288 259 229 208 199 189 186 187 186 188 188 188 189
277 209 275 261 237 200 226 226 162 210 201 205 173 238 236 233 217 211 210 210 206 102 126 217 218 130 231 234 214 198 200 218 259 289 307 217 208 197 196 194 189 187 186 188
280 284 267 260 237 202 234 223 211 218 199 202 220 232 238 231 234 212 207 202 210 203 200 202 208 215 222 213 226 231 242 208 203 208 280 290 303 280 261 217 204 203 187 187
284 289 269 264 258 237 227 222 209 215 213 198 208 197 238 231 235 232 210 208 204 205 202 197 199 197 199 182 203 216 225 231 236 241 245 225 208 243 271 267 260 261 260 227
289 281 278 265 251 176 221 223 201 215 202 211 203 210 242 238 232 235 234 206 236 202 207 199 196 187 193 115 193 191 211 209 213 216 221 225 228 230 173 233 235 236 235 234
284 279 274 269 258 162 231 222 203 215 206 211 214 218 219 241 238 230 230 234 231 210 215 211 210 201 197 200 195 195 193 195 195 197 192 191 191 206 208 208 207 206 200 201
288 273 265 255 249 199 235 219 199 217 213 209 208 217 219 218 244 238 231 223 229 234 234 239 218 199 202 213 193 197 197 196 194 192 191 190 190 189 182 190 190 189 188 192
278 266 262 253 251 236 226 222 204 219 218 215 212 212 214 214 202 218 247 237 223 221 219 230 233 227 227 225 205 199 200 206 225 227 208 228 232 232 233 232 231 231 234 234
288 267 261 254 248 232 175 217 209 211 212 191 209 210 217 207 215 221 228 243 248 224 222 223 221 232 227 226 228 229 229 226 228 229 226 225 223 224 225 226 226 225 229 234
285 264 264 255 244 242 238 159 211 208 214 165 212 208 214 219 209 216 223 234 248 263 226 222 221 218 216 220 224 226 222 222 222 220 221 217 219 224 226 224 226 230 237 247
284 279 256 256 244 244 238 222 218 212 207 219 187 200 209 219 213 201 198 205 235 279 248 231 220 202 205 221 222 219 220 211 216 213 216 233 229 230 179 183 167 182 247 227
275 284 274 255 242 243 239 238 185 208 195 206 218 158 175 209 222 217 198 196 194 187 180 179 186 187 197 208 227 225 226 226 233 229 232 246 241 238 239 182 134 133 137 140
279 279 272 265 246 236 235 235 209 199 201 201 211 219 200 153 156 221 219 198 197 198 197 194 195 238 226 233 240 239 228 231 241 247 240 240 243 249 226 145 238 139 149 207
279 279 280 273 260 246 240 225 232 197 208 210 205 205 221 211 154 145 146 214 225 250 273 283 261 251 249 248 246 247 246 245 241 236 234 174 224 135 132 131 149 150 160 171
280 279 277 278 279 249 243 241 230 229 212 193 212 217 220 221 214 190 155 150 151 195 237 257 285 298 286 256 241 250 162 114 246 130 128 142 118 177 126 128 126 148 201 201
271 281 278 272 272 253 248 243 233 235 230 215 208 166 211 212 224 213 215 209 211 212 199 217 228 261 276 290 301 242 209 203 203 202 117 129 139 127 125 163 124 196 191 187
280 274 282 275 278 268 253 243 238 242 233 229 188 208 159 204 210 216 214 213 211 208 208 209 201 205 205 202 201 201 199 124 149 151 147 142 130 132 129 173 197 193 187 196

GFSNW_2pvu_pres_033.txt.gz
Presure
382 351 341 330 329 316 307 312 356 339 343 294 270 236 237 237 213 209 210 218 228 250 264 273 287 355 455 356 285 95 270 260 260 260 246 256 236 241 260 265 222 225 224 220
349 338 324 318 311 307 308 316 370 302 290 271 242 236 236 214 211 206 218 227 250 260 270 289 367 442 366 305 258 280 267 249 247 243 246 239 268 235 256 222 217 225 217 214
340 325 327 311 308 309 317 335 324 299 277 249 237 221 211 208 207 218 224 244 259 258 290 378 411 370 328 275 241 263 261 254 245 247 251 235 170 230 224 221 228 222 209 192
337 324 316 316 152 320 319 302 294 273 254 219 229 225 218 205 215 223 243 253 229 269 403 346 410 352 276 264 134 253 263 240 235 255 252 186 256 221 229 233 226 216 185 183
329 323 307 300 145 326 288 283 236 255 249 221 221 215 207 209 221 236 250 221 233 338 302 389 356 286 262 260 252 254 260 245 239 246 234 204 250 227 236 233 226 188 191 190
334 322 320 322 318 302 288 274 260 251 235 224 221 207 206 218 235 245 226 218 233 303 355 345 180 281 187 214 250 160 174 213 187 214 232 228 226 241 236 223 196 129 188 176
317 334 312 328 308 283 273 261 253 242 224 220 215 208 216 226 243 239 213 237 234 293 328 279 282 249 240 215 117 147 148 222 200 159 242 186 233 236 208 186 187 179 180 180
305 315 316 319 282 272 265 249 244 211 226 218 196 208 219 241 237 218 208 230 224 244 242 306 219 273 186 296 272 256 207 206 237 185 178 230 243 207 189 182 189 193 189 160
309 316 320 132 189 267 161 240 235 214 220 215 214 212 229 240 224 212 207 223 232 227 224 239 237 219 199 195 203 203 218 216 222 228 236 191 210 179 180 182 171 177 169 180
313 321 299 159 150 258 246 217 218 220 219 216 210 217 239 230 222 210 212 215 226 236 237 222 214 196 206 203 203 217 229 237 244 255 217 185 187 182 191 186 184 187 184 181
322 309 303 278 197 248 237 231 227 222 209 213 210 224 240 227 221 212 208 215 223 235 237 246 203 196 197 205 228 238 241 251 257 231 204 209 200 192 191 188 187 184 181 180
332 304 299 273 257 239 225 236 223 215 211 214 214 227 240 220 222 212 208 210 216 110 216 238 285 292 201 208 234 244 236 246 248 243 209 195 191 192 191 190 192 185 186 188
312 302 286 266 251 242 232 228 224 203 162 211 218 230 238 239 224 215 210 208 212 209 221 162 225 252 248 201 197 208 272 267 247 248 254 217 205 191 196 193 192 191 190 188
309 288 280 268 257 232 242 217 228 212 165 213 217 224 237 235 217 217 211 211 204 218 216 209 222 224 230 212 210 204 202 208 252 276 288 277 255 221 207 198 196 194 193 194
295 286 279 267 249 239 229 218 228 203 220 210 214 212 172 238 234 212 216 212 211 202 208 177 204 217 219 218 221 117 232 229 204 198 168 224 267 267 273 272 253 253 206 108
288 291 279 265 248 244 229 210 226 200 219 210 204 219 223 238 236 234 213 218 209 206 202 207 207 200 199 204 210 210 205 226 228 230 233 230 228 205 205 242 244 252 248 243
290 288 283 265 253 243 224 215 225 211 198 205 202 213 214 233 238 236 237 223 213 209 210 202 199 202 194 197 190 186 186 190 209 211 219 223 226 225 226 227 222 226 224 223
293 284 276 264 255 247 226 224 228 215 199 217 213 201 215 220 234 241 235 233 239 235 210 208 211 207 199 200 196 196 197 198 197 194 193 193 191 186 185 185 185 187 190 192
288 279 279 263 260 241 222 229 158 216 203 199 218 206 213 219 219 234 242 234 230 230 231 231 229 223 208 204 204 203 208 205 206 200 192 191 192 194 193 193 193 194 198 201
285 266 284 269 258 248 225 228 226 222 216 198 207 214 214 221 217 214 217 243 238 230 225 223 224 218 222 228 237 237 238 238 233 227 221 221 219 224 232 231 230 228 224 230
295 278 273 275 262 251 255 230 230 211 214 194 206 211 210 209 218 215 213 211 216 231 244 238 226 221 221 222 224 229 235 234 227 225 227 227 227 229 224 223 218 217 232 230
288 289 273 270 272 266 254 230 229 204 177 200 199 217 179 211 207 216 217 211 215 206 219 225 233 246 246 225 223 219 225 220 221 214 216 219 214 217 214 223 230 230 239 241
300 269 280 271 267 265 258 238 222 225 212 209 200 204 219 193 211 198 211 215 209 195 209 206 228 190 266 259 173 187 216 223 221 220 221 223 220 225 224 224 234 222 175 239
298 284 284 266 266 261 260 238 118 228 225 220 210 204 210 216 216 195 199 207 212 206 194 201 200 193 190 187 184 240 234 233 233 235 233 233 230 227 228 235 239 230 240 130
285 287 280 273 261 253 249 255 239 229 229 224 217 196 215 207 218 194 164 153 171 214 215 211 201 200 201 202 232 267 256 245 240 237 242 243 244 220 195 142 126 131 167 124
302 283 275 278 263 252 253 250 246 230 229 234 232 218 178 209 202 216 218 213 166 154 148 175 220 221 230 247 268 295 285 268 262 259 171 224 226 246 126 125 123 124 128 132
300 303 280 272 275 262 256 255 247 245 239 239 237 230 211 206 210 198 207 217 215 211 200 183 150 155 175 220 229 242 251 263 279 291 298 300 297 203 202 133 130 145 138 127

GFSNW_2pvu_pres_039.txt.gz
Presure
457 444 440 442 407 433 416 360 334 336 322 277 266 257 264 236 228 237 228 227 230 227 228 246 260 245 238 213 223 231 251 312 251 265 251 275 259 259 263 264 269 280 308 338
465 457 435 423 384 396 359 354 354 360 329 317 269 261 249 243 238 241 232 234 233 228 247 265 244 211 228 227 239 238 291 267 266 257 267 256 259 256 254 262 254 272 268 243
467 409 437 366 336 333 333 349 335 322 312 306 310 318 327 285 276 252 241 241 244 251 265 233 217 235 228 228 305 291 152 262 264 254 249 250 252 262 245 263 246 260 268 268
435 426 389 363 340 332 314 307 296 302 317 313 312 317 329 383 367 338 260 257 258 263 211 230 237 228 235 292 330 262 272 267 262 248 238 245 247 254 239 261 244 252 248 256
424 426 371 344 322 312 324 316 308 306 309 312 331 371 347 346 344 336 274 270 243 209 236 237 232 249 274 406 268 250 248 90 244 233 225 217 219 237 241 263 243 258 250 255
427 374 352 335 318 305 304 283 278 308 286 304 160 321 321 313 302 279 261 229 218 241 238 241 269 290 415 287 258 240 258 249 244 232 231 228 224 238 254 260 256 272 261 262
374 371 353 337 333 337 319 308 310 303 319 329 308 289 272 264 255 236 224 232 246 231 251 273 301 435 300 265 249 255 245 240 243 220 237 220 237 229 246 244 257 247 276 299
376 351 338 340 350 317 308 322 323 342 299 271 269 264 252 238 228 227 239 246 238 257 280 317 430 307 176 257 235 153 244 242 226 225 228 236 217 234 231 243 246 250 257 216
357 331 334 327 311 322 321 338 309 288 276 263 256 239 233 227 224 243 238 234 242 281 320 405 307 176 184 220 229 253 259 232 248 229 173 232 241 244 245 247 245 259 226 210
352 337 324 313 311 323 163 142 281 274 258 247 236 187 229 224 231 252 224 231 259 315 354 226 179 191 213 206 215 241 205 227 225 216 253 239 245 245 253 248 253 217 212 211
348 341 330 311 315 288 183 280 145 252 248 235 235 222 221 225 248 228 229 239 295 301 305 238 190 214 191 241 237 232 212 186 185 232 248 248 220 237 247 253 208 209 218 220
345 338 330 326 317 284 284 267 256 250 242 233 232 224 206 239 242 222 232 246 227 259 258 226 208 254 200 214 218 210 228 256 234 174 243 214 179 241 228 203 212 215 219 193
339 345 321 329 287 284 272 263 249 243 234 236 227 222 230 257 232 224 212 238 240 234 230 220 219 200 227 232 223 232 239 257 215 219 222 223 237 186 233 212 218 224 187 181
341 342 316 297 282 273 266 253 247 242 234 238 205 222 238 252 232 222 218 216 248 234 225 223 213 222 213 217 230 225 224 229 209 235 218 204 216 237 170 229 229 189 186 186
333 326 347 295 279 270 264 248 246 236 229 234 229 198 241 238 233 227 215 211 213 240 260 210 239 225 210 226 227 230 233 232 227 232 240 243 241 191 242 250 198 189 190 184
341 293 295 298 275 267 261 245 235 235 223 231 220 161 242 235 234 222 228 212 204 206 265 245 262 261 218 198 180 270 274 258 236 277 246 250 288 191 214 197 203 104 144 184
345 307 295 288 275 265 253 247 232 240 223 221 220 213 242 236 231 221 220 221 214 200 202 201 225 235 234 235 239 204 198 199 113 222 253 267 275 272 276 206 199 193 192 190
337 294 298 286 275 258 250 238 241 239 224 221 202 221 239 236 230 224 222 217 213 213 211 214 205 207 220 222 220 222 224 234 231 216 203 202 206 232 259 264 270 245 243 215
315 309 302 282 272 257 249 241 241 238 230 228 212 214 157 175 236 229 223 221 216 208 210 209 203 208 205 202 193 199 210 212 214 218 221 223 222 227 228 226 225 224 223 233
331 312 292 277 267 255 247 243 242 231 228 160 185 209 218 229 240 235 235 220 218 219 213 206 207 207 206 202 204 205 204 205 192 204 202 201 199 196 199 195 183 194 207 207
332 314 285 276 266 260 245 244 238 221 224 225 219 215 212 213 204 225 200 237 229 224 216 214 213 212 204 203 207 206 203 201 200 199 199 199 198 199 194 196 198 198 198 200
322 308 290 277 267 265 249 244 235 224 223 226 218 219 203 215 203 210 213 236 227 231 232 228 225 222 220 218 210 210 210 210 208 229 226 224 214 217 218 215 211 211 219 221
334 303 300 282 277 260 251 240 216 228 222 220 224 205 215 203 219 206 205 211 219 238 227 182 235 230 230 230 230 231 232 230 230 231 229 224 225 226 228 231 234 233 226 226
329 333 293 305 283 258 250 231 238 227 225 227 230 222 153 220 203 220 213 198 208 213 220 237 187 238 234 232 233 233 234 237 237 236 237 238 240 241 237 231 224 222 225 228
325 314 305 302 296 259 247 245 234 236 231 223 223 223 225 222 228 197 208 216 208 171 209 217 215 210 220 228 220 211 216 214 214 220 222 190 229 252 267 216 257 254 240 233
333 336 298 300 294 270 256 252 246 235 235 229 103 227 221 224 219 226 206 199 212 220 196 201 198 210 209 208 197 194 192 187 190 196 193 182 181 183 188 191 251 273 254 266
338 338 337 296 294 277 268 259 254 247 244 236 230 226 232 224 222 223 169 216 196 198 209 191 206 206 198 207 212 211 207 198 196 186 190 192 193 194 213 231 243 250 257 260

GFSNW_2pvu_pres_042.txt.gz
Presure
611 485 451 450 436 436 427 449 417 350 402 372 282 267 263 236 228 235 232 232 220 226 218 212 206 195 206 197 227 252 242 220 214 226 244 256 263 279 285 278 273 281 291 305
587 467 455 414 415 408 441 375 343 351 342 333 306 280 245 240 238 234 222 233 231 219 226 215 213 207 235 224 252 240 211 231 233 235 256 262 246 260 265 260 268 284 319 322
586 474 429 408 402 415 377 344 336 333 317 317 322 308 253 249 241 238 231 221 230 228 227 228 223 228 231 253 236 218 231 232 271 258 238 233 253 247 255 244 266 272 295 312
608 470 409 414 406 401 348 322 315 317 313 317 312 316 283 252 240 242 240 228 232 229 224 222 228 229 253 220 226 223 230 309 97 232 225 242 270 238 245 229 256 258 294 281
455 453 403 419 382 353 330 327 334 332 325 309 305 334 340 283 210 244 248 238 238 231 239 230 236 256 213 228 226 231 309 252 230 222 236 238 213 236 241 253 247 239 255 275
460 382 371 405 336 327 314 304 310 151 303 301 302 312 319 335 307 282 247 238 235 245 239 243 262 223 231 232 232 337 269 240 188 134 236 226 221 230 242 251 228 252 244 268
461 387 362 325 336 328 321 309 320 303 318 310 307 320 329 353 373 366 354 344 305 269 263 237 236 231 233 225 343 268 247 236 226 236 230 235 226 241 232 242 242 262 250 258
455 374 367 339 325 318 304 305 282 303 311 323 320 341 348 358 323 309 291 294 291 245 237 241 238 236 240 423 258 257 243 195 228 228 223 240 226 247 220 238 239 245 263 267
442 362 344 348 326 314 324 296 314 307 307 310 320 292 285 281 278 276 275 237 235 243 238 239 248 183 173 281 193 248 226 252 232 234 240 237 217 230 234 234 236 232 252 260
427 354 345 336 316 309 324 317 304 314 323 282 277 273 265 254 244 236 239 246 233 237 276 314 408 167 180 256 194 240 235 227 223 218 224 221 229 223 238 237 228 231 255 248
397 357 349 338 321 320 314 317 252 144 279 271 262 246 244 234 237 248 232 238 245 301 350 352 178 190 190 250 180 236 255 237 220 253 211 229 181 230 230 228 243 242 252 215
384 361 343 337 323 317 320 314 208 268 264 249 244 241 236 239 249 234 238 243 300 353 199 212 188 193 194 232 245 187 243 223 246 211 235 223 187 231 231 238 247 252 208 202
358 358 323 325 321 317 336 281 263 256 249 243 242 231 240 254 238 228 232 281 337 325 247 206 200 197 262 179 243 276 240 226 198 238 229 226 214 223 223 235 242 245 209 211
361 330 325 315 325 324 279 265 260 251 248 245 235 206 223 250 226 232 236 250 270 230 209 226 250 206 233 231 247 227 209 239 199 217 190 222 228 222 228 215 241 240 213 216
361 335 310 324 304 284 270 259 255 240 247 239 233 181 192 245 225 229 241 215 221 208 215 227 234 257 230 229 225 217 239 225 216 224 206 224 232 212 226 237 224 214 213 215
357 321 317 310 296 280 267 248 253 239 242 236 234 228 191 249 226 214 222 231 247 227 212 198 191 196 226 232 226 226 226 228 229 226 230 228 219 218 208 230 253 172 223 228
346 338 322 304 287 277 264 249 251 240 230 224 230 226 158 249 227 219 216 214 223 244 239 242 226 214 214 241 230 269 258 248 251 253 252 259 235 267 234 223 230 239 245 239
357 312 321 297 281 276 264 252 251 239 227 224 226 218 195 242 237 225 221 215 211 217 248 264 213 256 261 249 195 224 212 226 228 260 256 256 259 256 268 260 211 227 192 191
343 325 313 313 279 276 265 253 249 234 234 219 225 215 208 243 234 230 223 224 216 206 207 212 230 224 225 226 221 220 211 212 212 192 209 213 210 240 243 247 253 257 254 200
335 323 315 291 276 275 266 250 244 237 235 221 219 216 214 215 238 231 226 225 220 214 210 216 214 208 206 207 209 209 209 212 213 212 209 210 200 203 207 219 220 224 229 231
337 330 315 295 281 275 269 249 241 241 221 232 216 217 205 204 193 202 229 221 222 219 212 216 210 197 204 204 206 208 202 203 205 205 205 201 206 204 206 208 211 209 208 209
336 308 314 290 289 281 267 247 240 239 175 230 227 218 214 200 197 236 203 230 224 216 218 217 213 209 209 210 205 202 201 201 199 200 201 201 197 197 196 193 188 188 189 186
318 322 302 283 287 278 262 245 238 238 233 228 225 223 219 211 197 201 231 236 232 231 231 223 217 215 213 214 213 213 210 203 204 203 204 205 206 227 228 232 234 232 231 231
339 336 317 304 296 278 261 252 244 239 234 235 226 223 226 225 214 206 220 197 217 159 234 232 234 231 230 230 229 230 233 232 232 232 231 226 223 225 231 235 239 238 240 242
355 330 327 316 294 279 269 260 247 242 234 195 233 224 222 224 221 225 185 210 207 211 213 230 237 236 207 180 230 228 229 228 227 230 233 233 228 225 224 226 230 235 232 243
357 358 357 312 308 285 274 267 254 242 237 237 240 233 224 230 224 221 223 190 203 211 208 198 150 213 221 230 234 234 233 231 224 217 216 215 215 214 212 207 174 178 183 184
382 356 343 346 305 303 272 269 268 254 244 239 239 239 235 227 221 228 224 224 226 223 191 207 211 204 200 206 213 209 204 204 200 197 194 200 201 197 192 192 187 182 192 217

GFSNW_2pvu_pres_045.txt.gz
Presure
304 627 496 436 441 424 413 448 420 474 394 385 297 288 264 245 238 245 262 235 231 227 224 213 211 213 207 220 205 206 208 194 202 221 260 228 215 236 256 262 243 255 270 302
304 565 462 436 432 422 416 412 463 387 334 342 348 276 269 246 243 240 252 264 231 225 227 220 217 217 216 210 210 200 212 205 216 258 225 218 237 266 247 260 248 233 292 332
317 487 451 455 418 437 407 416 396 348 332 331 321 292 273 247 245 239 244 258 218 227 216 214 215 218 216 212 217 217 209 226 250 222 224 289 259 252 243 243 253 255 294 313
354 464 439 429 418 430 401 410 377 303 310 338 317 331 273 257 168 244 243 252 245 231 219 221 216 218 217 220 219 217 227 248 184 279 260 252 244 230 246 251 253 256 272 272
477 461 447 436 379 382 399 363 340 335 160 318 313 319 329 273 250 252 237 241 254 227 226 228 226 227 221 226 225 226 249 218 231 97 251 235 221 243 206 246 249 247 254 259
467 448 431 382 350 342 352 353 331 141 300 313 317 324 318 308 280 251 242 237 233 231 228 227 223 229 224 223 225 244 226 218 256 247 132 231 233 231 253 239 241 239 244 251
461 411 444 352 354 343 341 333 322 315 315 323 311 319 326 287 296 282 242 236 243 240 238 230 226 219 223 233 243 238 228 313 248 157 229 240 218 243 229 235 246 235 240 249
442 401 401 329 347 325 333 310 313 327 296 306 321 321 316 329 345 351 235 230 244 244 236 234 231 229 232 245 239 233 263 215 241 231 223 233 221 230 227 223 231 253 239 239
472 383 381 330 335 328 312 307 307 304 297 307 305 310 314 321 337 223 231 259 234 236 240 249 238 244 261 226 235 240 307 241 229 225 232 205 230 235 222 226 231 229 269 237
485 382 383 356 334 311 320 321 316 227 309 317 308 326 349 335 305 297 296 296 301 275 303 298 278 263 176 219 200 222 228 240 234 227 238 143 220 217 221 231 226 230 242 242
478 388 347 358 308 332 320 313 310 308 137 319 305 288 287 283 281 279 279 282 280 274 266 249 243 181 174 254 263 212 247 225 227 208 221 162 224 204 226 228 233 234 241 251
473 399 369 328 311 328 317 323 307 314 145 282 278 274 272 267 263 258 253 226 252 249 248 259 285 174 185 294 284 243 230 194 209 217 226 236 230 233 232 233 239 239 249 258
445 395 358 336 322 323 330 308 320 287 278 270 265 257 250 245 241 252 244 246 258 321 321 405 247 282 274 233 236 218 226 218 216 232 215 228 221 188 230 230 237 243 230 208
418 373 339 353 322 327 315 323 284 277 267 261 247 241 239 251 230 244 247 308 254 297 295 283 198 241 262 247 192 248 239 215 209 247 225 225 224 231 236 234 233 242 242 217
411 364 341 327 327 318 320 286 274 266 258 248 239 241 259 235 244 234 255 353 353 276 270 207 232 243 233 240 202 239 231 176 212 216 232 189 231 223 230 234 241 239 245 203
416 375 339 342 327 314 283 275 264 255 250 244 230 244 205 237 239 226 276 264 233 290 253 248 250 252 209 219 221 246 233 234 235 246 238 241 227 187 221 223 234 234 226 236
407 354 327 325 326 282 276 269 258 254 247 233 231 246 237 233 238 240 230 255 239 201 240 228 236 208 247 198 231 230 226 213 220 221 209 210 213 212 213 215 235 222 219 218
371 346 330 324 302 281 275 267 255 250 243 223 230 239 238 228 228 239 238 223 221 218 230 192 206 206 205 225 230 226 262 240 239 249 253 253 186 187 244 227 214 231 233 236
366 341 328 313 288 277 272 266 254 241 238 238 227 221 196 233 221 215 227 225 232 260 242 234 212 236 250 252 253 248 242 242 241 242 241 241 249 250 255 257 262 262 223 222
357 336 332 305 287 285 263 264 249 238 237 225 228 217 199 243 226 216 213 210 229 256 256 250 237 204 232 202 194 200 209 231 228 228 226 226 224 213 218 219 222 224 233 242
345 339 334 279 293 285 259 259 243 247 238 230 220 221 209 213 235 224 220 222 210 213 217 224 216 222 202 219 216 209 209 211 220 208 191 191 198 198 199 217 213 207 210 213
363 338 334 306 296 280 269 255 251 246 240 229 224 210 221 211 232 201 202 220 222 222 220 206 206 212 210 220 221 215 214 205 209 212 211 209 204 202 202 203 202 202 200 198
332 328 334 328 292 281 272 254 249 248 241 237 222 206 211 144 210 205 227 228 224 224 221 216 215 210 219 208 203 203 207 210 209 195 195 202 200 200 197 197 196 195 196 196
357 324 328 340 339 283 269 263 253 248 246 241 234 212 219 210 219 205 196 230 231 226 221 216 216 217 212 211 210 209 207 206 205 205 205 204 204 204 203 206 227 228 227 231
332 334 324 319 334 280 273 267 261 253 248 246 239 233 221 223 223 213 216 206 206 231 233 230 227 223 219 218 216 216 217 218 217 218 223 226 228 229 229 224 229 234 235 229
274 339 335 305 301 306 276 272 276 259 255 250 247 239 231 226 218 220 227 221 222 215 212 212 229 231 231 231 231 230 229 226 225 227 228 228 227 231 235 236 229 224 225 218
248 278 346 334 314 310 295 284 277 274 265 254 251 243 240 226 225 223 216 209 146 225 225 206 208 210 193 221 230 231 232 232 232 231 232 235 235 232 223 217 216 212 206 203

GFSNW_2pvu_pres_048.txt.gz
Presure
341 316 429 471 448 407 420 433 434 462 457 462 336 293 275 258 244 240 257 267 251 244 230 221 220 251 260 255 250 251 251 242 240 243 191 192 201 206 212 246 245 229 270 252
336 313 474 462 436 403 410 414 441 472 418 408 322 298 281 257 254 243 238 269 249 241 233 225 220 221 218 236 219 216 219 215 209 191 190 198 207 219 255 226 232 253 254 264
333 312 474 455 421 408 398 396 426 437 368 375 268 275 278 254 252 242 241 266 252 241 233 222 218 217 213 211 211 214 209 208 210 208 207 214 234 240 222 264 253 254 258 262
327 309 438 445 416 416 396 396 455 341 343 337 342 303 280 258 246 242 241 246 263 243 229 226 220 220 216 217 218 217 210 216 219 210 218 238 231 252 248 258 245 240 256 265
320 303 443 446 444 412 404 362 389 337 314 327 334 339 277 262 250 246 240 244 261 259 234 228 223 221 219 219 221 219 216 221 111 215 137 86 250 241 228 262 233 255 251 258
316 297 446 396 443 401 417 352 338 358 330 328 317 316 277 271 261 245 243 243 238 258 241 223 228 220 220 223 217 215 224 208 220 220 232 223 245 224 252 240 231 247 241 245
312 295 396 385 403 411 391 355 344 344 328 320 325 329 295 285 259 249 249 241 234 232 252 235 228 225 224 223 225 226 213 224 215 235 219 247 237 226 235 233 246 241 243 240
309 385 389 373 373 377 375 338 319 315 306 334 319 308 316 305 274 247 245 247 242 229 234 248 229 226 228 226 214 226 219 219 239 225 251 251 218 231 227 236 232 255 234 251
302 454 391 373 370 354 338 328 316 316 336 306 306 323 333 220 323 280 257 230 238 235 234 233 225 234 224 224 228 217 222 248 226 223 246 217 232 219 226 230 219 224 230 238
292 456 384 373 357 326 332 319 308 322 297 310 303 313 315 305 317 324 343 279 242 236 232 237 234 235 240 235 224 228 219 232 258 259 234 222 229 217 219 222 213 232 241 233
287 434 370 364 353 331 323 316 313 328 293 134 309 303 314 331 351 313 261 334 331 247 241 245 242 237 244 246 236 198 235 259 259 237 227 225 212 164 227 228 231 232 237 244
348 431 373 374 351 337 323 313 300 316 310 150 307 323 309 304 306 303 303 299 304 252 248 250 245 242 232 251 257 228 275 249 247 180 215 218 225 220 225 209 232 229 248 235
605 432 386 367 339 337 321 336 308 307 309 296 284 283 281 279 280 285 282 285 289 288 292 294 301 194 170 267 234 339 263 251 201 232 234 181 227 179 226 223 228 227 242 243
628 416 386 359 322 340 314 313 310 297 282 275 273 273 273 270 263 258 261 259 256 260 252 241 230 184 237 222 309 264 227 203 217 215 204 222 167 228 231 223 229 236 222 223
608 410 373 352 335 311 316 314 288 280 275 271 271 262 253 245 237 243 251 265 289 334 381 345 301 183 187 287 184 228 216 222 172 215 216 232 222 228 232 237 241 243 232 227
613 408 383 343 325 326 328 285 281 274 269 264 252 243 178 243 247 251 286 345 295 274 279 240 286 182 275 234 215 229 210 221 173 230 233 226 229 222 232 234 237 240 242 218
617 409 377 337 319 322 299 287 277 267 262 247 236 241 195 246 245 309 334 243 220 276 213 215 272 260 221 268 231 234 232 188 231 223 233 228 216 235 222 226 233 228 191 216
442 395 364 344 324 326 290 279 270 263 253 233 240 212 237 236 264 246 277 246 269 214 229 219 243 233 262 244 230 239 239 234 232 234 237 218 271 228 216 233 214 207 203 203
396 377 351 330 330 299 281 277 266 256 248 215 249 237 233 242 232 222 246 256 238 240 246 215 210 200 194 207 211 227 224 225 235 217 226 240 252 249 247 230 228 213 233 235
388 371 342 330 315 292 278 267 261 252 245 234 235 236 227 235 237 225 253 211 211 244 208 244 236 233 240 234 238 218 253 224 236 239 244 226 238 241 239 240 244 249 254 256
371 338 335 341 293 278 272 269 264 254 244 223 229 246 218 225 229 220 233 226 209 206 217 235 196 220 211 240 249 243 204 229 225 227 226 229 220 219 220 224 227 227 227 225
377 341 334 336 280 284 274 273 263 254 242 236 226 215 242 230 223 217 237 224 233 253 248 229 246 241 228 249 232 194 221 211 208 213 216 201 200 197 191 192 207 195 194 193
363 357 334 334 293 271 275 266 268 253 246 237 224 225 211 206 232 225 216 218 213 215 256 260 258 250 211 218 219 215 226 214 202 213 221 202 192 204 207 209 208 209 207 204
283 331 343 342 321 281 274 275 261 265 246 238 224 227 221 214 204 235 229 224 218 217 212 204 223 222 217 224 210 211 215 222 214 207 201 204 210 210 207 196 202 204 200 200
256 331 351 296 325 315 263 283 266 260 256 243 236 223 219 220 209 203 228 233 215 228 218 219 214 211 209 217 208 203 216 207 204 203 203 206 204 201 201 202 204 204 204 226
258 254 286 318 298 297 307 266 271 268 258 255 246 239 230 211 213 211 206 217 201 226 230 228 222 219 214 212 212 211 211 209 207 203 205 207 207 208 213 221 227 229 228 225
262 255 249 262 340 324 325 318 299 263 269 261 253 248 242 234 227 217 209 210 205 117 204 192 231 232 225 224 223 220 216 220 222 224 225 226 228 229 231 231 230 231 236 237

GFSNW_2pvu_pres_051.txt.gz
Presure
270 314 349 310 449 423 419 428 438 428 459 458 450 326 293 267 246 233 238 272 264 254 252 249 243 239 224 214 275 267 259 255 253 256 253 252 249 246 249 246 202 204 204 219
297 318 339 308 440 419 404 416 439 487 477 395 399 324 290 268 248 241 238 251 262 258 249 244 246 225 219 270 273 264 260 255 256 256 254 243 237 200 201 196 210 219 237 240
297 313 331 311 435 413 405 415 432 463 450 380 331 308 287 263 250 247 240 240 266 259 256 238 237 221 254 262 261 258 255 253 253 243 223 199 197 199 205 215 238 285 281 265
298 310 324 308 426 414 415 463 456 455 403 373 322 305 186 260 254 247 246 239 267 258 258 235 220 216 211 226 249 238 228 218 212 217 212 215 202 215 215 262 242 240 256 261
296 305 318 309 426 411 415 450 410 449 372 147 312 292 279 262 251 250 243 237 259 259 251 238 220 219 219 218 218 213 216 218 213 218 219 221 222 215 228 242 258 254 248 270
290 331 313 425 430 413 432 422 374 364 384 350 309 296 280 257 251 247 244 239 235 262 248 236 222 219 220 219 218 217 217 216 213 215 204 224 215 221 247 236 235 253 238 239
293 349 306 410 424 382 415 366 362 347 337 325 310 296 278 260 247 246 244 238 231 259 251 239 231 226 219 220 217 209 216 215 218 209 220 215 221 243 233 241 250 229 250 236
305 311 300 407 429 367 375 354 337 325 344 339 315 298 289 267 251 245 248 241 240 237 256 255 235 220 227 224 219 219 216 219 218 220 216 237 237 247 233 227 231 221 243 252
296 320 294 409 419 367 347 345 331 322 318 315 312 318 291 278 258 254 246 242 240 233 238 249 250 231 226 219 225 212 223 217 221 207 218 215 256 217 219 228 221 235 224 231
295 317 291 398 381 370 341 318 329 300 328 322 299 327 301 279 275 253 257 240 233 236 234 233 245 248 230 229 221 201 224 222 212 214 157 206 229 235 226 223 223 230 233 224
293 311 286 387 364 383 349 319 312 311 314 306 317 296 318 332 331 275 256 239 247 239 231 234 228 235 246 235 228 223 215 200 216 221 202 199 228 229 221 223 217 231 242 228
308 305 283 389 353 346 333 318 303 324 302 308 301 295 302 311 315 320 327 258 233 246 248 239 241 237 230 213 230 226 225 199 217 198 252 228 235 214 159 225 220 223 238 225
329 299 381 383 349 345 326 318 285 277 287 297 302 284 319 314 309 310 314 317 302 253 248 241 238 238 242 236 230 232 176 230 213 257 249 200 223 224 211 230 225 236 226 239
318 293 441 367 341 340 325 303 308 307 307 308 298 294 294 301 305 306 302 305 307 312 314 269 245 250 248 194 195 236 247 228 259 253 220 173 222 223 234 229 227 241 229 238
308 376 443 357 343 338 323 311 305 304 301 287 288 281 277 277 275 273 276 278 284 287 290 298 296 265 210 176 240 258 229 259 241 224 215 222 223 231 231 230 232 242 224 227
301 511 413 369 337 331 319 307 309 292 281 276 270 268 258 259 257 256 254 252 249 252 252 256 267 291 299 177 240 219 259 258 215 222 221 227 225 232 225 228 234 240 241 217
294 474 389 363 339 323 305 313 292 281 274 269 255 251 248 239 245 250 309 336 307 314 330 325 381 209 179 229 228 259 228 211 225 220 170 238 222 240 223 231 231 243 232 226
346 421 380 341 325 307 319 293 282 274 270 252 244 242 243 248 231 314 276 281 282 279 209 280 225 298 211 244 251 251 219 211 223 234 239 230 233 220 218 241 230 235 236 252
479 401 354 333 326 321 302 289 278 272 252 242 234 242 242 284 306 275 277 259 254 251 263 273 277 266 263 251 250 235 223 237 231 240 223 234 241 225 228 221 216 239 254 218
425 395 350 325 316 317 283 280 272 266 240 235 237 229 242 254 239 273 177 244 243 250 216 242 261 254 254 248 226 225 221 234 234 231 234 224 210 210 209 212 211 222 211 213
406 373 347 333 329 309 286 281 273 262 240 229 234 217 239 237 252 227 253 199 227 247 217 260 228 241 210 219 233 238 237 238 231 237 213 226 248 242 242 243 243 241 239 241
281 352 347 319 329 303 289 282 270 256 238 231 229 217 230 237 243 230 235 250 241 215 241 229 240 239 238 223 231 223 232 222 246 220 231 239 226 224 226 225 227 236 224 226
270 344 322 323 338 301 292 280 271 259 239 232 226 233 229 229 224 238 229 227 215 207 206 211 240 237 245 243 231 244 225 228 227 228 230 225 225 222 215 210 202 199 196 216
269 316 340 320 334 297 288 280 277 263 251 234 226 221 232 237 227 219 231 206 233 232 223 217 237 222 207 203 241 213 219 202 218 200 223 208 208 216 202 204 194 198 202 208
273 260 316 338 316 318 289 281 275 267 256 247 224 230 219 221 239 231 224 223 207 208 218 232 243 234 245 236 258 213 211 230 232 213 230 214 207 217 212 200 200 207 214 211
283 268 254 280 318 327 297 284 257 272 259 256 243 218 228 212 217 237 189 228 225 219 210 211 214 234 255 258 227 228 228 227 227 223 203 221 222 206 208 204 206 208 203 202
287 273 266 253 250 345 325 296 277 261 249 267 255 243 227 219 226 215 216 208 237 230 224 225 212 214 213 183 212 230 226 209 218 212 205 205 209 211 209 203 203 205 207 221

GFSNW_2pvu_pres_054.txt.gz
Presure
278 289 304 343 323 379 416 426 435 442 483 374 346 322 330 319 279 255 241 243 269 267 259 258 251 244 240 243 240 238 239 237 238 234 236 232 223 221 225 268 265 270 271 253
281 285 303 342 322 384 417 430 450 506 497 341 343 326 338 281 257 254 238 235 269 266 257 251 250 243 247 244 238 243 242 238 234 215 243 269 264 266 263 256 249 248 239 224
293 290 303 330 340 384 426 465 451 463 537 338 337 335 335 256 243 236 234 233 269 266 253 251 247 236 236 239 237 229 225 232 276 272 266 265 255 247 239 235 222 210 204 217
292 293 296 308 334 383 439 459 475 498 387 340 270 335 272 256 242 243 233 232 270 266 255 249 249 241 234 228 225 217 274 277 273 217 250 244 236 221 210 206 215 219 235 252
285 296 298 310 328 379 440 447 479 419 342 334 348 288 274 259 247 249 238 236 267 260 253 247 240 238 229 221 264 267 266 261 254 238 231 217 203 218 219 216 237 252 266 247
291 290 309 306 327 377 457 440 399 392 349 337 349 297 265 260 257 250 239 238 254 261 249 253 238 229 220 216 212 254 244 229 217 217 210 217 216 226 216 241 249 249 237 247
287 290 325 300 320 424 386 478 392 364 382 352 330 301 280 261 248 239 242 212 239 258 250 252 237 222 219 214 212 216 210 214 220 214 219 223 222 210 245 232 237 251 224 254
299 284 322 298 317 357 375 406 356 366 352 335 305 293 275 261 248 242 241 239 232 240 255 251 245 222 222 218 215 215 218 217 217 210 221 221 211 252 233 244 227 226 236 237
293 290 330 292 310 394 371 354 370 356 338 347 301 282 278 259 239 246 242 242 234 233 245 254 243 228 216 214 214 216 210 215 214 220 220 211 212 221 247 225 228 223 226 231
293 292 306 292 304 389 354 347 344 343 340 351 297 295 134 262 250 240 248 246 238 237 239 255 252 238 228 219 216 217 220 216 219 211 213 214 205 227 219 173 228 221 235 226
282 303 305 298 298 385 364 330 347 320 322 319 324 302 231 273 258 253 250 252 239 237 237 239 256 261 231 227 217 214 217 217 207 215 214 213 230 206 232 226 237 230 219 234
285 310 297 321 292 371 341 320 321 302 304 314 326 321 305 283 275 263 260 253 252 240 237 232 238 246 255 253 229 219 207 211 214 210 210 215 231 243 234 215 222 221 223 239
296 318 293 307 328 385 347 314 318 329 317 304 291 310 314 319 309 281 263 258 258 252 251 232 230 229 239 246 246 241 218 222 219 218 215 232 213 234 207 170 225 231 228 238
298 320 293 299 382 364 337 322 318 315 309 301 292 311 313 314 313 318 296 273 263 255 252 250 235 230 226 230 233 208 220 220 163 219 230 214 199 226 161 224 226 233 227 223
317 299 318 296 371 344 332 319 312 280 284 305 309 305 300 303 306 312 316 270 321 307 267 249 243 242 246 228 230 229 218 223 231 219 240 246 231 177 224 228 234 231 232 235
318 295 307 410 368 345 331 295 312 295 312 308 296 301 288 285 285 285 283 285 287 293 298 302 286 259 250 245 177 172 232 222 238 230 255 176 213 224 225 229 234 231 233 288
331 309 456 395 352 336 326 325 310 315 303 291 278 271 269 269 269 269 268 269 270 278 290 297 302 310 296 239 177 221 231 247 230 258 230 231 220 223 225 225 223 227 242 240
305 311 413 370 346 325 318 316 311 298 280 274 262 258 256 251 247 217 280 307 303 306 286 259 270 290 304 278 182 220 264 228 258 212 221 215 231 231 235 235 230 243 245 216
294 381 384 351 332 327 317 311 299 281 274 259 255 244 237 243 301 274 280 276 274 237 277 314 347 244 310 218 180 257 225 220 254 233 214 220 226 228 225 222 257 237 225 232
285 351 371 352 332 326 308 306 288 277 257 252 242 244 233 295 270 273 268 267 270 277 277 309 307 247 211 273 232 232 179 223 232 188 212 232 233 214 240 225 221 211 230 239
293 341 350 343 328 305 317 293 283 270 252 245 233 241 276 278 257 255 249 248 257 270 279 220 252 247 239 239 243 247 246 220 221 225 239 236 229 239 227 233 217 222 212 221
281 285 342 337 326 312 310 290 280 261 248 243 232 241 238 255 266 269 254 259 258 252 212 269 248 254 231 247 241 214 239 236 232 228 233 233 224 213 212 242 236 241 238 254
298 279 340 334 302 311 307 285 281 263 243 241 232 235 234 256 239 225 233 242 243 244 236 229 250 236 245 240 198 242 236 237 236 233 237 225 225 215 245 220 226 227 224 221
296 283 272 354 312 320 309 294 284 269 246 238 233 231 232 234 253 236 228 237 242 241 242 225 255 217 241 244 229 234 232 237 236 231 221 236 216 233 240 227 228 224 203 202
295 283 271 303 311 323 317 302 283 279 257 236 233 232 232 227 235 227 237 218 229 222 224 219 218 211 218 230 225 245 211 220 235 239 214 197 228 233 233 224 214 213 211 202
284 285 274 268 308 314 326 305 297 285 275 253 217 231 230 225 222 231 232 226 227 228 219 212 228 229 222 222 230 218 224 236 212 203 202 220 221 229 215 227 208 207 208 213
269 292 279 268 263 255 335 325 312 273 284 268 258 234 214 229 227 226 219 224 234 226 222 229 236 212 221 216 224 231 227 249 225 253 240 234 220 231 214 224 206 212 222 217

GFSNW_2pvu_pres_057.txt.gz
Presure
305 296 317 313 309 324 351 496 492 540 440 361 342 334 334 211 318 297 267 252 260 254 278 272 264 258 257 253 249 246 244 249 239 241 240 239 235 232 230 228 226 226 222 224
293 300 317 293 306 323 346 502 495 533 385 351 342 329 330 325 304 274 254 253 242 273 275 261 257 254 246 240 241 245 244 245 241 242 240 239 235 231 231 235 237 243 244 243
298 304 308 313 310 320 336 501 497 377 373 362 339 327 347 314 278 254 257 252 271 275 260 251 246 239 240 236 234 232 231 231 235 237 238 239 241 241 237 226 218 227 263 261
304 301 318 309 308 336 327 501 410 349 335 365 348 333 310 267 258 256 245 264 276 264 262 256 248 245 238 237 241 242 240 240 242 237 232 225 256 265 272 263 261 245 238 234
304 308 298 310 306 348 320 510 384 355 354 352 354 342 280 258 241 249 245 274 267 255 252 246 244 232 235 237 239 242 240 227 223 217 273 272 264 250 244 236 228 228 221 257
307 295 298 287 311 338 315 509 372 364 348 344 340 312 261 252 251 241 240 272 270 261 252 248 242 236 235 234 235 225 235 276 277 264 257 229 236 222 218 222 209 253 248 251
305 305 301 293 307 325 311 422 391 358 344 355 344 283 265 258 248 247 240 250 263 259 247 242 242 242 238 233 225 270 266 262 254 242 229 218 218 218 217 227 247 248 247 249
308 314 300 286 305 312 305 415 389 360 336 351 321 272 265 254 244 242 240 237 263 253 251 246 242 236 234 224 218 251 224 227 218 216 211 212 219 221 238 235 240 239 231 239
297 310 285 301 302 306 305 422 379 360 346 344 300 288 267 229 243 244 235 198 237 262 248 253 249 236 231 220 214 215 214 209 212 217 211 218 216 209 236 241 238 202 235 226
302 296 306 305 309 292 299 376 363 370 350 332 338 281 272 232 196 242 244 242 235 256 258 252 254 231 226 221 218 213 212 212 213 215 217 214 222 217 224 220 234 227 222 219
313 295 284 292 330 289 293 350 354 355 358 349 308 289 272 266 249 251 245 245 243 238 243 259 255 246 227 223 220 216 215 213 211 216 215 218 217 211 227 228 231 224 225 228
299 300 303 303 307 305 283 345 338 327 329 334 325 294 286 269 265 253 254 251 246 240 239 232 261 251 233 223 213 215 210 218 217 218 217 210 218 214 225 234 231 224 227 225
301 298 304 306 311 315 280 350 332 344 329 323 317 303 277 279 265 261 251 255 253 251 241 239 242 256 259 238 228 223 221 217 224 217 206 214 220 196 222 242 235 208 225 226
296 305 308 315 302 296 382 347 325 316 317 325 320 319 320 289 283 271 263 254 254 252 251 240 241 238 242 254 257 246 222 220 220 216 188 219 216 222 230 236 223 213 223 232
308 312 310 326 316 350 364 330 322 335 320 312 304 313 318 316 321 326 323 274 261 253 252 250 238 235 236 236 242 248 247 242 231 232 209 220 219 236 241 233 192 223 239 231
311 289 329 313 296 390 350 326 315 319 304 308 301 308 311 313 318 321 324 323 329 272 264 261 255 239 234 238 234 220 232 224 179 228 222 230 222 222 235 222 223 233 238 227
315 296 320 310 395 363 336 323 328 302 291 307 313 302 304 295 292 289 291 296 302 308 312 302 272 250 247 246 234 228 213 168 223 225 229 223 237 195 221 223 226 237 223 246
313 331 311 401 370 341 324 306 324 307 312 311 291 280 279 277 277 278 279 279 281 286 291 299 309 318 295 253 229 222 175 209 227 238 221 261 251 235 224 222 224 243 223 230
298 322 310 381 353 339 324 328 311 322 306 280 275 274 265 263 259 257 295 288 291 292 295 301 309 289 305 331 283 201 177 228 234 214 250 257 188 216 230 227 243 222 250 226
293 308 305 362 344 341 333 310 316 300 276 269 266 261 249 245 247 277 278 274 276 281 296 310 335 277 294 303 310 191 180 234 233 184 260 245 208 217 220 235 225 223 244 236
316 296 293 356 347 326 321 313 304 278 272 267 257 249 243 296 272 267 267 265 273 278 281 292 320 338 292 299 284 187 272 261 250 253 239 221 212 219 232 234 227 230 238 212
295 288 291 344 348 327 313 317 295 275 268 261 251 246 274 271 271 263 261 258 271 268 269 269 279 289 242 196 282 260 243 230 247 252 239 229 211 224 239 229 227 224 220 219
298 282 293 297 329 323 314 309 293 273 261 256 247 239 296 261 260 258 252 266 265 263 251 262 251 252 286 254 239 232 243 249 247 209 208 220 232 230 233 232 213 217 238 236
285 274 294 319 320 327 310 311 298 275 258 253 248 241 240 234 248 254 267 257 256 262 251 238 246 221 250 233 236 245 241 226 242 235 230 225 225 220 241 230 216 229 230 225
285 269 291 284 316 311 310 314 293 284 263 247 248 244 238 236 246 270 239 226 225 244 257 255 240 246 242 245 237 232 238 238 241 240 224 224 224 219 201 219 223 233 210 192
287 268 295 285 272 314 317 302 311 291 279 245 245 242 240 234 234 228 234 242 233 229 240 234 254 220 243 236 238 245 212 226 223 210 202 223 215 238 211 224 213 211 216 233
288 280 265 287 278 267 271 323 324 308 294 273 251 242 239 234 231 232 228 226 227 239 234 232 231 223 217 222 224 215 217 214 212 204 236 241 248 204 201 202 202 204 226 229

GFSNW_2pvu_pres_060.txt.gz
Presure
292 294 322 308 299 328 327 332 397 365 367 348 344 356 359 350 333 341 276 275 265 257 249 273 266 258 288 281 279 283 287 289 296 293 263 259 250 243 244 247 250 249 248 249
293 310 319 329 320 328 324 365 379 374 359 343 335 346 357 343 310 289 273 258 254 262 267 258 279 282 275 271 270 271 275 276 282 288 293 260 255 255 250 255 281 278 270 264
294 319 305 306 313 318 319 336 381 368 362 363 354 352 363 357 303 271 259 248 255 255 266 277 272 261 258 257 254 254 255 250 252 256 258 262 262 258 250 241 237 241 239 237
290 324 308 324 310 311 312 333 379 355 358 350 352 358 343 293 256 258 250 246 251 268 272 261 251 247 248 248 242 242 239 240 241 238 238 237 236 237 234 232 236 230 237 234
306 303 290 321 305 308 313 331 386 383 358 352 346 360 296 271 262 263 252 250 272 272 262 254 249 245 242 243 242 247 245 240 237 233 234 239 241 238 238 243 243 233 223 231
321 294 313 321 331 319 313 328 374 385 355 352 347 300 273 241 271 252 269 273 274 258 249 249 243 243 240 235 234 234 237 238 238 239 242 222 232 224 241 278 275 266 250 238
293 301 308 313 310 316 339 306 395 374 356 358 326 279 265 261 246 249 273 272 270 261 257 252 245 240 239 241 243 242 242 238 229 227 219 265 281 270 260 242 235 226 221 238
285 308 315 302 304 304 317 309 387 371 362 370 295 275 255 255 247 251 268 269 260 262 257 251 245 240 240 239 236 228 227 267 275 273 274 273 244 231 220 230 225 256 266 240
321 303 266 303 304 296 309 309 325 368 354 362 289 276 267 260 253 166 268 271 265 255 252 250 242 237 239 236 224 260 265 266 263 264 231 219 219 225 209 224 254 237 241 235
324 324 305 322 301 298 310 325 297 378 354 352 292 285 276 266 256 248 244 269 264 256 249 244 244 246 241 226 244 254 258 236 216 215 211 210 222 225 219 240 246 230 228 228
317 332 309 313 299 297 308 299 295 375 361 343 323 282 285 265 258 251 250 244 256 260 255 249 244 241 236 226 223 222 220 216 212 208 216 215 213 228 225 223 243 238 228 232
321 316 311 321 303 296 309 321 290 368 355 346 330 275 278 268 264 252 252 248 246 260 260 257 255 244 236 227 222 216 216 216 215 213 215 215 218 222 220 222 224 234 235 226
289 325 314 319 305 296 305 302 294 350 361 357 357 311 275 270 271 264 246 254 247 244 260 261 255 257 238 227 223 223 217 214 212 210 214 216 219 220 221 219 241 236 230 216
319 326 309 321 303 307 313 292 365 344 333 327 327 308 285 272 277 267 264 250 256 248 240 234 260 257 251 235 226 225 222 216 214 209 218 216 217 215 211 222 239 236 203 216
319 327 335 319 300 319 301 384 355 337 336 330 320 325 313 302 280 276 268 260 251 256 250 240 237 247 258 247 238 233 229 226 220 218 219 173 214 221 224 222 246 178 200 231
320 316 332 316 298 312 410 368 347 334 315 307 319 321 320 315 324 289 274 271 256 258 252 251 250 236 235 251 263 256 233 224 225 223 215 211 224 224 225 228 242 234 221 221
313 339 319 306 324 386 381 351 336 322 316 311 306 303 311 319 320 318 319 325 309 274 264 255 252 246 240 242 243 245 252 252 251 247 241 222 220 218 171 224 238 232 223 240
325 321 314 316 311 396 354 334 329 324 317 307 296 307 310 301 296 296 296 294 300 307 315 317 271 252 251 241 229 230 225 235 210 240 219 221 225 230 224 255 236 228 225 235
293 326 340 316 400 362 335 327 320 325 297 300 313 294 289 286 284 280 281 281 293 290 290 299 307 314 301 260 248 238 235 202 227 226 224 230 231 220 245 255 222 222 225 235
301 320 319 301 362 346 330 315 324 302 302 308 284 282 279 274 267 266 297 281 274 271 279 290 299 306 313 311 267 247 235 204 225 223 222 230 221 234 258 228 221 231 240 221
298 301 301 341 352 334 321 313 315 308 308 281 275 271 263 259 289 287 276 282 256 281 286 303 321 334 359 309 308 301 246 185 196 234 233 224 235 260 237 221 223 227 235 225
278 298 295 289 343 333 322 324 309 310 276 274 266 262 257 287 283 275 274 273 278 272 278 286 301 328 300 296 303 322 295 205 181 233 229 252 261 240 237 216 219 235 233 237
298 286 287 287 341 332 328 306 313 287 276 264 263 254 253 291 276 268 265 268 269 267 273 270 264 265 285 292 292 271 276 190 244 233 236 245 259 235 209 223 221 236 228 225
284 291 285 328 351 314 318 309 314 281 270 264 263 255 248 286 273 263 265 255 269 263 262 262 254 272 280 280 209 209 274 258 256 250 243 240 254 231 223 222 235 236 228 229
280 288 279 285 273 325 323 305 316 289 269 262 262 253 250 290 266 244 254 261 264 259 259 257 254 271 244 275 271 260 250 232 235 242 245 223 202 212 218 226 230 224 236 225
278 287 287 272 275 289 314 300 304 307 267 266 256 254 249 243 257 243 238 265 240 238 261 256 255 253 266 266 244 238 231 236 241 243 244 253 229 226 218 218 227 236 230 213
173 280 284 271 273 271 326 317 308 304 297 255 262 253 249 243 241 238 239 258 234 229 228 265 257 254 264 255 247 246 242 233 227 233 236 238 239 247 231 242 218 188 210 224

GFSNW_2pvu_pres_063.txt.gz
Presure
301 212 304 298 320 314 336 325 371 348 349 353 348 351 340 347 287 326 284 272 264 259 256 253 257 280 267 272 271 278 286 268 272 275 272 255 249 254 241 235 229 244 235 242
302 129 303 298 295 307 324 325 354 374 365 400 359 359 264 332 357 298 276 270 264 261 253 266 279 249 266 265 268 270 270 280 276 266 260 258 270 245 248 253 255 247 246 241
301 180 303 298 300 295 322 343 368 350 354 347 392 361 353 331 297 281 274 264 255 251 248 279 273 263 254 270 285 287 288 286 296 301 284 268 257 256 261 247 259 253 250 254
261 323 332 299 300 295 316 320 374 378 353 366 358 378 325 285 283 278 265 255 255 256 271 260 257 272 275 272 269 268 272 275 281 284 288 291 277 265 253 247 257 252 260 253
185 330 313 318 302 306 318 322 386 370 356 356 354 375 303 276 261 262 251 268 263 257 265 280 272 269 265 260 256 253 253 260 262 263 266 271 278 274 276 274 263 265 270 264
322 318 323 320 298 309 313 319 316 379 357 369 332 315 286 274 263 255 257 256 266 275 272 258 256 255 251 250 247 247 251 247 243 244 247 251 254 255 255 252 244 241 237 232
325 320 321 312 305 312 230 310 314 380 373 358 304 290 267 266 262 264 255 262 276 267 257 253 249 248 245 244 243 242 241 242 244 244 243 243 227 239 239 237 237 240 235 226
339 346 316 309 317 322 317 298 314 388 362 344 300 289 262 265 256 263 262 272 273 262 253 251 247 245 244 240 237 237 235 234 234 233 238 242 240 238 230 225 230 272 268 247
338 336 328 330 327 323 325 313 207 299 372 327 308 290 277 264 249 254 270 272 270 249 251 248 242 243 240 234 241 245 245 246 243 242 228 219 228 256 279 267 245 234 221 217
290 325 332 313 331 312 313 309 318 298 385 383 310 287 276 268 258 250 270 262 271 257 252 249 244 241 240 243 241 239 234 227 246 273 281 280 270 239 230 225 228 226 235 259
345 334 319 315 306 306 311 300 308 307 383 366 312 296 265 274 261 256 252 274 264 263 261 254 249 243 238 238 235 229 256 267 268 277 248 226 220 214 222 213 216 262 245 241
335 335 329 312 310 305 311 303 301 313 288 375 352 300 286 265 271 253 255 258 272 258 258 253 225 244 241 238 229 251 258 264 227 221 221 217 211 224 222 216 229 248 221 237
336 334 320 320 308 306 317 301 299 311 304 377 355 325 293 287 259 259 255 250 251 262 258 257 251 245 248 236 232 248 222 220 220 216 213 212 218 215 215 218 220 230 240 233
336 338 341 315 310 320 316 297 304 303 375 364 355 335 307 280 274 269 253 253 241 255 270 257 254 250 245 237 234 230 227 218 217 216 213 212 209 210 217 218 219 222 217 235
343 334 321 313 313 332 303 150 306 296 371 363 355 345 345 289 273 275 262 258 250 236 248 261 265 258 255 239 235 232 221 220 215 217 218 215 211 215 219 222 209 220 243 240
337 325 318 314 263 323 309 294 301 348 348 339 331 336 327 336 284 266 274 271 254 252 239 246 244 271 256 258 238 225 224 217 220 217 212 210 213 214 214 211 213 218 234 154
332 323 317 312 332 320 301 305 380 342 340 326 325 324 321 328 314 286 273 260 263 261 249 250 249 240 237 264 260 232 227 223 222 221 223 220 216 177 216 213 218 223 220 238
327 313 312 330 325 344 479 392 354 345 331 319 313 324 316 319 324 322 322 299 282 275 269 265 252 245 242 231 258 257 242 234 232 229 226 222 223 220 227 224 223 159 232 238
315 311 320 318 324 375 386 361 341 328 313 313 313 307 308 309 299 302 305 307 312 315 320 312 271 263 247 252 232 235 249 254 255 254 254 253 244 228 226 224 229 212 250 238
308 310 310 307 407 381 359 335 328 317 321 309 301 313 297 292 288 290 289 283 284 294 291 296 303 309 320 261 255 245 238 242 244 244 249 241 240 229 223 228 215 240 248 228
302 301 302 366 377 355 333 324 317 321 311 304 307 291 287 274 278 275 297 279 273 278 275 279 290 299 304 312 328 262 247 236 225 229 230 214 231 225 226 225 230 259 236 222
288 281 309 298 292 336 327 321 321 309 295 304 288 278 276 271 270 296 273 270 271 283 288 294 302 309 320 343 365 320 294 261 235 234 218 223 232 218 228 227 260 239 227 213
292 299 274 354 298 331 325 311 308 304 313 288 277 271 269 263 274 287 266 264 271 273 272 281 282 301 329 369 374 298 316 329 254 238 202 191 225 236 236 230 251 238 221 213
284 290 294 288 316 208 320 314 318 306 296 282 271 268 262 257 287 278 263 271 265 270 266 269 268 269 267 260 287 295 309 311 280 245 233 184 220 233 220 251 245 237 217 229
283 287 274 290 282 313 321 317 315 307 288 277 272 266 256 253 290 276 261 264 265 264 263 263 267 270 271 277 280 273 284 301 286 259 202 242 237 229 225 253 237 234 211 224
276 286 280 285 281 278 323 311 306 310 289 270 275 262 258 252 288 275 263 257 255 268 262 264 262 268 277 270 268 264 266 268 268 262 256 251 245 242 250 245 241 227 216 223
281 281 274 281 287 273 287 320 308 300 313 275 268 267 256 257 248 289 267 262 240 254 264 264 258 252 260 250 267 268 271 261 259 257 254 250 254 242 242 247 245 220 222 226

GFSNW_2pvu_pres_066.txt.gz
Presure
137 213 296 302 323 333 322 326 331 392 370 350 345 359 346 348 318 307 295 282 271 261 261 273 296 268 286 269 271 268 270 259 268 264 264 265 252 243 237 248 256 252 263 266
132 202 292 309 306 334 320 332 324 382 373 356 351 351 347 353 304 289 280 270 269 260 259 281 271 279 264 288 287 264 267 274 267 256 253 257 251 242 235 239 244 248 254 257
228 158 292 310 305 325 336 337 359 374 377 375 346 344 336 314 290 278 272 264 258 259 258 260 261 270 276 262 260 285 285 271 264 268 257 254 252 246 237 234 233 234 237 240
148 214 310 311 349 331 328 326 318 326 366 373 360 344 370 299 278 276 270 263 262 261 258 264 274 268 263 264 266 265 265 276 283 275 271 260 247 247 256 251 247 240 246 245
283 226 315 362 341 334 339 327 322 359 365 373 406 343 299 289 278 274 264 263 262 257 260 272 278 270 263 261 258 278 262 265 265 272 278 267 265 269 268 261 265 266 265 250
287 280 327 331 330 334 321 329 316 367 354 370 349 309 294 275 275 265 263 263 258 275 272 263 259 262 273 270 271 274 279 283 282 286 291 294 279 269 266 259 251 254 262 268
144 293 345 332 330 337 320 323 311 373 360 361 319 305 288 274 259 264 260 270 264 257 266 279 272 267 263 264 262 265 266 266 269 272 277 277 279 282 285 246 276 271 273 273
189 132 345 337 326 337 321 321 316 317 383 309 319 304 275 264 253 267 265 260 260 276 269 265 266 258 257 253 254 259 254 252 252 255 261 263 262 263 262 261 260 258 249 240
346 111 346 337 328 329 316 310 313 316 299 341 314 303 291 263 268 265 266 248 276 279 265 264 261 254 253 248 245 245 245 247 246 245 241 238 237 237 238 237 236 238 239 237
349 110 343 334 324 325 311 310 309 305 300 313 323 307 300 289 271 263 264 258 279 270 258 257 249 245 244 244 239 235 235 234 233 234 233 234 237 239 239 233 226 240 273 263
328 108 342 331 328 335 312 303 312 310 314 305 386 309 301 290 272 268 263 250 278 267 257 255 250 243 243 237 234 237 241 243 243 245 243 230 225 221 261 280 271 239 229 224
360 353 342 333 339 326 329 308 311 319 299 294 399 338 302 297 262 262 252 268 270 272 255 250 247 242 245 237 240 244 240 236 225 262 275 284 277 275 244 224 215 212 211 256
357 353 342 334 322 320 317 309 305 315 297 310 336 371 316 295 280 254 260 251 247 273 268 256 253 247 244 241 241 239 230 248 265 271 275 249 233 221 211 220 218 216 225 210
351 352 341 329 325 323 311 310 302 313 289 305 289 363 351 305 285 273 254 256 262 239 266 261 261 254 250 239 240 241 235 256 263 255 226 221 217 217 218 217 214 220 222 209
354 344 341 337 325 320 315 304 307 318 297 307 293 382 341 334 304 278 262 255 249 269 253 267 257 254 250 243 241 238 245 255 228 220 218 218 217 216 211 213 219 216 213 216
347 344 342 329 324 312 316 310 320 303 304 296 288 367 340 324 340 298 276 263 252 246 244 241 273 259 253 249 246 239 236 231 222 217 217 215 213 211 210 213 216 213 217 221
340 344 333 325 325 316 308 317 316 299 302 293 361 350 346 340 323 327 286 268 263 250 248 244 241 242 261 249 252 236 239 233 224 221 217 215 214 213 203 213 214 219 216 219
342 335 328 323 317 336 333 305 305 313 300 337 338 325 327 320 325 330 327 283 265 265 254 252 251 237 239 266 268 253 237 235 227 222 218 217 216 215 214 216 187 217 214 220
324 328 321 323 325 320 317 324 305 295 357 340 325 318 314 319 319 321 320 319 317 254 261 266 263 249 239 243 242 263 257 243 233 223 223 220 219 218 218 214 216 218 231 218
325 195 311 322 169 311 313 419 375 353 326 323 323 318 318 307 307 309 310 315 320 327 331 280 274 271 246 245 246 244 232 266 251 239 231 228 227 227 222 222 223 228 239 226
314 307 322 308 303 362 373 359 345 329 325 310 314 302 304 300 295 297 295 291 292 293 295 297 299 306 312 322 272 255 247 237 251 263 248 242 241 242 247 246 237 237 222 229
307 292 312 291 349 369 353 341 327 317 305 308 296 304 295 288 287 279 280 288 284 279 278 278 279 287 297 305 312 321 286 251 245 234 244 246 254 250 243 237 240 225 226 222
305 311 297 292 309 345 335 331 311 316 315 291 310 291 286 283 274 291 282 273 269 266 268 278 289 296 306 321 336 345 368 319 254 247 236 237 237 225 179 228 224 228 206 228
297 292 288 287 309 330 316 319 315 317 296 308 294 286 282 280 274 298 270 267 263 265 264 275 273 279 282 298 339 364 327 308 313 262 251 235 229 233 200 217 216 224 237 226
292 291 283 285 280 318 319 317 309 315 287 301 289 279 278 273 260 289 271 260 257 262 270 269 266 269 270 273 277 278 286 302 319 326 275 248 240 233 232 188 232 223 230 219
284 283 283 287 281 308 297 316 310 309 306 300 284 275 272 264 256 288 268 262 256 266 259 264 268 268 272 271 271 276 282 288 292 301 306 260 247 243 225 237 217 215 228 225
283 291 285 280 280 284 291 288 319 313 306 301 279 273 267 266 254 246 280 264 257 257 243 255 265 257 259 265 261 266 274 273 275 285 286 276 252 243 239 236 236 234 229 232

GFSNW_2pvu_pres_069.txt.gz
Presure
189 128 296 168 173 327 318 352 342 334 388 366 366 350 333 332 327 334 315 289 272 268 260 258 288 284 279 299 289 275 266 270 266 273 274 264 257 281 264 251 246 259 268 244
156 220 171 169 210 334 316 347 336 334 405 362 356 356 343 312 297 284 278 267 264 265 269 299 294 282 276 292 277 280 264 261 281 280 289 281 279 267 263 257 263 262 260 270
194 340 326 339 258 346 323 349 347 331 354 366 368 348 325 305 288 279 273 269 264 291 286 293 270 284 276 274 276 272 268 257 266 269 269 270 267 274 277 277 250 259 258 259
176 202 211 327 328 343 345 343 329 331 386 399 336 343 314 297 281 282 272 263 264 271 274 291 278 267 287 284 277 270 267 270 256 260 264 250 248 244 254 262 248 244 249 250
372 220 173 338 327 341 341 341 329 332 384 397 346 334 310 293 283 279 271 263 266 265 270 267 272 274 267 260 265 282 282 282 267 266 255 254 257 251 253 254 250 253 244 241
225 127 354 339 340 341 348 340 317 325 384 381 363 323 297 291 285 277 276 272 270 264 266 271 269 266 267 262 262 261 261 267 279 283 266 266 254 253 249 246 245 245 244 236
368 257 354 355 346 339 325 337 321 320 377 360 340 313 297 292 260 276 266 265 261 257 273 270 276 267 259 255 259 264 269 259 260 263 275 281 267 252 250 248 247 245 245 248
370 363 353 147 350 338 344 334 317 314 302 349 310 315 302 284 279 251 266 269 271 274 265 261 259 250 272 272 272 273 277 280 281 282 286 268 280 272 266 263 260 262 261 262
291 365 353 364 351 339 330 339 313 304 302 358 338 313 301 284 273 268 267 270 267 260 266 283 275 272 269 269 268 269 270 271 273 276 278 281 284 291 293 296 294 284 283 284
369 364 352 115 347 340 327 319 317 309 310 304 313 317 293 289 269 268 267 265 257 274 282 273 271 264 263 255 244 239 247 254 246 247 248 253 254 255 257 257 253 254 249 246
367 363 351 353 344 334 332 343 312 313 297 307 305 285 311 299 294 271 251 278 264 282 276 270 265 258 252 247 243 243 242 240 240 239 238 233 234 235 235 237 236 236 238 236
366 360 352 359 345 335 327 327 318 322 302 316 298 291 343 300 282 285 270 254 250 277 278 265 261 248 248 244 242 237 232 233 232 231 232 230 230 238 243 239 228 223 264 264
360 358 353 363 342 338 327 325 320 316 310 299 304 300 382 334 295 285 279 246 253 252 278 268 258 254 246 246 240 235 238 241 240 240 237 239 234 227 221 263 272 241 229 221
89 347 356 358 343 331 324 321 318 328 316 301 311 291 294 360 325 297 283 255 255 248 271 269 260 254 249 248 242 238 242 239 235 226 267 277 283 277 279 237 228 216 217 222
138 348 360 354 345 334 323 321 319 308 336 307 305 289 309 278 348 320 291 270 254 250 250 265 269 256 249 247 243 238 241 234 227 261 273 273 270 237 223 210 227 217 220 224
350 103 354 348 340 231 326 320 315 311 303 302 315 296 295 274 354 344 317 287 264 256 249 241 248 269 262 256 251 239 240 232 240 261 269 231 228 215 216 214 211 213 222 219
352 350 348 344 335 327 322 311 314 311 300 301 311 290 289 280 359 338 331 305 277 260 254 248 241 234 261 254 253 248 236 239 232 257 233 218 214 217 215 211 211 216 215 220
344 288 344 340 328 327 316 316 306 316 319 307 293 294 285 349 337 331 327 332 314 265 255 255 242 233 241 258 262 254 244 243 233 248 221 215 213 215 213 215 208 213 217 212
342 338 339 328 327 324 316 319 321 307 296 298 300 301 281 360 346 332 334 318 337 318 264 256 253 236 237 243 256 271 251 247 240 239 229 216 215 214 214 215 214 215 216 192
330 334 329 324 318 318 328 312 302 304 302 288 285 345 336 334 318 316 322 323 325 317 318 268 261 256 245 235 245 245 254 269 252 240 240 227 213 213 212 214 213 213 218 219
324 323 321 317 311 330 314 419 422 419 368 355 342 327 320 324 316 309 307 310 313 312 318 315 278 269 267 264 249 249 243 240 264 265 248 232 224 223 222 221 219 220 219 222
316 315 312 314 322 308 356 371 357 346 336 326 317 318 312 304 307 302 301 306 299 294 294 297 300 306 308 312 296 277 263 248 247 239 262 261 241 229 224 224 222 224 225 224
308 309 307 309 303 342 357 341 325 322 325 311 310 297 294 303 295 295 287 280 281 286 281 281 281 280 284 300 309 319 322 320 284 250 244 240 263 258 240 236 233 235 248 248
308 302 297 299 312 341 327 330 323 314 312 306 296 297 295 292 295 277 282 277 279 276 268 267 265 270 271 284 307 325 366 362 346 348 256 247 243 235 257 252 253 243 241 232
304 298 292 289 292 290 328 319 312 306 309 299 293 295 291 290 276 275 278 271 267 266 264 263 265 261 271 271 282 289 295 306 308 307 317 261 249 245 237 235 238 234 208 225
304 295 297 291 291 286 305 302 312 308 312 295 290 291 288 285 270 273 265 269 261 259 263 256 265 264 264 268 272 277 282 292 302 308 310 319 262 244 243 231 228 225 215 214
301 293 289 289 284 290 281 286 317 309 313 286 301 291 286 280 267 282 271 267 262 262 260 254 267 263 256 267 264 274 269 278 290 288 305 299 298 258 245 243 237 231 230 227

GFSNW_2pvu_pres_075.txt.gz
Presure
241 250 248 177 187 135 119 163 369 364 342 409 355 361 335 313 309 303 316 289 309 304 288 284 282 279 278 272 261 261 264 263 271 256 281 275 283 260 281 293 296 292 306 293
223 178 178 257 168 121 253 361 361 359 343 397 356 344 367 314 300 288 280 277 311 308 286 292 277 273 265 265 265 270 260 258 266 274 273 274 278 255 291 293 288 270 286 288
152 154 223 199 202 147 137 369 370 358 343 408 363 334 344 306 299 289 285 277 273 300 293 282 278 272 274 271 268 268 275 262 260 258 256 254 256 262 271 275 279 290 281 286
220 154 215 150 252 200 132 371 355 353 353 411 370 329 326 299 292 292 280 277 274 272 277 266 267 277 276 262 269 268 261 262 263 261 262 263 255 256 262 259 260 277 278 279
155 166 239 248 240 288 389 372 363 354 354 350 403 339 287 300 298 286 274 282 281 283 283 304 272 290 267 280 268 269 268 262 257 264 262 268 267 269 265 273 276 247 273 272
268 167 249 184 234 105 264 317 357 281 350 332 410 339 298 303 288 279 274 281 280 303 302 305 304 282 266 263 268 268 272 268 262 258 266 260 259 259 260 256 261 262 245 259
186 203 267 246 145 148 291 348 356 138 346 334 399 324 323 288 276 271 276 277 278 249 293 283 275 276 280 292 292 287 271 263 271 251 253 253 273 267 275 285 270 266 255 251
222 238 165 254 257 264 287 168 157 103 343 336 354 318 306 301 285 269 266 275 264 260 271 280 276 270 270 276 279 275 273 273 273 267 253 253 260 262 263 257 258 273 262 252
214 248 248 225 165 180 389 328 356 136 311 334 324 318 305 287 277 269 284 276 267 270 266 277 278 275 275 269 264 264 264 270 276 271 253 260 252 254 255 253 254 259 263 264
193 180 192 241 219 267 371 173 359 342 136 322 329 315 330 299 296 276 265 251 256 271 275 269 272 267 268 264 253 254 259 260 260 265 271 278 263 257 253 249 249 251 251 262
148 246 219 181 232 215 359 104 349 340 339 323 331 311 304 311 291 287 275 268 257 250 263 266 267 269 260 262 269 271 274 277 279 280 270 260 267 278 267 259 252 248 244 243
178 249 149 169 142 342 401 354 262 341 337 322 326 321 307 312 309 286 281 273 257 254 262 257 271 268 270 272 269 257 254 253 266 277 277 276 274 268 270 276 270 265 254 249
123 210 148 171 392 407 138 376 102 343 337 324 313 318 310 306 291 309 289 281 272 258 256 257 270 279 269 266 254 251 245 243 246 249 251 258 266 272 273 275 278 278 280 273
148 148 265 258 337 424 366 371 355 344 256 326 232 306 310 299 302 307 308 293 282 273 258 250 261 275 264 260 252 246 241 242 246 240 244 242 244 250 255 259 262 262 264 264
170 214 264 180 344 410 376 363 356 344 338 324 318 309 292 305 301 290 280 288 286 276 269 250 248 275 265 261 257 246 247 246 243 239 240 238 239 241 237 241 240 243 243 242
163 164 134 134 419 379 379 362 259 341 333 325 318 307 306 305 294 301 282 286 319 293 279 264 251 249 272 256 253 247 252 244 237 232 232 233 235 235 234 231 229 237 240 237
132 243 218 162 414 389 375 354 345 338 330 324 316 304 309 303 303 289 292 279 276 322 298 277 264 245 262 266 249 247 246 238 230 237 244 240 240 236 242 255 234 231 219 267
141 126 172 270 400 381 361 346 339 332 335 326 312 303 307 292 291 295 290 299 275 266 333 310 278 255 240 261 267 249 243 240 235 231 241 238 233 254 264 273 282 260 282 239
128 185 402 395 382 367 347 337 337 331 320 315 304 298 294 291 284 282 302 289 280 274 273 324 325 270 250 254 268 256 244 241 244 237 235 240 231 254 262 270 276 248 229 213
224 256 391 379 365 350 340 329 323 323 313 308 303 307 297 303 288 296 299 281 283 263 323 333 336 331 263 256 257 272 255 246 246 243 235 243 231 251 261 257 240 225 215 217
242 214 383 112 351 343 334 325 321 312 307 304 301 295 307 355 315 284 291 285 281 312 331 332 335 330 282 262 254 244 267 261 257 262 254 237 240 232 259 241 221 216 217 218
462 395 382 359 340 325 327 324 320 312 310 310 297 303 299 284 293 287 280 281 358 344 331 333 318 332 347 260 258 253 246 256 263 260 257 254 237 238 252 251 229 224 219 218
476 394 377 348 319 324 315 313 377 321 316 297 287 284 283 283 287 280 279 340 326 319 315 308 303 307 312 276 258 256 256 251 244 250 256 272 266 251 239 254 242 225 219 216
344 394 361 338 332 322 348 357 354 358 349 357 298 291 286 283 286 322 321 311 307 303 292 291 297 298 299 298 272 262 261 260 259 252 247 248 261 273 271 198 239 251 227 224
440 390 356 336 319 313 318 350 339 334 330 328 327 326 317 315 320 308 302 302 293 288 286 287 291 285 285 283 285 288 289 294 283 341 384 308 266 255 247 260 269 242 239 238
446 388 363 327 316 312 313 328 331 321 318 314 315 307 307 312 303 298 296 291 286 282 282 282 280 284 279 278 280 280 283 283 288 300 332 347 344 325 303 260 248 251 268 262
442 380 357 324 309 311 340 311 333 321 316 316 313 303 308 301 291 290 289 283 281 279 278 273 272 270 279 271 268 272 272 274 276 287 295 301 309 320 329 319 289 254 244 243

GFSNW_2pvu_pres_078.txt.gz
Presure
130 167 125 144 215 182 165 258 219 382 108 346 379 372 351 321 303 311 324 334 314 302 290 280 268 264 262 262 265 274 280 284 281 263 273 272 288 263 296 295 299 303 314 305
127 148 135 128 147 170 167 256 257 149 126 351 402 365 372 310 306 299 314 339 288 300 293 280 270 272 265 269 269 261 269 276 274 274 281 281 275 293 274 284 287 296 307 303
130 144 132 195 215 196 229 179 362 106 365 270 355 360 380 314 294 299 297 322 294 304 299 285 279 268 275 272 275 257 259 265 254 278 270 277 271 276 274 276 272 287 289 286
143 130 145 151 137 247 213 259 129 108 350 352 337 364 325 299 291 291 281 317 300 304 299 285 280 279 268 272 267 261 263 262 263 262 273 268 259 272 280 278 282 282 265 268
140 132 160 228 138 199 174 260 239 131 356 104 340 141 338 305 290 288 273 279 335 289 296 288 263 285 260 280 271 261 257 261 250 246 248 241 240 253 263 260 265 268 272 278
133 133 122 139 144 216 148 245 272 374 186 349 342 350 337 307 293 289 279 276 292 285 283 285 274 267 274 269 261 259 272 254 252 249 256 255 252 247 248 254 250 256 264 262
148 113 124 125 191 194 210 176 173 377 347 297 252 327 344 314 290 291 280 280 291 294 295 285 288 270 275 271 262 272 264 252 255 251 256 254 259 261 255 254 253 262 250 263
128 115 158 138 149 141 141 143 192 95 348 344 345 326 360 321 295 277 283 279 274 260 303 302 317 285 283 265 262 268 262 265 264 266 247 259 258 259 247 258 254 247 271 248
256 215 233 204 135 123 115 139 276 205 342 338 249 337 369 334 301 288 273 277 269 266 274 291 285 294 290 285 282 280 280 282 267 265 266 251 251 254 265 262 272 281 269 254
175 201 206 231 114 126 191 133 269 218 357 214 330 275 322 326 307 289 276 265 259 274 272 272 275 276 271 268 265 269 272 279 279 276 278 269 258 258 264 258 256 260 263 272
204 106 123 141 157 157 151 186 252 387 121 340 330 323 331 340 316 298 286 273 265 256 277 270 268 270 273 266 268 263 259 260 262 261 271 270 258 256 253 259 255 253 252 263
139 186 116 164 150 126 174 163 130 395 360 344 337 331 324 320 348 302 293 282 272 263 260 273 266 267 269 271 247 256 265 268 269 269 257 263 267 277 261 250 256 251 253 253
158 158 173 143 129 174 238 155 158 132 348 159 336 336 317 326 307 335 299 292 283 268 256 253 253 266 269 263 266 269 269 268 269 275 279 278 268 260 266 273 259 248 250 247
223 247 139 176 189 159 158 152 277 405 367 234 335 333 320 312 317 302 329 298 284 283 270 255 255 255 274 275 274 271 261 260 252 260 265 268 272 278 276 267 269 272 266 255
216 235 173 170 152 212 186 147 382 219 364 344 338 333 317 316 308 308 296 325 299 285 279 271 259 255 262 276 269 262 250 247 252 253 255 254 258 258 263 267 271 274 277 278
130 247 203 133 152 133 122 157 160 386 356 343 343 327 318 315 304 307 290 292 325 303 292 279 268 252 257 273 267 260 249 242 238 242 244 246 238 240 237 242 249 255 261 267
162 256 189 179 152 120 242 158 395 373 345 344 336 328 316 316 308 300 304 290 281 279 308 289 280 267 255 253 274 258 245 235 238 242 240 240 239 238 234 236 235 235 239 238
237 193 165 135 122 129 132 290 376 355 341 337 335 325 315 310 302 306 303 288 301 278 281 317 296 279 268 253 273 250 253 236 237 243 240 233 232 233 234 237 239 236 234 236
168 146 159 136 106 124 222 385 360 342 335 334 330 316 311 306 299 301 308 294 285 298 280 283 320 300 278 273 257 272 250 245 235 245 235 231 236 243 241 239 236 263 268 251
149 261 142 110 132 139 403 366 349 344 339 326 315 309 309 298 297 298 306 292 289 287 284 284 266 262 338 295 275 256 266 250 236 245 244 237 228 243 243 237 227 264 272 280
242 138 157 242 242 317 390 369 340 328 326 319 308 307 298 295 287 290 289 282 278 292 289 278 281 265 264 307 337 280 250 265 250 249 243 240 242 236 243 239 236 263 271 276
259 242 244 229 253 335 386 366 339 321 315 334 332 304 299 294 289 313 288 297 291 297 282 281 271 302 337 335 344 355 277 261 262 251 251 246 241 243 238 244 232 262 269 261
207 264 225 255 306 393 377 370 339 358 316 306 305 303 301 296 289 292 340 313 282 284 274 351 354 345 328 326 330 342 351 254 245 272 259 257 250 248 245 239 245 243 263 242
251 260 272 216 368 365 378 354 336 316 315 305 304 309 301 295 315 299 281 283 282 276 332 319 312 312 305 304 304 309 321 261 257 244 254 269 268 265 268 260 245 239 249 249
269 255 278 481 412 372 372 345 329 314 359 363 304 298 293 287 284 281 281 281 280 318 304 299 304 297 294 294 295 295 298 266 258 256 252 255 255 243 246 267 267 253 247 242
257 280 436 490 413 369 359 340 320 313 353 349 337 303 293 290 285 282 279 284 314 302 294 293 294 289 286 286 286 284 286 288 280 261 261 265 269 269 264 255 246 248 272 264
357 369 493 486 417 371 350 335 316 310 307 332 332 325 325 311 293 290 308 305 302 291 291 291 287 284 278 277 274 275 275 275 276 282 286 288 316 326 330 334 334 271 259 244

GFSNW_2pvu_pres_081.txt.gz
Presure
128 118 147 135 147 139 171 173 173 208 253 365 365 389 362 320 216 312 315 320 308 295 296 286 283 289 290 290 301 298 298 329 314 291 286 276 278 287 286 299 293 298 264 296
149 134 124 219 130 143 134 149 141 139 141 166 190 115 345 321 223 308 324 284 303 287 279 281 274 284 267 293 293 285 316 318 323 330 302 281 279 287 280 257 264 273 299 290
123 136 147 126 165 133 141 247 172 227 210 156 182 204 384 170 303 291 279 301 294 292 273 281 275 271 269 276 273 284 280 278 278 287 293 310 325 306 310 251 250 302 298 294
133 146 158 118 125 121 132 201 172 216 287 390 135 202 389 344 296 294 284 282 302 305 288 265 275 269 272 284 257 266 272 266 271 272 271 275 269 267 281 286 286 277 277 285
134 138 119 239 237 138 118 126 134 266 152 181 367 199 333 347 300 292 286 281 286 281 293 281 270 263 261 269 265 261 268 260 262 274 266 272 269 276 279 270 266 265 266 275
181 132 153 98 119 206 174 119 124 136 169 177 170 184 342 368 310 284 284 287 291 305 294 290 268 274 261 269 259 261 258 266 248 245 259 259 262 252 261 268 262 272 274 266
124 107 168 175 123 120 170 132 137 208 115 165 173 357 193 383 317 298 290 280 284 280 292 282 292 272 267 258 270 259 253 257 246 244 237 239 239 240 250 256 260 257 260 264
138 169 130 135 112 131 242 150 269 224 166 166 170 245 350 379 315 302 291 280 279 285 292 289 285 289 276 263 266 260 256 264 268 256 251 250 252 244 240 247 249 246 246 262
154 173 124 136 238 259 161 132 160 282 169 157 373 349 328 331 338 316 296 279 274 267 270 298 289 286 282 270 261 259 263 258 269 253 249 244 248 254 257 255 249 252 245 253
114 171 218 215 223 174 140 244 203 207 271 221 131 301 342 336 224 323 303 289 276 272 266 279 297 291 304 299 269 264 264 265 257 258 262 256 267 266 259 253 258 253 261 267
138 256 247 237 224 165 231 253 258 211 143 152 156 163 333 337 324 342 312 295 281 267 264 273 278 277 275 276 283 289 285 281 285 278 287 286 281 263 262 260 267 264 266 279
146 226 124 134 154 153 231 119 176 141 418 207 259 314 336 341 332 344 310 298 278 269 277 269 273 273 270 275 272 268 261 262 266 270 275 274 277 272 257 261 265 257 255 259
200 241 243 115 117 130 206 138 148 151 141 137 253 378 339 347 330 312 343 295 289 275 265 265 265 260 267 270 267 269 251 243 252 256 260 260 263 277 268 256 262 261 254 250
196 205 255 117 124 131 143 170 157 229 124 152 291 379 348 328 329 321 303 312 295 291 280 264 257 264 258 269 267 262 256 261 266 271 273 276 276 263 259 269 275 248 258 250
149 245 167 155 243 221 186 217 153 129 125 138 270 397 344 330 330 323 318 306 312 289 286 277 267 264 260 261 271 264 269 266 265 261 250 270 272 274 275 268 260 272 266 251
228 244 140 136 218 259 211 270 120 123 117 401 399 364 346 332 323 322 316 302 297 315 289 283 276 268 263 255 266 277 269 263 257 245 252 261 264 262 266 270 275 277 276 275
237 240 148 142 238 160 155 217 116 134 193 383 369 352 342 335 327 313 315 306 300 295 317 296 284 274 269 264 258 272 265 260 248 248 244 236 254 251 251 252 253 257 261 267
220 129 178 251 142 129 141 118 136 185 253 367 350 343 342 333 320 310 314 308 307 283 289 324 307 289 278 276 263 265 265 257 248 244 241 242 245 244 244 244 241 243 244 245
205 230 156 229 243 138 143 261 171 228 310 363 345 337 334 327 320 309 311 304 302 289 292 284 287 321 291 287 279 257 266 265 252 247 241 244 245 243 242 240 238 236 234 233
108 194 201 108 245 148 135 151 255 252 145 355 348 339 327 327 316 303 303 299 302 291 291 294 281 272 348 322 291 278 258 265 262 246 250 242 247 243 242 235 236 243 246 246
244 163 228 225 159 209 228 277 241 284 351 360 340 330 324 319 315 307 303 291 294 296 294 289 289 278 284 271 299 306 286 269 263 271 260 252 247 253 238 235 234 245 245 241
240 190 185 247 192 208 252 244 227 300 352 354 354 352 320 313 310 307 295 296 310 285 296 281 280 293 295 283 275 271 268 308 308 262 274 261 250 236 250 237 236 236 243 241
219 230 244 216 257 262 197 253 223 320 381 347 336 318 354 313 307 298 302 291 286 282 277 279 289 289 290 283 284 273 279 279 283 314 264 263 256 256 236 248 240 239 237 244
202 234 162 143 166 254 247 232 255 371 384 354 342 318 311 307 301 312 300 281 286 311 295 294 293 282 274 272 323 319 320 321 330 339 352 254 264 264 255 250 246 246 246 240
184 230 244 259 259 258 245 239 260 371 370 343 368 327 313 318 320 298 290 291 296 314 300 293 282 293 317 310 309 306 301 302 303 307 314 259 249 258 270 268 255 253 249 245
212 212 260 266 260 264 267 276 390 357 360 361 320 335 314 309 313 193 297 305 294 278 273 274 302 315 301 306 298 289 292 291 289 291 295 261 256 253 248 245 250 256 255 266
242 256 272 268 276 265 250 493 396 354 350 364 322 345 330 310 300 301 288 279 274 273 279 291 303 301 295 297 286 286 286 281 282 282 282 277 262 262 263 262 261 260 259 254

GFSNW_2pvu_pres_084.txt.gz
Presure
125 134 133 136 122 208 144 130 255 106 127 227 299 148 131 162 196 233 312 321 315 285 295 296 290 289 299 293 300 319 335 389 313 285 278 279 274 271 278 277 282 272 280 301
143 129 118 159 134 128 124 134 136 170 118 172 263 308 130 186 284 222 320 308 310 287 288 288 292 290 296 290 317 314 322 343 336 297 281 281 274 277 272 285 285 288 310 282
98 93 155 134 172 126 122 146 136 232 237 364 240 371 364 382 348 301 291 308 282 300 282 290 276 287 287 282 295 320 318 312 348 288 288 287 275 275 274 282 257 297 308 284
120 113 96 149 103 140 123 115 196 147 223 276 247 205 331 363 365 285 294 284 297 293 286 283 277 291 280 281 280 295 301 321 315 294 287 286 293 291 285 297 285 272 262 265
117 164 190 187 117 153 136 121 181 185 267 263 113 382 169 169 373 316 295 294 285 280 291 284 282 287 271 268 260 279 279 285 297 318 326 293 283 276 275 277 277 262 247 286
132 137 105 103 125 126 149 144 269 132 134 162 141 370 146 320 165 323 299 292 285 291 286 289 277 268 264 263 261 253 266 276 267 264 266 282 296 304 307 296 283 275 276 264
124 132 135 167 127 127 171 205 229 171 234 138 215 147 267 368 290 299 308 292 284 280 288 287 277 273 266 268 265 266 263 263 276 266 272 268 264 274 261 249 258 255 262 262
141 139 135 156 176 164 132 129 124 254 235 239 261 149 132 184 372 340 314 295 292 284 290 280 294 271 267 260 263 260 265 253 246 253 255 257 262 256 259 259 259 264 258 264
134 220 179 187 152 153 154 199 151 125 150 161 118 126 179 150 345 365 315 302 295 287 278 293 282 286 272 264 263 259 255 252 247 244 243 241 244 243 248 250 255 250 260 256
115 231 170 188 138 239 198 172 239 178 119 119 127 429 154 142 168 361 330 300 291 278 277 273 299 283 286 275 263 262 257 264 263 251 249 246 248 242 241 246 245 247 247 257
185 118 214 176 199 101 187 251 277 150 191 253 252 338 126 146 298 347 365 317 293 286 279 278 291 298 290 285 280 273 264 260 261 259 258 256 252 249 253 254 253 245 249 249
199 198 118 177 199 116 120 109 130 122 145 228 255 155 125 180 265 342 342 332 304 281 282 271 273 283 291 277 297 297 292 269 263 275 267 264 270 282 268 270 274 263 257 265
217 240 121 167 105 192 221 226 252 262 240 204 210 238 148 219 354 338 340 358 311 290 274 269 257 270 278 277 271 270 269 273 273 268 273 274 273 274 272 281 278 258 260 265
208 202 209 149 200 107 122 236 215 188 245 154 145 126 133 399 356 344 345 327 325 293 275 266 264 279 278 272 266 271 270 265 264 260 257 256 259 265 266 277 269 261 260 261
156 197 131 173 221 236 164 132 225 226 133 269 137 117 427 399 360 336 344 330 350 298 286 278 264 262 272 269 265 264 268 264 250 251 262 271 272 270 268 262 268 269 254 261
182 193 193 204 158 197 123 230 214 136 128 142 189 234 292 393 356 342 335 332 315 317 294 289 279 268 260 261 264 265 267 262 259 264 269 267 268 272 273 272 270 260 264 273
181 131 214 129 188 239 224 170 228 217 229 124 109 293 375 364 347 338 332 325 329 306 313 292 284 285 274 267 255 262 267 266 265 268 266 259 248 262 268 270 271 272 273 265
196 198 219 241 226 116 240 236 186 198 250 242 250 244 374 354 337 336 328 319 325 317 298 323 299 282 281 275 267 256 258 270 267 265 264 258 249 245 250 258 262 264 268 270
160 210 209 140 250 217 135 227 139 217 148 170 260 264 364 356 338 332 326 314 306 316 307 300 322 304 291 286 270 267 258 257 272 263 262 257 255 249 246 250 250 250 246 249
159 230 177 233 243 231 137 139 245 254 258 235 255 213 232 319 339 334 329 314 302 302 305 302 285 288 338 319 293 279 271 264 258 271 262 259 255 256 247 247 245 247 246 242
212 164 204 157 191 241 177 199 148 152 248 252 244 278 362 390 325 326 322 308 298 311 302 298 294 294 294 286 285 356 315 279 272 262 263 269 264 257 255 248 248 242 240 234
216 205 196 235 110 214 188 146 176 170 194 223 228 221 359 359 378 315 306 306 301 312 303 296 301 303 296 293 293 281 278 342 324 288 275 268 268 265 250 254 247 249 241 235
211 228 206 214 247 216 160 148 214 240 186 255 266 256 360 339 323 320 307 301 294 289 294 294 299 292 290 298 291 291 292 288 282 286 314 319 296 268 283 261 253 237 246 246
220 215 230 236 227 213 238 250 240 251 253 260 236 261 365 334 325 349 311 294 292 285 285 281 304 291 280 277 291 289 298 298 289 290 285 295 290 265 300 262 269 257 252 235
231 232 238 241 251 222 258 244 233 247 252 262 247 267 370 328 321 314 358 311 289 289 286 291 281 282 297 303 296 290 269 330 322 319 323 325 335 340 351 278 262 268 252 255
238 210 242 229 250 260 261 254 228 237 225 235 244 380 379 330 320 311 306 347 304 285 283 287 281 313 303 291 273 312 317 305 300 299 297 292 294 299 301 282 265 249 270 269
232 222 239 233 233 268 227 273 207 236 257 276 228 379 359 343 321 311 303 295 325 300 294 311 302 291 274 271 310 301 295 293 289 286 286 285 282 283 284 277 263 251 243 244

GFSNW_2pvu_pres_087.txt.gz
Presure
126 124 136 122 142 103 122 106 103 224 123 164 211 144 408 378 151 180 177 309 323 294 293 297 306 293 299 320 328 338 504 324 310 295 295 289 284 274 276 274 258 275 262 266
139 120 122 133 137 111 192 102 102 118 131 156 214 265 257 368 133 359 305 222 306 302 282 297 299 285 289 330 315 330 363 347 312 304 300 298 285 280 276 288 294 277 264 279
129 132 124 122 125 141 112 103 147 134 139 207 191 232 382 355 132 272 162 306 305 300 285 282 295 284 285 297 314 308 334 400 313 275 281 279 287 288 289 284 288 284 285 282
99 124 140 107 118 156 112 102 134 137 128 237 259 246 216 132 132 146 148 305 297 312 288 280 286 296 279 285 299 315 311 342 315 288 268 272 274 269 276 272 276 275 280 267
94 140 118 144 141 117 148 123 143 127 236 190 244 219 122 329 128 324 146 307 301 296 301 281 281 272 284 278 278 298 320 338 327 290 275 271 269 278 277 283 286 283 282 270
131 119 142 128 141 130 130 142 112 154 206 263 125 147 352 144 372 380 141 311 301 292 290 290 286 269 268 266 269 270 289 313 322 303 286 273 271 269 269 273 269 272 279 295
121 101 148 93 125 194 98 154 145 163 140 186 180 253 240 333 275 349 138 313 304 295 294 286 278 282 263 265 269 267 269 271 291 310 286 276 273 271 271 280 289 252 257 270
144 126 113 98 103 122 185 107 118 128 140 185 256 278 244 270 388 218 373 320 308 298 290 289 277 265 274 266 262 258 265 271 271 266 272 283 287 284 283 294 284 278 269 266
147 135 142 128 165 147 122 104 148 117 165 185 147 243 245 354 381 137 149 335 311 302 284 306 290 273 267 269 266 265 259 255 262 264 267 260 270 253 259 259 257 254 254 255
113 130 127 189 154 133 176 93 130 213 193 191 246 250 148 256 285 131 220 344 318 304 292 286 298 288 279 265 268 262 255 254 270 254 260 248 254 257 259 255 246 246 244 251
124 135 143 140 139 223 140 90 125 189 222 217 209 135 238 281 142 284 351 362 332 311 294 281 283 299 294 281 269 268 262 257 248 251 247 247 255 248 243 253 249 251 256 254
129 140 138 223 116 205 129 93 196 229 126 129 227 250 262 239 150 182 360 335 342 322 294 286 274 290 303 289 287 271 263 261 261 263 252 252 250 249 253 243 249 247 245 251
152 132 195 197 182 135 95 224 197 166 146 232 151 241 254 142 136 403 364 351 364 323 305 287 279 273 298 301 299 290 283 278 271 267 269 263 254 262 269 257 253 255 252 254
156 157 170 223 207 124 204 214 232 201 186 140 209 150 257 122 121 399 367 343 330 342 307 288 281 275 266 282 285 279 287 287 290 280 272 271 281 282 282 284 285 288 290 278
138 141 226 215 133 146 230 148 189 246 163 208 145 232 145 247 383 410 360 347 337 352 320 296 285 274 267 256 276 277 273 269 271 270 269 266 265 265 263 265 267 272 277 278
118 173 220 104 199 145 240 170 196 108 249 255 188 246 242 141 126 382 358 338 338 322 334 306 287 280 267 263 258 274 272 267 267 268 268 257 253 259 267 268 260 260 269 272
234 168 113 212 227 161 219 232 225 256 129 259 268 218 263 256 253 246 354 339 335 330 343 313 298 287 278 269 260 266 261 264 268 268 264 261 256 267 271 274 276 275 271 263
140 218 146 202 166 141 176 240 139 253 111 260 165 215 247 137 230 242 342 340 327 324 319 333 306 293 289 280 269 265 261 256 258 266 269 265 268 271 268 259 264 273 275 273
191 217 112 175 155 137 227 215 168 233 264 142 187 212 225 226 247 233 270 331 331 320 312 323 320 304 293 285 279 275 268 263 263 255 261 273 274 271 264 259 251 256 264 270
228 96 173 187 165 180 213 120 219 133 243 198 135 181 238 227 230 249 352 333 322 317 311 307 306 304 329 309 289 276 276 270 261 265 258 259 276 274 273 260 257 252 254 251
93 142 130 203 221 200 221 191 235 226 167 253 235 255 213 248 288 239 282 328 313 314 309 307 298 297 306 303 335 306 286 280 274 271 269 263 260 271 269 270 263 254 248 250
200 130 202 221 211 221 217 106 244 248 237 230 204 206 248 248 244 302 369 330 314 302 301 299 302 306 298 301 292 291 302 310 306 293 290 285 276 269 266 261 264 262 247 245
146 203 220 209 219 208 223 258 237 207 243 203 246 203 248 243 265 263 359 377 310 303 296 288 296 315 301 299 302 288 291 289 283 278 270 285 328 298 286 276 269 263 266 250
209 217 217 211 212 211 236 252 224 242 220 222 226 207 207 225 339 240 359 346 317 302 295 286 287 284 282 291 294 284 299 295 295 294 295 296 293 287 288 307 322 290 267 288
180 214 209 214 210 222 255 248 230 212 260 255 227 230 245 225 251 273 357 343 356 302 292 294 288 284 284 280 300 286 286 278 290 299 290 283 331 333 335 342 305 284 302 290
209 220 208 215 220 240 245 197 240 253 271 227 223 238 253 256 244 371 344 341 324 339 315 291 290 288 285 284 278 287 280 295 275 274 312 305 308 310 306 308 313 325 289 277
211 215 228 222 246 236 249 248 253 235 260 253 245 254 241 266 388 371 345 333 324 348 330 295 286 281 290 279 273 285 293 270 299 291 297 295 298 290 290 287 287 291 298 302

GFSNW_2pvu_pres_090.txt.gz
Presure
130 145 111 154 158 128 138 115 128 163 97 101 165 256 267 135 154 140 362 317 144 298 292 300 306 301 326 322 336 366 447 325 305 290 315 292 291 296 283 289 275 278 271 264
132 143 139 135 107 134 148 115 155 140 108 101 202 205 200 173 179 371 379 323 135 298 292 307 301 294 301 326 324 351 471 327 304 307 309 293 286 290 284 268 277 266 278 276
146 176 164 120 139 137 117 106 104 149 97 150 216 180 195 210 283 376 390 331 134 302 294 292 295 293 296 312 321 324 353 370 314 305 285 300 288 287 293 287 260 276 274 265
153 96 149 119 121 143 113 113 117 112 102 158 175 181 144 166 324 382 373 144 134 298 292 288 313 292 292 295 315 319 332 414 309 302 296 301 280 275 274 269 268 261 252 251
214 157 140 145 130 111 146 105 155 151 115 142 205 166 248 216 181 390 172 142 136 305 293 289 301 274 290 286 294 316 318 375 311 303 284 280 287 304 288 272 270 290 274 282
145 149 137 137 128 143 144 142 100 133 162 224 164 193 167 141 280 400 365 373 126 308 296 289 293 283 284 286 287 298 327 349 310 294 302 306 292 286 290 284 279 281 264 268
163 137 147 132 126 125 122 128 114 195 199 150 175 181 191 252 187 410 368 176 175 293 298 290 285 279 274 267 281 286 303 329 311 281 271 268 283 277 272 272 273 274 271 273
149 145 116 118 129 130 95 127 107 147 192 223 178 154 207 216 224 395 182 352 343 304 307 293 283 284 271 270 265 276 281 296 313 287 281 281 274 265 268 267 271 269 267 269
141 136 115 145 143 109 135 98 99 104 238 141 230 161 247 234 206 314 137 223 361 318 300 295 288 282 277 273 268 272 271 273 288 300 293 283 267 263 263 262 270 271 270 255
140 144 130 134 125 129 120 141 91 222 101 226 186 153 231 245 218 290 222 119 377 334 302 297 303 287 281 279 276 264 266 263 246 264 272 278 284 284 285 284 284 285 286 277
142 136 139 104 109 112 154 93 134 202 181 202 164 148 140 173 212 246 289 385 382 348 323 302 289 308 292 279 274 265 265 259 263 262 268 262 263 252 263 257 256 263 265 255
151 128 149 128 112 125 141 187 201 200 251 220 139 165 159 248 184 256 233 259 281 365 338 310 294 280 284 294 279 284 271 269 262 268 260 257 256 254 254 251 252 254 250 245
140 129 128 139 95 142 191 237 177 133 178 222 193 212 238 206 115 249 287 287 379 351 352 326 298 288 278 271 299 286 282 266 272 258 260 250 251 254 253 261 243 241 243 245
126 144 123 121 128 190 127 200 126 189 187 169 222 164 124 256 211 251 290 303 351 357 370 335 315 295 286 275 276 299 295 278 268 270 265 254 268 257 246 247 249 254 254 254
144 124 109 137 179 150 139 214 139 207 221 209 181 155 235 228 254 183 206 172 300 360 342 354 321 304 289 279 267 258 297 292 292 288 285 276 272 267 263 258 261 272 275 280
143 153 146 156 209 107 159 124 212 216 150 123 129 233 243 194 251 235 242 270 273 228 354 347 342 311 290 284 272 265 257 290 282 278 282 286 286 283 281 277 272 271 272 276
137 137 191 147 127 218 204 192 221 154 234 134 203 201 134 157 197 242 210 220 269 275 341 344 344 321 301 282 277 268 265 263 264 272 271 272 268 260 265 257 253 261 265 261
147 173 164 121 197 228 156 196 133 145 199 150 214 162 232 235 253 248 234 252 243 287 334 336 332 338 307 292 274 268 264 259 260 260 258 258 273 267 268 258 261 269 274 277
186 159 180 216 146 204 137 155 114 170 142 159 239 124 226 216 250 278 167 246 224 316 333 329 336 315 318 300 285 277 269 268 262 260 260 258 255 261 271 264 269 271 268 264
170 147 207 215 202 166 209 222 222 116 132 231 161 220 239 221 256 218 230 265 261 299 340 323 314 315 318 319 293 284 278 276 273 269 265 263 262 259 254 258 276 274 265 258
158 174 215 200 198 217 181 222 193 226 192 118 177 233 237 254 230 245 234 273 271 448 353 325 305 307 308 309 315 287 289 282 276 271 276 271 267 260 261 262 251 273 271 267
174 204 116 224 194 191 178 133 128 214 233 228 204 241 263 253 247 252 230 266 239 336 405 326 306 300 305 294 302 296 290 313 300 291 280 276 275 270 267 266 268 262 260 266
216 194 166 180 221 209 222 123 216 214 234 234 238 221 246 253 243 225 206 251 257 286 423 324 309 303 296 287 292 296 293 292 288 294 309 306 303 299 296 287 285 275 271 268
139 205 200 201 195 212 200 217 228 229 226 233 244 237 254 195 237 232 253 272 235 273 364 401 316 304 295 286 291 297 291 290 287 279 277 281 281 283 282 276 274 278 331 311
183 195 217 212 160 206 225 214 224 231 236 223 235 255 253 225 247 260 230 239 260 287 360 376 342 306 295 286 280 282 287 286 296 279 285 288 290 276 288 320 316 317 294 292
215 207 213 196 214 218 214 228 232 231 224 237 244 248 257 234 238 246 254 264 312 311 360 352 356 309 295 291 288 286 286 280 290 286 301 292 282 303 315 303 309 312 310 321
209 215 192 210 212 210 221 226 223 232 245 229 265 274 253 233 248 242 265 268 304 399 359 339 348 344 298 299 289 292 280 282 275 282 281 283 277 298 297 285 301 287 290 293

GFSNW_2pvu_pres_093.txt.gz
Presure
146 134 145 137 164 202 164 142 128 99 166 102 109 116 141 236 283 163 386 359 215 280 306 301 298 304 328 329 354 517 360 337 319 310 303 298 323 303 298 310 276 269 261 278
136 143 141 136 160 212 132 135 142 142 114 116 156 130 246 176 240 200 391 376 133 140 312 300 309 301 318 326 338 387 354 330 310 289 303 298 301 306 309 293 287 277 259 277
199 161 135 144 225 202 141 137 135 153 103 99 97 174 132 187 194 225 232 334 333 319 306 302 297 301 302 324 326 350 336 320 308 311 301 303 298 303 278 272 277 291 281 279
133 137 141 227 177 173 137 90 118 107 128 158 193 130 141 153 223 154 410 380 311 326 307 301 310 302 286 310 323 331 394 319 309 292 307 290 280 279 271 288 265 254 270 265
133 132 227 139 207 152 131 133 101 138 154 114 170 172 148 188 188 176 197 234 260 325 310 302 305 296 304 300 315 326 352 339 307 292 309 283 298 306 270 276 256 261 265 250
137 134 211 142 153 149 135 146 111 109 163 127 231 191 170 212 195 246 172 368 122 269 299 302 293 284 298 283 305 325 347 386 315 302 298 293 296 290 277 267 258 253 271 260
123 141 139 106 165 161 135 119 115 137 138 91 150 161 235 194 208 219 167 406 398 241 315 306 281 290 283 276 288 317 339 386 323 299 302 284 277 277 281 272 266 273 263 264
209 162 99 181 154 146 127 96 109 113 113 107 155 149 147 203 209 185 242 200 359 359 321 306 288 288 276 286 275 290 327 331 312 301 294 282 288 297 292 299 277 264 267 271
132 205 143 196 119 138 125 92 124 138 98 168 223 132 215 204 179 180 263 207 367 372 333 308 297 299 278 280 278 264 302 321 312 307 310 295 288 298 284 282 287 283 282 268
167 194 190 158 141 146 132 135 146 109 143 141 188 216 180 116 192 163 179 250 257 259 335 324 308 303 296 285 280 273 271 280 310 298 291 287 278 272 271 275 261 271 262 267
135 182 183 156 108 117 134 146 89 136 164 186 172 174 146 207 205 201 104 197 277 330 351 337 313 297 291 291 274 276 277 275 277 285 302 299 293 286 279 275 273 278 291 283
138 187 145 155 121 135 133 149 136 137 135 134 213 135 227 172 226 173 240 274 261 301 385 360 327 309 294 280 291 286 275 266 275 269 256 274 271 283 282 279 268 275 276 273
157 162 158 153 140 118 128 128 123 131 130 158 176 116 145 225 144 207 165 252 217 275 241 317 350 324 305 288 279 298 277 267 267 266 272 258 268 259 256 257 268 258 258 259
168 159 147 147 150 130 142 150 138 155 205 191 170 209 130 211 203 190 205 253 249 232 287 359 368 349 324 297 284 273 281 283 278 268 263 274 255 266 248 259 257 257 256 255
162 157 166 152 124 132 101 128 127 212 200 148 216 112 235 226 103 184 233 248 273 275 273 265 359 359 334 312 291 282 271 262 287 275 274 265 265 262 255 262 263 247 245 246
160 181 118 151 141 114 129 123 178 195 196 133 142 220 215 198 174 220 224 235 182 271 257 276 348 340 349 321 301 286 279 269 261 289 279 268 268 269 265 262 260 261 262 259
161 155 184 154 141 117 139 153 173 200 212 166 121 207 226 158 209 239 146 161 231 273 253 226 297 344 350 340 308 292 281 273 268 262 289 287 294 295 297 296 282 274 274 280
153 150 140 140 134 148 151 189 230 149 204 217 184 233 223 125 202 230 220 203 252 268 237 239 339 351 334 335 323 299 288 275 267 264 264 264 260 265 267 269 266 263 260 250
134 128 141 163 151 134 163 194 186 204 147 132 144 176 112 204 228 236 244 253 247 275 239 271 257 356 332 330 338 304 294 283 273 265 264 259 261 259 255 254 264 267 264 260
147 170 106 189 152 144 133 205 208 200 202 199 228 137 225 227 235 235 217 238 222 252 274 249 266 243 345 322 318 321 299 289 283 277 268 266 263 258 260 258 253 247 258 268
170 167 190 155 142 157 191 207 159 215 233 229 229 158 233 225 232 240 238 257 256 272 235 231 281 324 359 324 313 313 310 297 287 281 276 273 270 268 262 260 259 260 251 246
199 188 183 189 120 204 178 212 208 184 218 227 176 227 233 239 226 244 214 240 222 235 260 247 294 319 356 333 314 309 306 309 301 288 283 281 278 275 270 272 269 264 261 263
160 192 118 122 206 185 208 220 210 183 122 231 220 226 225 237 232 243 231 252 257 241 221 270 266 322 361 335 313 307 296 293 297 296 295 292 296 289 281 279 277 274 274 270
174 185 191 192 193 132 208 184 219 222 227 223 220 230 232 233 232 242 224 245 266 255 267 272 268 401 415 344 318 300 295 287 285 290 289 290 290 303 301 300 302 305 299 300
176 198 205 190 165 132 196 217 212 215 220 219 226 225 221 230 224 241 252 267 246 246 269 272 281 394 391 392 329 304 294 286 285 287 279 279 281 279 278 284 287 290 298 305
155 197 200 212 181 195 206 228 215 224 220 217 226 229 246 239 236 239 268 254 245 260 256 258 268 392 377 371 366 309 290 282 286 288 278 276 282 278 280 284 280 276 275 295
199 199 207 209 140 223 221 220 218 218 206 215 223 220 233 225 239 244 238 254 256 244 266 267 283 393 377 357 351 344 299 285 282 288 283 283 287 280 277 297 283 309 299 289

GFSNW_2pvu_pres_099.txt.gz
Presure
131 243 135 234 135 169 109 136 141 136 151 155 165 121 138 120 106 114 192 201 243 351 341 320 320 312 305 359 519 438 389 377 342 313 310 321 323 331 304 301 297 366 281 316
222 243 123 184 155 121 125 127 110 201 146 138 165 135 159 145 127 137 187 240 251 373 263 324 314 308 296 353 409 387 393 369 329 313 312 309 317 311 329 299 291 282 274 302
242 179 191 128 117 242 121 138 158 148 142 137 98 147 98 108 167 144 127 189 243 166 334 326 309 312 295 319 361 366 407 356 330 314 309 308 309 311 294 291 292 300 276 274
152 198 221 133 211 192 222 207 200 202 119 129 102 109 132 93 165 114 224 160 278 380 361 336 313 313 308 297 350 329 337 331 323 317 307 306 309 310 290 284 318 324 290 263
226 216 151 136 242 230 135 220 207 192 144 171 113 160 115 116 142 157 147 226 243 249 222 343 317 314 314 295 325 362 324 322 319 321 307 303 303 286 286 281 299 324 317 275
218 215 208 127 120 192 216 215 156 146 186 117 160 145 124 113 165 167 168 150 205 174 281 177 276 314 309 304 305 347 339 320 318 322 310 305 294 293 278 280 277 291 291 289
212 212 213 127 183 223 209 205 195 142 182 100 143 128 150 121 194 189 162 140 189 249 219 243 325 316 308 311 292 344 399 324 319 314 299 298 293 300 291 278 277 285 281 274
209 210 201 230 227 213 163 199 171 184 173 99 153 91 107 145 94 137 148 228 212 247 200 186 349 273 313 308 307 303 403 336 320 310 324 311 291 274 269 281 269 286 280 271
205 208 131 227 216 211 136 137 138 134 145 157 149 106 139 157 151 138 208 191 189 176 233 186 239 341 314 303 301 298 341 343 320 313 317 314 283 275 275 270 264 279 278 269
212 212 213 222 210 216 161 158 139 178 155 100 125 132 98 136 146 157 193 200 192 177 196 189 249 333 328 312 303 296 292 329 322 310 307 314 309 288 286 292 270 278 288 277
214 211 210 212 208 134 200 161 183 153 158 138 108 95 130 97 134 145 160 184 156 236 228 231 245 228 292 328 304 297 289 286 317 314 308 310 297 283 288 275 268 275 269 263
213 212 209 212 209 200 104 197 180 154 150 155 114 159 123 119 176 146 233 139 170 185 233 249 247 257 285 338 322 299 295 286 280 317 311 308 293 287 288 304 288 286 284 275
203 240 219 211 201 191 189 190 182 171 145 161 133 142 125 139 174 154 154 206 199 219 239 196 242 252 254 279 338 311 292 291 281 271 281 298 300 290 289 288 282 276 283 269
195 194 208 193 190 190 191 188 175 160 136 145 132 160 150 190 208 140 146 214 197 135 211 229 221 233 236 359 370 333 308 292 286 278 271 272 256 294 284 294 289 273 282 280
197 192 188 185 183 192 194 162 170 162 147 184 132 95 136 175 175 172 143 207 223 163 237 226 238 241 237 244 361 369 332 301 292 284 277 272 265 261 284 295 292 283 271 273
190 187 186 180 185 191 181 190 178 187 146 112 135 126 136 188 127 147 143 212 193 147 228 238 243 215 238 254 296 374 364 338 302 289 283 277 269 268 269 256 276 246 284 279
192 186 185 185 183 186 182 181 126 127 162 128 134 140 171 137 177 191 151 220 225 224 232 226 240 235 231 242 252 244 363 353 336 306 289 282 276 267 269 267 261 260 256 251
183 184 188 188 185 183 179 139 139 170 127 142 132 180 166 142 164 177 209 143 197 223 232 135 233 219 247 238 224 273 326 355 342 329 306 289 280 277 270 268 267 264 262 262
181 182 181 190 169 182 139 182 138 112 120 185 179 202 110 179 211 187 164 222 215 223 239 229 219 237 240 219 225 270 267 333 347 339 322 304 289 279 273 267 268 270 270 263
182 179 186 180 144 141 135 168 154 195 179 179 133 191 169 144 169 200 217 197 220 224 229 244 225 255 231 230 231 251 269 281 367 341 335 320 302 287 278 272 267 269 280 282
178 178 174 177 169 154 145 150 181 166 185 143 139 158 167 143 163 150 134 151 218 234 229 239 227 237 244 243 208 249 257 275 366 356 334 332 318 302 288 280 272 270 264 264
168 178 167 138 166 168 140 187 149 166 156 185 133 112 148 164 148 171 188 222 128 231 231 239 222 237 241 246 212 248 249 274 282 356 342 327 330 314 301 290 280 273 268 266
171 143 141 157 146 149 138 178 161 151 138 152 139 123 200 160 204 209 214 198 209 229 206 238 240 243 238 233 216 207 238 273 279 361 345 333 320 320 310 298 287 278 275 269
143 165 147 140 143 151 142 177 172 154 127 159 139 184 145 214 148 203 163 223 222 215 221 239 228 229 243 241 240 190 247 236 283 270 354 335 321 315 309 310 297 289 283 279
156 155 145 148 147 165 156 179 173 170 155 153 158 142 195 189 206 180 217 217 222 230 228 236 221 231 234 214 219 257 205 241 267 349 383 343 324 313 301 297 301 301 296 290
171 140 157 169 146 172 144 165 176 198 156 182 195 192 161 193 172 211 221 218 216 207 233 228 225 245 229 230 209 250 241 248 282 413 410 379 334 315 302 291 290 284 289 287
156 158 172 159 157 154 186 158 186 170 129 190 174 185 213 163 209 217 222 218 228 217 232 244 222 245 232 245 181 222 244 253 288 415 387 385 364 323 303 293 289 279 280 287

GFSNW_2pvu_pres_102.txt.gz
Presure
195 170 184 188 233 180 227 212 168 169 134 145 173 150 131 127 142 155 114 111 171 187 368 336 319 319 305 368 460 391 380 357 339 348 328 316 335 307 309 305 307 305 365 263
186 170 185 188 247 233 220 125 137 169 222 213 205 160 127 122 140 119 149 132 146 131 380 342 319 318 311 337 399 395 369 343 344 329 335 316 315 328 305 297 298 308 305 326
181 180 197 192 261 249 236 232 184 229 212 132 202 150 142 120 131 108 120 178 194 244 181 356 240 317 313 308 359 407 379 347 333 326 316 321 318 331 303 293 307 295 296 296
185 182 186 192 236 123 233 244 225 160 209 192 173 141 145 128 138 152 138 147 199 164 278 168 293 319 306 304 345 382 357 329 319 313 315 311 307 310 307 296 320 292 304 313
181 192 185 195 224 226 152 141 134 217 205 199 147 154 94 123 165 101 182 121 186 164 248 220 347 257 318 303 296 345 342 310 315 310 304 300 298 292 312 297 306 326 286 300
169 187 185 193 224 212 240 237 134 210 201 184 176 169 125 123 110 135 151 143 168 186 170 153 241 330 318 308 299 366 335 325 315 319 303 292 298 292 290 309 282 296 296 285
184 188 184 196 217 214 141 224 215 205 134 143 167 171 127 133 155 172 166 116 149 229 194 217 258 343 328 320 306 295 357 327 319 320 303 290 290 285 282 289 290 300 300 299
184 187 185 205 217 212 227 218 212 171 182 139 187 169 153 126 166 134 166 130 152 219 230 235 211 261 342 320 321 305 413 337 324 320 312 309 289 275 276 277 276 286 302 296
184 185 184 217 212 211 223 212 185 193 190 139 181 174 149 153 92 144 159 172 174 150 232 194 253 223 298 336 320 311 298 346 326 316 306 312 306 279 277 273 271 279 283 281
185 183 187 216 215 214 219 214 205 194 191 190 148 107 143 112 133 160 138 141 213 140 227 215 202 192 252 284 330 320 306 308 330 316 310 310 285 290 288 286 265 270 272 275
184 183 192 217 217 212 214 212 198 190 189 184 144 119 139 150 142 134 131 150 220 153 225 173 232 243 248 249 349 321 316 304 304 319 310 318 311 297 287 278 268 275 269 263
182 186 202 219 216 214 211 214 195 188 190 181 177 141 125 148 97 201 147 221 229 149 145 222 229 247 238 243 235 261 318 310 298 284 312 307 302 303 278 281 282 275 273 284
183 185 213 215 214 217 216 214 192 185 181 165 169 137 154 112 148 93 136 222 168 143 153 144 193 241 231 218 247 261 348 317 308 295 280 266 305 307 294 289 291 297 310 276
182 188 219 202 214 228 223 155 108 195 126 111 167 117 142 128 134 159 136 166 199 194 183 183 236 227 248 228 247 244 269 356 312 301 293 285 271 287 305 290 287 290 295 279
185 197 195 194 204 241 221 192 187 192 184 175 99 135 123 178 162 145 177 211 150 205 164 225 147 240 227 227 230 245 244 283 359 321 301 291 281 271 266 296 289 287 289 290
187 200 193 194 199 119 195 185 190 191 183 165 140 157 118 151 136 172 165 140 154 171 135 154 212 217 246 223 238 231 219 253 256 361 322 298 288 280 275 269 262 289 284 300
183 191 191 196 196 193 191 190 191 189 151 141 97 143 140 135 204 198 171 154 169 145 214 180 203 222 234 232 238 224 237 237 244 281 270 322 301 284 278 273 267 267 260 285
180 184 191 194 192 185 184 192 191 173 140 140 137 128 171 137 167 138 149 149 143 145 183 200 227 209 209 244 232 242 221 246 252 263 273 331 325 301 287 277 272 266 264 260
173 182 188 192 185 174 190 185 154 160 133 140 137 168 186 186 199 183 215 143 163 138 153 141 188 230 228 224 235 234 233 232 247 245 250 273 353 330 300 289 279 273 269 261
184 179 177 186 191 185 185 152 139 155 134 184 154 115 152 192 138 140 195 132 154 156 148 228 226 234 216 208 231 237 228 239 225 257 253 259 277 339 326 308 289 281 277 271
177 180 181 183 187 189 187 174 161 138 186 146 184 153 135 160 111 175 136 156 177 173 168 161 210 231 220 209 220 232 230 239 219 225 252 237 288 351 337 321 307 294 283 276
178 181 187 185 184 177 161 145 156 144 158 164 149 158 183 160 140 132 151 142 150 183 171 165 223 209 236 219 224 242 216 226 220 223 242 249 311 372 341 329 317 306 294 285
179 180 181 183 186 147 147 141 171 146 165 186 136 187 146 146 202 133 173 163 222 126 190 222 218 218 234 213 226 245 207 231 240 221 244 251 275 409 363 339 318 314 305 295
177 175 183 184 177 147 157 164 149 145 163 158 167 178 165 154 139 139 137 151 146 206 214 224 224 218 229 210 223 247 232 224 214 232 240 256 269 379 399 356 334 313 304 300
184 187 181 151 172 145 161 145 143 148 160 147 173 159 193 143 201 186 195 179 137 189 195 221 222 219 223 210 228 241 226 219 249 222 240 260 269 347 431 379 346 323 305 302
163 164 156 150 165 163 165 145 157 144 149 173 179 137 198 196 181 208 165 224 226 213 228 211 226 227 226 203 231 225 216 211 243 233 252 254 318 344 423 408 361 333 313 300
157 165 147 163 165 172 142 168 156 160 167 194 149 189 197 199 132 188 205 212 214 227 230 230 216 229 228 222 238 225 222 210 226 219 254 259 352 356 414 398 380 346 319 303

GFSNW_2pvu_pres_105.txt.gz
Presure
184 222 191 199 211 194 182 186 213 239 121 120 222 214 206 183 153 135 131 166 166 190 160 144 344 324 319 371 383 376 365 378 353 330 322 340 334 351 321 315 306 302 306 313
219 188 205 171 191 193 138 186 251 210 239 139 220 202 139 173 161 124 116 116 136 134 137 236 264 331 318 369 387 368 336 355 366 317 323 342 336 333 345 296 286 296 307 322
228 200 190 188 189 191 182 186 241 239 240 138 193 205 197 190 148 140 135 151 115 156 210 203 354 336 323 313 390 382 352 342 331 320 337 337 342 318 313 302 298 312 303 340
216 179 191 215 183 195 182 196 212 244 232 139 210 203 195 184 186 125 158 135 141 129 225 155 299 342 329 311 357 367 339 341 336 322 320 314 320 300 301 301 305 303 291 316
203 177 207 187 183 190 190 217 247 132 224 210 206 197 148 178 170 113 149 173 155 241 206 133 169 356 335 325 303 350 325 323 316 309 311 312 322 316 293 286 294 297 296 294
193 185 218 186 179 192 191 221 247 231 216 135 204 177 143 181 144 167 121 147 135 136 214 242 146 302 353 329 314 355 347 319 315 312 304 302 305 302 309 311 314 281 291 285
192 175 183 187 182 190 191 219 234 220 211 209 182 177 132 177 159 128 148 166 151 165 131 190 178 255 284 348 327 305 346 327 312 303 300 294 300 295 293 295 292 304 319 279
193 192 191 180 184 186 191 217 227 216 208 206 200 177 132 147 165 155 138 153 148 154 169 157 225 172 253 286 332 328 334 332 323 311 304 291 294 302 290 287 302 298 295 294
183 189 192 180 185 186 192 213 222 179 209 201 190 186 178 172 162 143 131 151 131 180 161 151 137 171 246 249 281 339 327 348 340 333 309 296 297 294 288 284 288 295 291 315
198 184 186 185 185 185 202 212 217 212 213 197 179 187 178 174 154 163 150 108 180 210 174 151 197 234 197 214 237 278 334 330 338 323 318 303 292 294 289 284 277 281 287 290
191 180 190 187 185 187 212 212 214 210 210 196 164 185 150 170 170 138 127 170 125 164 156 227 185 222 214 232 245 239 273 284 327 313 334 315 321 303 286 280 277 280 275 276
189 182 192 185 185 189 218 213 214 209 209 193 184 184 176 140 141 146 102 148 142 216 203 189 244 167 231 232 241 245 255 253 248 281 313 298 335 322 294 286 296 280 269 269
182 186 174 185 188 190 221 213 215 213 208 130 183 182 171 158 188 125 156 162 187 180 143 197 154 228 184 218 231 224 222 242 240 329 310 314 297 280 310 305 292 291 283 272
170 191 184 185 186 206 221 213 217 216 193 145 192 151 147 146 156 123 172 153 112 146 151 151 150 191 169 229 228 236 228 236 245 256 267 319 319 302 287 308 309 295 283 279
180 187 178 189 188 216 223 216 226 227 192 180 193 185 148 144 133 150 141 152 168 118 159 215 110 201 154 213 210 241 239 216 251 232 252 267 249 319 304 286 278 305 297 292
162 195 172 187 188 221 199 220 230 203 189 97 185 179 105 122 153 94 128 158 181 186 136 156 161 227 169 158 227 212 143 230 236 214 229 262 274 270 314 303 287 275 295 291
180 200 187 192 192 197 198 201 199 197 97 181 187 158 149 142 102 147 136 115 200 178 205 188 206 211 150 226 232 215 225 200 227 235 242 233 261 269 270 315 303 289 277 272
175 178 184 176 187 198 193 199 202 199 192 184 154 167 119 139 133 140 142 206 177 174 156 161 153 224 185 164 206 219 233 227 223 240 213 236 259 260 311 331 319 300 288 279
179 174 190 180 185 188 193 196 203 194 199 158 149 142 165 121 148 135 143 164 114 172 144 136 151 153 181 188 220 209 211 239 228 245 225 227 237 265 245 301 364 323 302 287
186 180 185 185 180 184 188 193 195 190 187 157 165 148 191 176 128 168 136 104 131 185 197 149 165 175 185 215 232 207 238 220 228 213 179 233 233 247 262 235 364 357 326 304
175 187 170 186 188 185 184 190 190 184 163 155 142 158 174 139 158 134 127 188 169 188 142 155 169 222 171 213 233 206 226 213 227 136 246 226 237 227 258 265 299 375 354 331
179 187 175 182 187 188 188 189 185 191 146 175 167 142 167 194 142 135 187 137 196 176 199 160 185 149 183 213 230 232 221 237 243 218 234 210 248 237 274 265 308 369 372 350
177 186 189 183 186 182 180 148 176 146 186 190 141 155 145 150 186 167 156 188 195 164 141 142 190 218 222 212 227 212 216 221 230 206 217 188 242 230 264 254 255 313 421 366
173 188 174 171 177 182 185 172 140 145 171 156 157 135 105 152 168 156 199 131 139 137 217 202 215 219 221 216 235 231 213 236 219 229 206 222 231 228 247 258 354 326 339 399
179 191 183 183 181 188 167 176 145 156 184 146 146 147 156 136 149 140 128 154 180 140 170 194 219 212 205 217 236 232 221 229 213 233 220 215 212 226 256 268 344 334 343 411
163 178 186 183 152 188 178 186 155 155 158 172 163 163 152 180 170 137 200 130 133 172 180 187 210 226 232 218 222 245 216 232 224 230 212 237 241 227 253 274 341 356 380 421
164 189 181 173 177 165 161 156 154 146 158 158 152 143 195 151 202 168 200 203 190 204 187 225 229 207 220 197 217 239 212 227 241 223 226 235 231 259 256 294 342 392 430 415

GFSNW_2pvu_pres_108.txt.gz
Presure
262 162 166 251 183 193 206 170 189 159 195 171 258 132 215 159 125 95 194 107 197 167 116 285 273 156 359 390 367 374 384 389 348 334 331 335 350 329 330 312 320 315 326 320
235 235 172 213 204 211 137 170 193 192 196 211 248 172 127 141 142 185 168 107 158 146 140 181 148 335 329 389 366 368 339 343 333 332 345 334 327 345 317 321 308 318 323 326
242 190 177 195 235 217 197 198 192 195 191 191 240 158 169 198 154 192 139 127 161 166 151 202 138 355 179 388 362 369 348 335 321 335 320 335 325 316 321 317 327 317 310 312
244 179 203 232 230 199 195 186 194 196 149 242 231 212 128 192 172 137 180 140 122 161 113 272 261 139 348 238 350 361 367 340 334 332 329 341 332 312 309 302 319 310 331 327
238 173 173 182 196 203 182 188 190 190 247 240 221 212 126 155 153 118 96 150 132 164 117 139 223 123 309 246 362 342 338 323 327 331 324 315 319 322 322 310 312 314 294 310
197 168 216 176 199 207 179 184 188 197 249 234 214 200 177 175 158 157 132 133 154 175 133 233 175 148 265 290 356 339 328 322 317 318 313 311 317 322 312 298 297 303 295 283
188 170 178 174 185 198 179 195 193 192 230 228 213 200 190 173 139 178 165 149 179 147 180 194 185 197 129 196 335 374 335 330 323 318 322 324 295 298 294 296 293 298 298 302
173 178 200 181 182 193 199 193 191 190 227 222 210 194 190 183 130 182 158 131 133 130 128 149 205 172 231 257 248 279 368 337 325 313 321 311 307 315 320 321 325 324 294 297
175 172 202 207 191 181 198 184 193 205 227 218 206 193 187 184 175 168 171 134 149 230 177 156 137 145 170 208 156 231 271 276 351 324 319 322 311 306 300 307 294 311 307 329
194 178 211 189 182 192 195 184 191 212 226 218 205 193 187 186 175 169 162 137 165 158 180 140 170 204 183 217 225 252 241 243 342 344 326 314 312 307 301 298 295 303 290 302
205 180 217 189 188 199 195 191 191 213 222 217 205 194 186 181 183 185 175 166 170 147 116 178 168 150 228 230 233 207 238 244 243 269 353 338 314 301 303 302 300 292 294 300
186 176 207 198 185 195 190 191 193 214 215 214 207 192 177 179 134 154 150 171 146 208 142 199 224 162 166 159 214 246 176 234 227 256 269 266 298 347 317 306 293 294 285 289
159 160 178 199 183 189 192 190 193 213 214 215 202 194 184 181 160 173 146 125 104 195 147 157 150 125 158 184 192 212 232 229 232 220 243 231 261 265 300 345 320 295 286 286
172 185 198 205 181 194 186 189 200 214 214 217 203 194 161 183 165 170 139 175 116 118 130 133 151 151 166 190 222 221 235 231 231 233 205 232 237 267 267 284 328 316 316 298
174 182 184 189 184 176 184 189 201 215 213 221 161 192 195 183 152 148 143 158 158 137 200 141 147 215 213 212 202 245 203 223 224 228 245 229 238 227 255 270 297 325 313 326
160 197 180 201 172 193 176 187 215 213 215 228 194 190 191 177 155 125 143 155 127 127 139 158 179 139 227 192 179 220 203 230 220 210 218 239 230 229 227 247 272 294 324 312
158 168 183 190 164 170 187 189 218 210 226 199 197 183 183 188 171 146 115 145 121 157 151 136 151 195 204 214 195 232 176 244 216 223 230 230 221 226 238 249 247 255 300 329
161 159 166 187 180 194 193 191 193 194 196 194 194 189 166 139 157 153 157 150 158 158 145 151 163 158 158 204 207 205 236 217 214 219 236 231 229 218 249 246 264 249 388 298
155 165 162 177 170 190 171 186 192 194 192 196 197 187 118 158 175 137 141 128 147 170 160 133 144 163 220 223 195 219 205 223 243 219 253 213 229 236 238 249 179 233 280 298
161 175 178 170 167 182 179 185 189 190 196 191 189 181 173 168 144 155 148 165 128 150 141 138 145 208 202 168 158 207 217 221 211 211 242 211 239 234 233 183 259 260 245 286
182 178 162 164 182 177 195 185 180 190 189 193 156 181 188 156 127 152 159 173 162 186 118 184 151 141 177 211 201 222 219 204 234 215 221 227 219 230 219 240 234 237 244 258
205 171 170 171 184 186 177 185 188 187 184 190 172 147 163 174 142 145 145 144 137 190 130 141 167 151 199 199 196 212 199 209 240 211 229 211 227 226 196 220 248 262 242 255
193 185 205 195 170 161 197 174 186 187 191 195 193 149 141 179 161 172 167 152 128 168 201 199 181 193 189 209 199 175 222 213 220 217 229 211 225 242 165 228 240 235 267 251
193 204 171 187 159 174 189 177 199 196 188 147 189 182 156 149 186 142 153 142 166 190 148 143 144 194 180 185 201 214 213 227 217 222 220 224 225 239 222 236 238 240 278 246
221 215 180 163 194 177 178 200 188 164 195 188 158 140 187 153 147 166 183 165 185 171 138 144 182 165 162 156 171 201 211 235 230 216 223 246 218 241 227 224 218 258 270 252
209 174 201 194 177 177 181 190 189 195 197 158 191 143 156 167 160 132 131 143 162 164 169 172 200 188 210 183 204 220 201 213 239 232 235 234 207 162 229 219 243 257 258 327
166 160 204 180 173 174 201 202 197 156 158 157 162 185 136 142 180 196 161 176 139 165 145 209 199 209 187 153 222 210 224 185 231 177 245 213 240 152 235 224 248 261 261 333

GFSNW_2pvu_pres_111.txt.gz
Presure
284 277 235 252 242 240 238 234 220 200 172 187 199 197 242 126 172 190 206 97 150 138 126 186 122 394 370 398 377 358 386 332 327 327 359 337 346 311 311 308 318 321 286 266
275 248 250 239 251 238 175 223 198 172 199 208 187 249 219 209 140 205 146 156 142 141 152 142 252 375 282 283 366 382 346 322 325 330 339 356 337 322 310 315 317 333 325 270
253 248 241 249 232 210 234 218 189 184 190 174 215 242 215 186 138 193 131 193 134 133 195 172 195 254 132 400 367 339 340 329 332 346 329 342 353 340 307 310 310 321 347 299
243 238 243 234 172 236 182 193 192 179 191 198 250 218 209 134 156 174 195 149 190 142 141 136 149 115 335 344 371 354 345 337 331 331 337 326 338 360 306 297 304 305 323 328
242 241 247 234 230 207 219 209 185 196 177 190 195 214 134 132 190 137 137 141 103 135 167 133 140 96 144 138 365 327 354 351 347 352 351 326 320 324 332 345 352 323 334 321
237 246 235 226 227 193 190 181 208 190 191 201 223 213 198 194 190 189 120 174 173 151 164 244 230 246 120 213 291 347 353 343 348 353 331 325 326 320 327 322 322 332 346 350
247 238 228 169 187 208 189 197 201 181 189 245 127 211 197 190 189 186 165 169 138 152 171 132 125 175 241 199 197 264 286 351 343 331 333 337 323 325 327 320 320 326 334 322
235 236 226 199 206 202 185 209 189 192 191 230 217 208 195 191 187 185 182 160 136 163 228 177 185 176 143 249 248 155 269 272 279 294 343 334 319 328 319 321 312 311 314 305
232 170 167 183 214 204 188 203 187 191 190 225 217 205 190 189 188 187 190 188 133 148 181 143 136 231 224 242 220 239 242 241 269 267 337 352 345 323 318 323 317 306 314 327
230 204 185 210 172 181 177 201 178 189 220 222 219 202 190 189 168 179 170 180 135 141 183 140 128 171 237 187 226 246 235 255 227 243 241 256 262 316 330 338 318 316 323 304
234 228 187 187 206 196 181 193 196 187 209 222 218 204 192 187 180 174 167 181 183 117 157 132 190 210 220 238 187 217 224 207 233 255 258 256 251 263 339 330 320 325 329 310
228 208 174 169 190 203 198 185 198 189 208 220 217 208 189 182 182 172 161 151 138 161 133 139 169 154 210 144 238 226 238 215 231 232 241 252 259 265 253 289 336 328 328 315
233 201 202 167 203 202 184 180 193 188 209 215 214 211 189 184 178 172 165 147 161 167 122 129 153 199 158 204 226 186 227 234 229 231 227 239 240 237 262 252 254 257 325 323
226 161 209 188 176 180 174 179 193 191 212 213 212 212 192 189 187 165 160 155 174 136 148 134 188 149 211 206 208 195 221 207 214 227 214 217 234 240 235 253 250 238 256 271
221 190 169 163 175 206 200 196 187 189 211 214 212 214 95 183 163 161 117 164 162 158 170 203 168 177 117 206 191 189 224 223 222 219 230 219 185 210 180 235 229 252 260 245
224 182 203 166 203 168 202 184 185 188 210 214 214 222 193 187 178 153 165 147 165 190 142 144 162 144 185 182 227 214 185 206 238 218 187 205 227 213 243 219 248 262 251 255
171 221 172 159 181 204 201 198 170 182 208 215 211 224 197 189 184 140 120 122 180 116 183 152 126 172 149 160 204 173 213 201 190 235 212 226 202 253 209 227 215 239 171 241
156 192 161 188 175 169 202 172 191 186 210 214 215 221 197 194 180 159 165 99 156 157 189 147 171 142 156 192 191 186 215 218 219 195 227 213 230 210 246 229 227 218 248 254
162 201 159 189 169 164 203 180 186 184 193 196 205 196 194 201 155 177 173 144 116 163 108 152 138 124 172 181 202 218 205 197 214 226 200 212 208 235 231 222 231 230 222 240
225 182 157 161 162 168 173 189 188 177 189 192 190 192 190 180 184 164 178 137 152 174 148 148 147 190 140 162 211 155 216 208 197 210 208 203 224 203 199 228 233 234 241 244
226 155 162 163 215 178 174 182 178 179 177 189 195 205 194 188 189 172 156 144 126 146 153 159 148 141 165 150 170 158 209 219 219 171 219 181 206 228 220 191 223 224 232 216
219 159 170 172 158 187 167 165 182 176 177 187 188 191 196 176 191 169 176 164 154 157 131 153 135 197 174 152 205 185 171 196 219 199 201 200 206 198 223 237 233 228 242 221
154 183 206 163 189 162 172 159 171 184 183 191 187 186 181 175 176 179 135 144 147 156 179 146 164 188 146 168 204 185 179 170 194 213 182 203 217 211 221 183 223 241 229 239
171 197 161 218 162 194 166 164 176 174 175 187 188 192 190 161 168 155 142 153 137 142 179 148 175 184 141 147 181 189 205 196 207 222 210 222 229 195 227 224 221 215 203 235
234 224 213 168 162 208 182 179 183 169 186 193 191 186 188 194 161 167 149 154 150 151 181 158 157 147 152 178 202 211 187 207 223 202 188 218 196 181 192 199 213 212 239 231
238 203 161 210 161 195 190 161 185 203 200 186 190 197 180 193 179 152 173 152 182 126 156 161 155 174 158 152 178 205 184 199 174 213 220 208 171 234 217 235 222 219 236 231
239 221 189 222 177 192 183 177 174 188 190 198 170 189 199 149 148 150 150 144 130 151 180 132 173 204 146 197 169 194 205 182 181 164 220 219 211 189 222 244 244 246 256 243

GFSNW_2pvu_pres_114.txt.gz
Presure
300 283 274 265 255 244 234 246 237 234 231 173 234 208 192 202 214 219 139 133 188 108 166 218 148 138 344 280 295 339 344 361 351 328 355 335 325 356 327 335 291 275 289 279
276 259 264 260 249 254 240 232 223 234 222 208 189 191 198 209 215 202 201 181 90 136 190 147 243 137 325 363 357 354 329 339 335 357 341 361 330 320 309 324 347 269 264 274
262 264 252 254 242 235 238 239 213 204 197 208 199 200 155 216 209 134 132 174 144 201 166 153 175 254 191 256 147 347 351 341 341 346 350 345 322 320 310 321 355 276 264 265
268 256 246 241 233 240 238 227 207 202 204 144 185 220 220 208 209 133 198 152 130 158 123 145 153 155 153 303 354 295 353 346 342 340 344 349 353 314 313 314 339 316 269 267
244 240 235 243 243 237 220 207 205 210 199 198 197 228 214 205 199 142 145 142 122 204 241 197 161 249 257 100 180 359 353 367 363 336 340 342 345 345 319 325 331 347 355 278
240 248 238 231 233 228 190 191 190 195 195 198 207 220 206 198 198 192 199 148 169 143 151 143 209 240 235 173 273 157 343 336 346 335 341 338 351 351 362 347 337 344 362 351
253 239 247 235 233 212 204 195 187 190 195 187 233 213 134 198 193 188 193 167 102 151 165 145 210 137 142 132 240 251 263 200 349 329 343 325 341 334 344 361 358 355 349 348
238 242 236 233 227 203 187 200 180 197 183 200 227 208 199 196 192 187 112 176 141 147 119 194 155 160 232 172 231 126 239 241 267 259 268 328 333 331 325 329 322 321 350 352
244 241 232 227 179 216 192 206 188 198 183 228 221 207 199 192 189 185 176 187 154 180 127 172 170 230 212 179 139 131 225 244 223 262 277 251 266 319 332 329 328 330 328 327
239 238 232 218 198 182 177 199 202 188 193 218 221 206 197 190 184 179 178 157 169 141 135 131 175 119 210 183 234 239 173 219 226 230 216 262 273 252 270 280 340 325 335 355
239 234 193 221 178 180 173 168 197 175 186 212 218 209 195 192 180 177 178 168 156 109 137 128 186 165 174 202 169 218 212 196 227 233 238 242 241 244 262 259 263 258 290 351
233 230 171 216 200 192 205 177 204 192 190 208 217 213 194 189 180 178 176 168 165 187 117 139 182 158 121 205 171 201 204 217 213 222 243 218 234 216 214 267 267 260 264 255
154 232 228 207 176 181 205 178 196 191 190 216 215 217 195 189 180 175 170 166 144 170 173 156 138 152 124 198 142 219 208 229 196 207 229 217 244 232 239 212 243 255 266 265
236 222 224 194 215 179 200 202 172 192 192 210 214 212 209 190 189 184 171 160 165 168 166 126 133 135 203 156 212 220 210 175 213 218 205 219 215 203 225 238 224 230 223 251
244 211 217 208 214 182 193 195 186 184 192 206 211 212 214 192 191 188 172 154 153 160 172 154 145 126 149 187 186 159 196 216 195 184 206 208 205 223 230 233 251 213 224 232
248 242 221 214 176 190 168 194 203 187 187 210 210 211 211 212 183 179 174 162 133 173 147 159 185 176 153 156 214 172 187 202 192 226 163 211 198 204 199 223 205 206 233 230
253 193 213 161 161 164 136 177 189 189 182 187 212 210 211 214 189 180 173 164 165 151 158 173 164 179 126 181 169 207 200 210 182 211 181 198 186 213 207 190 219 218 209 229
186 246 196 178 213 208 156 177 195 182 179 179 214 211 208 213 220 176 173 166 169 173 111 152 137 152 137 180 139 201 205 181 194 184 204 201 178 202 188 185 226 197 213 231
248 212 253 160 152 167 187 186 196 190 192 181 208 214 208 210 205 188 175 169 163 131 159 152 158 147 168 142 142 163 183 182 214 161 201 192 201 203 217 186 171 218 206 212
263 159 248 237 208 163 193 160 166 173 179 179 181 201 206 197 191 193 184 173 199 135 152 159 138 161 151 133 143 145 178 184 150 176 180 198 215 170 216 179 177 193 186 234
256 250 160 249 173 158 176 194 170 190 175 193 193 207 198 196 191 191 180 171 167 150 159 140 121 141 178 162 153 180 182 187 169 207 179 221 192 208 222 211 182 227 207 204
253 231 159 198 167 184 177 164 180 168 193 188 189 189 198 199 202 206 181 186 170 146 143 148 157 147 162 177 140 173 157 187 174 196 180 212 222 200 223 191 181 178 219 201
250 254 233 230 160 171 161 157 166 153 159 179 197 183 190 198 202 192 194 182 172 174 141 165 151 145 159 172 147 198 148 198 185 191 170 184 193 198 170 192 178 209 232 216
251 258 195 182 247 161 153 158 192 192 190 191 179 192 182 186 185 185 179 190 170 152 165 164 146 142 127 135 155 145 159 149 153 205 178 201 210 195 235 221 218 221 195 215
266 266 265 176 245 157 159 194 180 162 164 162 170 177 173 187 198 192 180 187 157 151 147 159 186 151 179 154 193 140 150 177 168 217 216 212 223 214 170 212 223 233 206 205
274 266 264 174 246 156 192 189 172 177 161 171 179 178 180 182 196 200 175 191 189 180 159 131 150 154 163 160 163 181 196 151 213 197 160 221 172 197 205 219 206 236 218 229
267 258 264 235 245 160 171 166 189 173 173 161 184 164 182 194 181 183 173 191 201 155 151 154 180 156 146 146 149 148 143 168 213 199 198 217 211 194 195 207 234 238 207 198

GFSNW_2pvu_pres_120.txt.gz
Presure
256 248 246 227 246 239 237 237 232 235 227 222 220 207 215 177 208 220 202 202 208 164 271 316 117 155 342 358 354 348 324 314 311 330 321 336 304 325 339 357 318 324 311 292
252 243 236 248 228 225 230 235 227 226 220 214 211 193 199 214 217 206 220 181 254 229 254 175 209 155 304 354 360 359 349 324 327 323 315 309 323 310 318 284 306 316 299 283
183 213 232 233 242 224 228 225 216 219 200 211 201 219 212 212 209 194 212 190 176 186 249 134 156 135 263 297 330 353 348 366 325 326 312 328 311 309 324 318 323 268 313 279
200 198 243 234 225 228 225 218 216 206 207 206 223 214 212 208 198 189 167 153 179 221 170 206 207 182 311 195 229 359 360 372 357 336 331 331 338 323 305 315 312 287 267 272
238 247 239 227 229 218 216 211 208 211 201 219 181 208 207 204 196 181 163 203 226 155 176 222 128 112 258 131 298 352 346 372 377 349 336 338 343 333 342 319 328 301 279 273
233 237 235 235 216 218 205 211 210 211 210 189 209 204 205 198 190 192 172 194 183 210 167 140 183 124 233 194 182 252 263 344 358 372 366 347 330 330 338 346 321 299 278 268
241 193 235 225 219 206 212 209 184 204 191 215 207 202 200 195 189 180 168 180 195 207 208 116 183 206 121 116 213 253 266 253 262 299 355 371 366 361 351 355 347 326 291 276
233 231 234 221 212 207 155 200 202 200 219 211 205 201 198 195 188 181 177 176 182 180 194 138 142 202 135 227 208 127 175 248 252 247 241 272 359 345 346 362 351 346 329 295
254 207 233 230 212 154 205 176 201 188 223 200 204 204 198 193 187 184 174 181 193 160 150 140 150 118 144 132 145 147 141 224 255 241 241 273 235 253 268 368 375 379 354 288
258 238 214 232 211 217 207 201 177 175 201 217 202 203 198 193 187 182 178 172 178 159 190 191 187 202 163 140 192 127 150 212 214 227 231 240 261 232 242 242 233 342 405 342
269 255 228 233 223 206 204 206 192 174 202 204 209 203 200 195 188 184 178 176 153 183 169 174 152 180 193 167 191 120 177 139 225 227 214 208 230 221 237 233 235 249 237 235
344 260 259 217 206 165 197 207 186 192 179 219 221 207 203 196 191 185 178 178 159 108 115 150 185 196 187 197 174 143 141 158 211 136 243 234 217 238 237 223 248 244 217 240
389 319 270 228 238 230 149 207 201 198 168 175 220 218 204 201 194 185 180 178 170 166 171 155 142 168 154 198 164 164 167 208 235 148 207 211 192 182 223 201 210 232 207 238
362 502 278 244 198 236 227 147 205 181 171 195 196 211 215 206 197 187 183 180 176 178 161 168 161 140 152 143 180 166 147 182 114 169 193 209 207 178 210 223 212 220 192 216
381 303 322 269 240 201 232 164 211 168 203 187 185 210 217 208 204 197 184 189 180 174 161 169 159 161 149 160 124 128 182 128 145 200 157 177 217 215 170 198 187 188 203 223
299 336 418 281 260 229 154 229 147 184 176 184 184 208 221 221 209 203 197 191 183 176 171 170 167 152 166 160 156 156 160 168 155 171 213 209 243 231 226 169 190 132 240 183
344 366 286 362 278 258 246 208 228 170 204 186 191 176 191 219 214 210 203 199 193 180 190 163 150 171 138 123 163 166 161 147 125 159 181 179 201 226 227 191 218 225 174 150
349 360 298 337 285 261 251 161 227 176 209 193 200 170 180 197 210 212 210 205 188 180 184 171 176 159 151 164 148 172 127 165 173 154 194 194 178 164 162 210 217 211 206 215
348 368 371 182 299 270 243 244 153 225 203 203 168 193 173 181 199 209 207 210 207 217 185 163 158 166 145 116 153 150 159 156 130 196 184 169 165 169 184 195 177 221 196 212
353 354 366 350 330 276 257 244 240 152 230 200 165 187 205 185 180 208 210 207 209 209 212 184 197 138 160 136 162 150 142 152 168 148 156 144 176 182 188 182 163 198 183 198
355 356 365 343 282 271 276 254 259 167 201 194 162 179 175 184 174 179 208 209 209 205 205 190 173 184 169 156 161 131 201 159 133 170 149 144 154 157 192 189 167 183 224 183
358 363 371 341 314 331 296 277 259 198 149 218 161 164 178 178 193 188 187 203 209 208 209 191 197 195 165 176 164 165 140 142 180 164 144 149 153 159 185 164 167 209 212 213
350 355 368 343 338 313 362 291 269 265 157 157 185 172 166 153 180 203 194 185 205 209 209 206 194 195 147 187 194 191 152 165 162 130 154 160 154 163 147 152 163 214 208 169
335 349 359 345 330 337 284 305 261 255 245 160 165 187 172 154 187 189 174 173 190 193 196 208 201 200 200 196 180 157 194 148 157 126 157 133 146 161 150 166 155 219 186 190
330 328 352 359 328 300 332 342 279 254 245 238 225 156 168 195 192 186 190 180 168 176 199 205 200 166 207 199 177 177 181 189 157 202 153 149 143 168 159 151 157 198 203 178
321 311 208 345 355 333 344 323 305 260 253 219 245 208 226 177 154 177 179 186 183 193 198 201 197 185 197 192 196 174 183 129 159 150 178 194 180 152 193 191 168 198 216 191
311 301 306 310 334 333 409 357 359 280 249 243 242 169 161 184 166 148 178 160 192 177 189 190 176 178 177 185 182 182 207 135 128 158 208 141 199 168 166 201 210 157 163 167

GFSNW_2pvu_pres_123.txt.gz
Presure
190 235 234 242 233 231 227 222 219 208 137 202 209 200 216 209 215 206 197 244 240 145 375 373 213 363 364 371 333 339 311 326 316 317 322 323 309 303 294 325 286 290 319 338
220 216 232 226 221 222 216 218 216 213 201 211 198 202 209 207 200 230 228 216 225 280 241 253 300 132 113 351 333 336 315 310 318 306 310 324 296 289 290 301 313 303 301 314
234 232 202 182 218 216 214 217 207 207 206 193 212 207 205 197 198 179 230 240 234 190 223 166 161 365 159 237 281 344 327 322 323 319 320 322 308 297 292 279 281 308 287 281
254 217 212 221 212 212 212 203 208 212 213 213 207 207 198 189 191 186 221 206 179 229 247 267 190 131 311 117 399 351 344 337 334 319 318 315 323 297 299 287 298 290 265 267
242 227 226 227 204 176 211 195 207 220 198 207 208 203 201 187 193 169 164 217 233 229 160 188 156 148 275 262 380 379 348 324 351 348 313 319 300 315 301 304 298 291 271 269
232 243 240 229 207 213 208 210 191 219 193 208 208 201 200 187 185 173 196 202 218 231 129 215 185 126 244 133 145 260 370 375 344 341 357 339 319 314 321 308 304 300 272 267
258 245 242 217 221 199 212 205 194 222 184 205 207 204 198 191 184 183 164 202 174 226 195 159 150 111 136 172 176 262 255 260 316 368 376 364 352 345 328 326 314 321 283 261
260 271 237 243 215 231 213 215 194 203 201 194 196 206 197 193 187 177 169 165 205 162 136 122 150 113 199 130 132 130 247 256 262 271 266 370 369 355 349 342 331 302 296 289
245 239 261 264 229 193 160 205 201 189 181 192 205 208 203 194 189 181 179 169 179 177 147 171 170 190 210 129 239 128 231 249 262 245 270 271 267 315 376 370 373 324 304 299
205 217 294 268 255 234 232 157 206 189 167 193 197 201 207 200 189 187 183 167 178 189 182 196 184 201 204 161 191 123 196 185 243 240 258 244 248 252 272 389 393 324 297 311
209 225 220 295 267 252 153 217 147 208 171 172 196 198 205 202 196 188 184 176 185 173 184 166 175 174 194 176 135 153 130 159 228 212 203 215 243 225 251 248 254 325 370 323
205 210 210 345 292 255 168 184 220 147 191 193 176 195 207 205 202 194 189 182 169 181 192 164 171 170 139 164 107 194 143 191 107 155 200 208 206 238 208 210 247 253 247 259
217 206 230 221 347 286 258 242 139 209 165 200 194 182 198 211 204 201 190 186 180 166 163 172 150 145 96 159 187 141 150 157 211 131 161 189 180 219 199 219 183 238 237 235
221 215 225 224 369 324 282 262 225 172 211 208 177 178 171 186 209 204 198 190 182 179 163 175 170 136 159 150 162 181 159 127 187 154 173 204 203 194 195 164 242 181 174 190
202 228 221 223 343 396 299 281 258 243 177 156 151 185 210 181 189 211 204 192 186 186 179 159 174 173 140 144 144 154 151 134 127 188 127 188 200 189 195 226 172 143 195 162
213 239 232 219 237 371 351 292 275 241 240 149 161 168 180 197 212 221 214 206 195 189 183 180 169 171 178 140 149 150 143 155 169 133 198 147 163 180 191 196 185 220 167 151
217 214 223 248 241 367 370 343 285 263 235 222 154 200 190 198 182 218 228 212 209 199 192 181 185 170 166 159 165 153 162 159 130 147 162 117 176 156 200 193 190 177 162 199
226 237 242 245 247 382 367 385 300 275 248 237 153 155 168 156 183 187 225 228 212 211 205 187 185 163 173 162 165 147 161 168 154 129 158 131 192 153 148 175 151 156 146 162
230 262 258 266 250 377 374 362 382 292 267 240 223 146 157 187 172 179 189 197 213 212 213 204 181 188 188 169 166 151 134 141 131 143 141 173 162 151 157 159 168 152 179 174
248 261 264 293 278 372 379 376 368 317 279 259 201 237 147 212 185 155 139 190 190 210 215 212 211 191 188 188 185 132 141 123 147 132 130 156 131 160 155 137 151 144 216 161
279 291 267 277 322 338 363 386 371 375 218 267 241 217 232 175 214 192 154 179 187 194 210 212 213 206 204 194 137 186 177 167 165 146 160 157 151 183 137 150 171 149 174 186
248 251 320 339 302 379 350 369 398 368 346 277 250 233 233 227 167 213 165 150 190 182 213 209 214 210 208 203 197 201 134 174 187 161 143 163 160 123 143 200 170 163 173 207
244 308 322 339 297 385 331 330 347 388 352 282 250 234 234 231 190 222 172 176 163 180 173 177 209 210 209 212 206 198 165 202 205 173 179 190 140 168 170 181 207 152 178 167
312 330 346 308 363 348 306 320 328 377 356 309 266 252 241 237 211 158 177 165 180 178 181 189 195 201 206 212 206 202 202 144 170 167 192 181 140 197 139 165 168 155 186 212
338 340 310 374 120 307 302 194 324 348 364 324 271 258 257 236 153 166 156 167 175 162 185 179 196 200 201 206 200 203 202 206 178 194 175 175 171 197 151 188 219 180 158 187
328 311 398 383 340 296 294 301 311 325 348 338 279 260 259 247 239 147 205 164 204 167 175 175 194 183 182 190 192 197 204 203 203 196 168 132 124 190 160 156 197 178 161 199
346 394 373 350 294 295 285 283 292 321 341 355 311 271 259 256 247 238 140 169 210 168 173 188 192 191 202 200 199 196 198 184 184 185 199 161 147 209 134 201 160 152 209 194

GFSNW_2pvu_pres_126.txt.gz
Presure
216 207 207 209 202 204 205 199 203 202 132 173 207 193 203 212 241 241 224 232 271 294 373 183 154 166 149 327 130 125 267 323 313 301 312 302 298 297 295 310 313 307 306 291
251 228 213 204 211 203 201 208 196 186 199 208 199 200 223 194 231 245 238 192 247 296 270 269 389 136 325 319 297 313 265 327 302 310 304 297 307 312 277 290 291 292 280 282
221 249 236 210 198 200 204 202 207 197 203 209 202 196 186 195 213 228 223 242 177 178 276 147 152 390 395 338 259 227 308 329 312 291 283 295 297 290 293 283 283 278 283 276
218 223 237 199 207 199 205 211 199 198 201 207 200 200 186 184 216 218 194 219 234 152 236 148 138 132 331 173 346 341 326 322 310 302 293 292 291 290 283 288 293 257 272 267
204 219 208 263 222 221 153 200 218 192 177 205 204 200 195 188 193 185 175 203 134 232 235 154 127 270 106 263 356 327 345 320 330 310 303 291 297 289 288 282 292 266 261 270
176 209 194 215 169 237 225 224 182 215 189 204 200 203 196 190 187 189 196 195 191 174 153 130 132 133 129 181 148 271 367 353 336 328 326 306 301 295 297 287 293 265 268 262
187 180 211 216 215 268 247 235 214 217 181 206 201 199 198 193 187 171 184 206 197 213 190 224 213 107 145 172 134 253 259 300 373 357 327 325 315 306 301 298 273 260 265 259
195 203 195 207 218 215 276 242 154 209 199 208 203 204 198 197 190 184 177 187 185 210 209 146 207 193 206 124 161 134 161 262 264 289 382 368 339 316 302 292 301 271 273 269
176 194 197 213 203 226 229 281 185 244 204 177 195 209 208 199 196 187 189 178 161 159 181 176 152 123 140 126 132 219 159 120 262 252 264 353 372 365 343 326 301 294 273 247
190 188 205 171 214 224 227 244 278 164 237 201 178 186 178 209 203 194 188 186 190 177 200 183 176 146 106 193 166 193 124 120 225 255 226 250 306 388 397 360 342 305 278 277
192 208 200 172 186 241 240 229 288 272 232 239 195 198 193 206 206 205 195 187 190 180 160 180 139 158 155 145 144 123 216 119 188 180 233 224 250 275 347 301 322 297 267 277
204 202 195 226 224 226 248 253 275 284 265 239 170 199 181 182 198 205 207 195 186 172 180 168 160 185 193 169 131 183 138 220 189 227 174 181 203 232 172 254 270 275 278 295
173 192 218 212 202 268 285 316 242 317 280 251 226 230 153 182 188 212 198 207 194 185 181 152 174 168 168 159 140 167 141 121 187 121 183 217 152 219 256 179 254 256 256 261
181 191 211 209 217 222 243 250 245 394 310 273 244 193 228 177 219 180 214 204 204 196 179 180 169 159 167 111 143 141 143 145 193 130 196 185 202 199 208 186 177 143 214 242
172 185 187 197 218 208 236 226 315 372 374 295 268 240 152 225 154 190 184 212 209 205 192 186 166 166 163 144 169 165 141 150 145 171 134 165 143 182 208 191 181 198 240 205
216 185 189 204 229 266 223 238 299 309 389 335 282 266 238 179 191 192 210 182 219 214 206 188 188 178 163 179 149 143 152 157 135 152 130 112 153 133 178 166 219 168 171 155
198 180 178 211 235 285 262 240 263 305 293 394 315 271 266 234 233 163 183 187 191 238 214 209 194 189 181 162 148 147 162 184 149 153 163 135 130 122 158 141 163 154 151 198
202 198 221 199 219 288 278 242 295 302 315 329 378 293 266 257 218 230 165 166 189 189 235 210 210 201 193 161 179 179 180 141 163 172 150 143 171 149 163 143 148 170 162 156
196 217 200 231 219 276 273 243 292 302 327 310 382 330 268 270 245 215 209 221 163 192 189 238 212 215 206 195 189 186 160 170 150 178 172 139 168 143 136 169 202 142 153 191
172 216 220 203 216 251 321 294 304 311 302 348 371 355 298 262 264 237 222 152 171 173 188 205 215 210 214 217 208 189 188 188 183 166 154 132 162 168 129 129 140 134 152 173
224 204 197 209 219 228 341 317 307 313 289 335 334 352 343 276 262 252 233 172 167 181 176 181 188 205 212 210 216 208 205 197 184 148 159 165 172 156 173 162 185 141 148 160
224 210 211 193 212 298 239 279 301 284 289 336 342 341 366 311 271 263 195 229 239 205 187 189 193 193 205 208 213 212 212 181 205 197 189 200 204 163 168 167 173 152 179 134
215 209 200 210 208 284 239 329 289 275 280 354 341 318 365 359 292 267 263 238 235 242 157 154 168 189 194 198 209 212 212 212 203 211 203 202 192 190 206 191 129 177 182 138
212 206 211 210 271 327 239 309 294 311 360 363 341 316 336 378 336 290 269 258 229 246 229 144 170 161 189 195 191 205 210 213 211 212 211 201 155 210 182 168 129 181 140 131
195 214 210 208 268 288 242 309 352 350 345 357 332 324 323 352 372 318 282 266 226 224 231 191 191 167 207 212 185 192 197 202 205 209 211 164 210 214 212 139 127 163 133 133
222 211 233 286 265 269 307 359 359 341 337 350 325 315 312 334 378 380 301 273 250 242 225 187 164 203 167 189 191 202 199 198 203 205 207 201 205 205 206 196 168 183 160 166
220 242 238 242 249 258 319 375 380 370 335 335 329 311 308 330 347 390 322 273 249 249 159 143 205 169 202 155 181 192 177 183 183 184 192 201 198 198 193 179 140 182 179 132

GFSNW_2pvu_pres_129.txt.gz
Presure
204 189 228 264 247 194 165 160 207 126 188 179 210 188 195 212 210 241 244 241 244 198 168 168 168 165 152 146 125 313 311 301 295 306 329 308 296 292 285 290 303 294 291 283
180 207 218 236 261 254 221 199 223 214 209 193 195 202 205 195 224 228 242 245 238 153 236 193 317 350 136 244 291 320 313 310 316 295 303 305 279 284 283 289 291 295 279 278
206 187 185 233 205 230 260 171 207 179 217 214 199 191 207 181 182 219 206 229 221 236 166 207 242 248 329 177 329 319 242 299 323 290 302 296 282 289 276 280 285 273 270 270
165 201 196 205 238 240 154 260 245 213 189 199 217 202 190 199 198 178 214 193 186 172 240 210 230 147 255 147 339 341 274 308 292 317 296 294 279 271 281 260 276 259 265 252
192 165 191 213 204 252 231 259 161 241 199 200 223 216 200 184 196 171 145 212 191 223 228 232 173 151 245 184 388 109 319 314 303 311 296 284 280 269 257 271 270 281 268 254
190 195 183 171 219 236 256 244 274 213 243 200 200 186 213 200 194 192 197 182 164 175 219 210 140 132 150 202 168 343 241 226 308 303 284 293 281 269 276 271 276 269 249 250
181 193 175 190 197 259 219 253 283 272 251 241 204 205 195 211 203 189 201 184 196 181 174 159 180 189 133 156 195 130 157 400 347 326 306 282 279 274 270 256 259 260 257 241
164 184 204 189 197 217 291 230 283 295 273 237 200 194 202 221 208 205 198 180 192 190 170 178 200 149 227 126 186 212 217 307 211 383 337 318 280 267 267 260 260 267 258 247
182 179 173 176 203 171 254 184 209 362 296 272 254 237 153 195 205 215 207 189 199 198 176 177 212 156 162 147 147 131 201 238 212 391 390 346 317 279 267 273 251 249 261 265
188 197 178 177 175 198 169 214 217 249 353 299 269 251 238 173 195 199 215 207 179 199 162 193 177 202 188 190 137 185 140 131 222 183 149 410 326 315 317 257 264 222 227 252
171 165 201 168 201 191 213 176 284 239 260 355 296 263 249 238 216 206 197 205 211 179 180 189 165 178 181 142 207 139 213 198 233 220 147 277 297 300 294 262 263 260 257 170
202 200 182 164 186 201 186 201 194 211 247 294 347 289 257 248 235 163 211 196 219 213 167 188 190 168 151 187 186 129 163 166 120 223 185 199 233 245 299 280 268 262 265 263
163 198 187 186 177 174 174 178 205 198 206 241 314 375 281 252 246 227 192 206 199 217 212 175 168 175 150 150 173 175 159 121 207 175 182 109 199 211 185 237 253 258 260 259
181 172 200 184 182 202 179 202 214 209 202 317 260 317 328 273 250 246 225 198 218 200 214 210 183 183 162 161 162 150 164 140 133 134 174 138 200 191 200 185 233 240 237 243
206 186 179 198 207 192 199 189 210 200 213 206 257 298 323 355 264 247 186 210 191 208 207 210 211 187 180 152 149 150 156 163 180 160 151 176 115 115 113 148 193 183 202 152
203 184 181 200 203 190 200 202 197 212 224 208 203 247 334 384 323 258 249 246 231 175 205 231 209 210 172 168 166 155 178 145 152 203 160 114 122 136 149 160 153 179 213 189
200 195 208 195 199 187 196 173 212 215 197 224 261 263 324 343 396 291 254 250 246 232 172 210 232 215 210 196 169 170 168 149 148 165 168 179 127 156 153 126 123 173 171 171
203 200 198 193 194 199 199 202 204 215 189 213 241 265 258 355 359 385 287 253 254 250 225 168 211 229 222 211 198 184 166 157 148 175 149 151 139 168 135 173 136 161 129 157
194 191 172 174 203 183 208 204 204 211 216 210 235 238 343 356 327 410 347 283 254 255 248 217 161 197 216 239 209 212 195 188 173 172 181 182 149 164 160 131 164 125 175 127
191 204 148 208 211 180 198 200 206 209 221 223 233 256 250 270 340 329 421 341 283 252 251 247 201 178 199 231 233 212 215 206 200 193 166 185 174 165 143 161 195 154 165 145
183 192 211 204 172 180 207 201 193 209 217 216 223 246 324 244 321 309 340 420 318 281 252 247 241 178 166 198 227 225 221 215 210 206 205 185 169 160 148 162 171 202 217 181
182 207 185 208 172 180 208 193 203 209 217 221 233 291 264 237 330 329 337 383 414 305 276 250 236 222 170 155 192 211 220 219 213 213 213 214 213 213 205 205 165 178 173 181
172 201 181 193 197 202 196 201 203 216 224 223 237 304 255 245 350 359 374 390 379 416 292 258 236 219 227 204 188 189 197 215 223 215 213 213 212 199 214 212 212 167 209 143
180 197 212 189 176 204 193 208 213 220 219 232 270 345 252 259 364 372 375 374 395 380 340 262 162 233 229 149 202 197 181 195 201 215 216 214 213 214 213 143 217 216 214 173
212 194 98 185 196 198 212 209 196 226 232 273 269 240 363 346 351 397 385 371 395 352 409 267 256 243 222 170 227 175 197 206 190 196 200 213 213 212 212 212 187 210 211 212
203 175 170 208 199 215 191 212 219 191 249 287 278 266 353 355 357 421 387 377 368 320 378 308 274 262 244 224 231 236 191 194 208 200 192 194 198 201 202 202 201 200 203 202
198 208 185 211 206 202 214 220 209 243 284 321 247 326 354 368 403 415 330 405 124 316 360 377 297 271 155 237 180 233 238 193 203 210 180 198 200 200 202 198 190 201 208 173

GFSNW_2pvu_pres_135.txt.gz
Presure
159 154 211 188 162 185 213 353 312 237 267 266 257 238 218 181 195 170 176 235 234 235 247 256 320 356 330 319 318 317 193 139 275 296 296 276 139 117 279 277 143 265 255 264
171 190 162 166 178 162 180 160 264 298 280 281 271 262 245 216 204 177 194 185 210 212 233 243 248 271 336 243 178 139 298 307 289 291 277 269 276 266 262 274 259 262 259 249
159 169 153 204 165 191 180 206 205 209 252 269 280 275 266 246 214 220 180 173 193 233 164 216 228 200 280 336 247 222 111 153 286 270 264 268 255 267 260 257 257 244 238 251
194 184 164 191 155 161 196 185 163 204 225 221 300 288 276 267 248 237 216 191 180 163 197 190 176 212 146 141 294 314 287 190 286 230 262 270 248 260 257 245 253 251 253 249
162 193 161 174 196 156 173 174 202 193 187 221 226 234 283 272 266 253 238 210 159 198 178 218 221 168 212 126 344 141 313 288 285 270 259 253 261 252 244 258 240 259 245 231
153 157 174 177 160 162 189 161 179 172 203 203 202 223 220 283 270 267 255 241 211 193 161 190 215 180 203 209 196 353 316 134 281 270 259 258 262 254 247 259 237 248 232 239
169 154 164 166 152 174 186 168 164 173 186 197 214 212 226 223 230 274 266 254 241 204 178 185 189 189 187 182 153 126 196 293 274 252 269 254 258 257 254 246 252 229 244 227
166 167 173 167 163 171 167 195 167 167 169 199 193 216 210 217 255 246 278 266 256 241 208 186 148 205 195 220 152 215 382 320 194 129 269 264 251 257 246 245 231 240 239 226
181 159 189 197 173 156 150 156 161 164 168 190 193 189 203 219 218 233 239 282 269 254 239 221 163 191 146 215 200 197 138 335 172 162 271 262 276 248 250 252 256 223 239 253
169 161 174 149 173 184 190 180 194 167 187 172 209 197 199 187 214 178 245 234 276 268 251 236 216 184 162 159 192 172 148 241 247 279 258 280 276 264 255 249 244 255 231 238
193 198 188 171 174 175 158 177 183 166 183 170 172 187 201 208 191 207 218 263 226 280 267 250 235 203 188 174 183 149 187 196 148 211 178 277 279 275 253 258 244 247 239 255
153 203 165 197 186 162 162 166 160 169 198 208 163 202 190 180 207 212 221 323 219 231 277 264 249 236 210 160 166 176 176 205 145 210 127 231 228 260 274 266 270 246 257 255
189 187 184 198 192 202 184 211 219 194 185 157 178 188 196 174 200 180 217 268 214 227 303 274 262 248 237 213 163 158 174 154 181 144 139 188 169 222 232 285 299 268 268 270
180 181 193 177 193 185 189 169 155 172 174 196 183 198 167 165 208 189 205 208 216 246 336 298 273 259 243 232 218 166 159 161 150 158 191 191 142 178 219 153 223 228 227 231
135 175 161 192 191 175 161 147 204 164 180 184 183 180 203 189 183 210 215 192 216 297 229 402 291 276 248 236 232 221 186 167 176 158 151 170 148 172 180 181 234 212 218 191
141 171 169 188 189 189 145 174 203 204 155 229 181 174 170 188 175 206 235 172 223 235 229 232 430 294 261 244 246 236 227 193 164 159 153 157 135 174 162 157 110 98 135 181
170 169 185 179 189 177 189 178 201 194 188 180 166 167 178 195 220 188 226 230 210 228 231 248 320 450 281 266 210 248 183 224 202 187 159 157 159 195 140 155 123 161 202 141
166 164 198 177 176 188 191 184 188 182 179 160 182 172 212 182 199 188 234 211 219 227 216 285 228 363 429 292 274 266 251 195 221 211 190 182 162 167 175 166 179 125 140 163
192 169 184 190 171 172 189 200 185 191 156 149 183 205 215 218 219 194 208 233 215 230 302 298 282 226 311 398 294 278 269 251 236 214 226 194 185 177 172 162 141 140 134 152
188 147 189 184 178 179 169 171 194 154 197 200 194 157 201 203 212 203 202 233 188 239 308 239 232 221 228 293 374 307 282 269 176 246 196 233 205 188 183 179 168 172 198 192
178 189 180 198 182 184 193 174 186 200 198 160 204 169 177 197 202 215 212 234 251 248 284 292 234 221 220 260 317 394 376 285 266 254 250 196 225 222 214 190 188 193 184 188
182 170 190 177 159 144 136 94 194 195 202 201 209 190 216 210 223 223 192 239 231 251 277 258 251 222 247 302 304 382 408 395 286 266 244 253 225 203 233 215 204 187 189 188
164 188 151 140 188 178 138 115 186 195 208 196 206 209 209 217 220 202 235 202 253 266 278 286 244 226 235 284 308 385 398 400 465 284 264 256 255 224 206 238 225 218 191 191
191 157 199 180 185 124 111 188 197 187 191 213 213 208 219 223 239 231 204 225 269 277 267 289 239 256 239 249 306 322 397 419 484 453 282 261 253 253 228 211 192 231 222 217
188 165 127 133 155 183 161 194 205 197 195 211 214 174 224 229 232 208 224 222 239 237 236 281 310 260 230 247 309 317 373 381 363 481 393 233 220 245 251 233 214 192 216 231
195 182 171 185 190 133 161 158 175 180 198 201 220 221 237 238 208 219 204 244 242 256 251 266 246 257 271 321 304 321 377 367 431 336 395 381 278 262 241 229 238 218 208 191
205 203 203 96 172 204 194 145 188 200 200 209 220 236 243 236 224 232 237 267 237 256 255 278 271 323 320 319 312 321 370 356 437 327 383 388 310 275 259 250 245 240 223 216

GFSNW_2pvu_pres_138.txt.gz
Presure
145 175 172 149 184 172 157 189 207 219 227 241 271 278 284 275 260 222 205 209 208 184 236 246 259 340 344 340 312 311 249 235 277 276 239 276 264 263 263 263 264 263 261 253
165 148 167 165 175 160 181 176 177 185 195 226 250 240 282 284 278 262 219 181 201 160 192 237 236 260 356 349 309 133 175 266 272 268 267 273 254 257 266 142 246 255 250 261
187 178 164 178 176 159 172 188 168 194 209 186 201 229 243 277 288 279 263 234 206 195 160 219 236 226 323 135 143 217 292 286 267 276 269 252 254 237 252 256 267 252 236 248
170 149 192 153 165 174 168 173 193 176 183 210 200 179 212 318 275 231 283 265 203 203 205 187 165 229 239 146 169 303 167 279 114 153 253 250 257 254 251 251 256 248 245 238
172 154 169 181 154 145 193 190 170 181 202 164 202 212 189 227 218 239 288 285 268 256 200 198 174 152 161 225 119 282 265 274 274 262 252 253 248 258 234 242 238 245 239 243
189 168 198 163 160 175 192 160 171 190 206 172 180 207 175 230 229 232 233 281 276 242 255 184 196 165 199 211 303 309 134 120 115 257 191 241 254 237 245 247 228 232 252 249
168 167 161 170 192 165 158 170 161 194 165 166 186 180 184 176 191 226 237 236 292 277 270 256 183 192 198 180 220 406 208 246 260 268 252 255 243 256 238 250 240 241 250 231
185 163 146 193 196 195 196 169 161 162 158 169 211 187 171 163 198 177 224 234 263 234 282 268 253 192 185 148 160 219 150 279 133 253 262 252 266 252 238 238 219 253 245 242
189 130 152 202 161 177 166 181 167 170 161 204 175 179 186 169 176 167 218 225 248 296 251 285 264 250 199 175 184 157 218 218 266 250 259 224 252 260 241 235 241 226 257 237
140 177 152 172 148 167 183 179 203 174 166 167 168 191 213 166 170 175 200 203 214 246 285 266 284 260 252 191 191 181 167 154 222 157 256 246 263 264 247 248 236 230 244 251
140 165 179 145 184 168 145 165 167 189 168 192 150 166 158 180 162 164 182 193 196 235 250 334 304 278 260 250 195 167 176 162 154 160 188 132 207 273 232 229 248 245 226 238
168 163 195 189 178 163 185 189 200 208 177 161 188 195 195 200 163 182 174 172 187 170 240 274 249 298 275 260 250 202 168 164 197 140 155 128 135 279 255 272 253 257 245 255
187 170 181 182 180 183 134 182 195 172 180 175 180 166 192 170 211 193 160 204 204 177 181 273 238 347 244 274 261 243 209 171 164 172 202 131 150 137 270 294 291 273 267 244
163 180 160 189 169 168 194 178 195 180 201 186 199 177 161 175 186 167 215 169 193 173 181 193 281 330 286 298 276 256 243 217 191 173 142 174 147 157 214 146 178 231 264 272
174 174 170 181 176 173 181 180 180 197 152 201 189 165 221 178 201 162 166 207 175 213 206 214 184 189 274 232 310 274 252 245 235 195 182 162 156 168 138 201 153 218 206 173
153 150 162 189 184 132 192 173 179 184 198 161 174 206 172 209 189 157 161 202 218 213 206 181 241 180 229 281 240 317 279 257 248 237 218 191 165 165 163 152 169 145 152 125
166 150 168 188 167 183 186 180 189 180 138 148 124 214 181 195 151 199 219 214 204 211 186 234 217 224 269 199 272 224 244 294 269 256 238 217 199 185 166 164 149 174 124 171
163 186 171 178 166 171 189 166 171 164 188 157 168 202 174 222 199 212 179 210 212 216 222 237 220 220 225 254 233 222 236 264 311 276 265 246 219 218 192 182 169 147 136 130
185 158 135 152 162 167 191 172 129 188 189 138 197 198 196 183 203 202 203 187 196 180 205 226 248 234 211 227 238 274 205 233 347 409 283 271 255 235 222 201 191 181 171 160
154 159 135 138 167 168 185 137 167 161 180 196 192 195 217 191 210 201 184 184 208 196 222 232 246 243 239 242 274 252 244 228 236 332 408 294 271 265 244 215 215 200 192 183
173 180 151 153 182 188 187 139 102 119 128 149 160 209 150 218 193 209 196 212 217 212 234 201 243 247 229 246 236 223 265 258 228 239 317 377 312 278 270 246 221 224 209 202
172 173 141 189 180 170 165 126 161 192 163 193 142 212 176 215 200 209 209 210 198 226 225 225 247 260 230 223 237 233 257 288 283 289 275 332 347 370 286 271 252 231 190 217
187 175 192 193 186 182 186 183 183 115 88 190 189 195 161 209 195 220 185 223 218 203 228 243 261 268 256 255 226 213 275 277 276 328 334 308 332 355 432 289 271 258 237 213
169 166 163 163 181 195 178 162 176 110 167 116 147 215 172 175 204 205 215 199 223 215 231 235 202 258 266 229 268 234 252 246 312 328 304 310 309 341 372 515 290 271 261 241
201 207 180 191 182 188 135 199 201 175 202 215 215 169 180 158 196 211 216 211 214 226 239 254 260 256 265 260 272 258 276 309 250 194 329 297 326 327 368 380 443 291 273 263
185 197 210 217 170 207 207 213 201 163 210 185 199 216 189 197 205 216 213 214 226 266 223 220 232 250 237 237 249 262 281 313 305 298 225 294 334 325 340 362 466 383 291 274
225 218 201 207 226 221 115 221 190 200 215 212 92 230 218 209 222 217 221 222 256 257 227 252 259 227 227 242 258 259 280 298 316 309 310 312 326 351 357 462 359 308 385 288